<?xml version="1.0" encoding="UTF-8" standalone="no" ?>
<gpx xmlns="http://www.topografix.com/GPX/1/1" xmlns:xsi="http://www.w3.org/2001/XMLSchema-instance" xsi:schemaLocation="http://www.topografix.com/GPX/1/1 http://www.topografix.com/GPX/1/1/gpx.xsd" version="1.1" creator="VisuGPX - https://www.visugpx.com">
  <metadata>
    <name>val de Chézine</name>
    <desc><![CDATA[entrainement marche nordique]]></desc>
  </metadata>
  <trk>
    <name><![CDATA[2012-01-19-01]]></name>
    <trkseg>
      <trkpt lat="47.23718" lon="-1.61304">
        <ele>24.8</ele>
        <time>2012-01-19T08:46:15Z</time>
      </trkpt>
      <trkpt lat="47.23718" lon="-1.61304">
        <ele>25.1</ele>
        <time>2012-01-19T08:46:16Z</time>
      </trkpt>
      <trkpt lat="47.2371" lon="-1.61299">
        <ele>30.3</ele>
        <time>2012-01-19T08:47:09Z</time>
      </trkpt>
      <trkpt lat="47.23706" lon="-1.61301">
        <ele>40.5</ele>
        <time>2012-01-19T08:47:22Z</time>
      </trkpt>
      <trkpt lat="47.23706" lon="-1.61301">
        <ele>41.2</ele>
        <time>2012-01-19T08:47:23Z</time>
      </trkpt>
      <trkpt lat="47.237" lon="-1.61302">
        <ele>42.2</ele>
        <time>2012-01-19T08:47:41Z</time>
      </trkpt>
      <trkpt lat="47.23704" lon="-1.61305">
        <ele>30.2</ele>
        <time>2012-01-19T08:48:03Z</time>
      </trkpt>
      <trkpt lat="47.23707" lon="-1.61309">
        <ele>26.6</ele>
        <time>2012-01-19T08:48:11Z</time>
      </trkpt>
      <trkpt lat="47.23711" lon="-1.61307">
        <ele>25.6</ele>
        <time>2012-01-19T08:48:15Z</time>
      </trkpt>
      <trkpt lat="47.23715" lon="-1.61305">
        <ele>24.7</ele>
        <time>2012-01-19T08:48:19Z</time>
      </trkpt>
      <trkpt lat="47.23718" lon="-1.61304">
        <ele>24.5</ele>
        <time>2012-01-19T08:48:22Z</time>
      </trkpt>
      <trkpt lat="47.23722" lon="-1.61303">
        <ele>23.1</ele>
        <time>2012-01-19T08:48:25Z</time>
      </trkpt>
      <trkpt lat="47.23723" lon="-1.61303">
        <ele>22.7</ele>
        <time>2012-01-19T08:48:26Z</time>
      </trkpt>
      <trkpt lat="47.2373" lon="-1.61305">
        <ele>22.7</ele>
        <time>2012-01-19T08:48:31Z</time>
      </trkpt>
      <trkpt lat="47.23733" lon="-1.61308">
        <ele>23.5</ele>
        <time>2012-01-19T08:48:35Z</time>
      </trkpt>
      <trkpt lat="47.23736" lon="-1.61313">
        <ele>22.8</ele>
        <time>2012-01-19T08:48:39Z</time>
      </trkpt>
      <trkpt lat="47.23739" lon="-1.61318">
        <ele>22.8</ele>
        <time>2012-01-19T08:48:44Z</time>
      </trkpt>
      <trkpt lat="47.23741" lon="-1.61324">
        <ele>23</ele>
        <time>2012-01-19T08:48:48Z</time>
      </trkpt>
      <trkpt lat="47.23743" lon="-1.61326">
        <ele>22.7</ele>
        <time>2012-01-19T08:48:50Z</time>
      </trkpt>
      <trkpt lat="47.23746" lon="-1.61331">
        <ele>22.6</ele>
        <time>2012-01-19T08:48:53Z</time>
      </trkpt>
      <trkpt lat="47.23747" lon="-1.61337">
        <ele>22.1</ele>
        <time>2012-01-19T08:48:57Z</time>
      </trkpt>
      <trkpt lat="47.23749" lon="-1.61342">
        <ele>22.2</ele>
        <time>2012-01-19T08:49:00Z</time>
      </trkpt>
      <trkpt lat="47.23751" lon="-1.61346">
        <ele>22.5</ele>
        <time>2012-01-19T08:49:02Z</time>
      </trkpt>
      <trkpt lat="47.23753" lon="-1.61351">
        <ele>22.2</ele>
        <time>2012-01-19T08:49:05Z</time>
      </trkpt>
      <trkpt lat="47.23756" lon="-1.61355">
        <ele>22.7</ele>
        <time>2012-01-19T08:49:08Z</time>
      </trkpt>
      <trkpt lat="47.23759" lon="-1.61359">
        <ele>23.7</ele>
        <time>2012-01-19T08:49:10Z</time>
      </trkpt>
      <trkpt lat="47.23762" lon="-1.61363">
        <ele>24.2</ele>
        <time>2012-01-19T08:49:12Z</time>
      </trkpt>
      <trkpt lat="47.23763" lon="-1.61368">
        <ele>24.2</ele>
        <time>2012-01-19T08:49:14Z</time>
      </trkpt>
      <trkpt lat="47.23763" lon="-1.61373">
        <ele>23.3</ele>
        <time>2012-01-19T08:49:16Z</time>
      </trkpt>
      <trkpt lat="47.23765" lon="-1.61378">
        <ele>23</ele>
        <time>2012-01-19T08:49:18Z</time>
      </trkpt>
      <trkpt lat="47.23765" lon="-1.61384">
        <ele>23</ele>
        <time>2012-01-19T08:49:20Z</time>
      </trkpt>
      <trkpt lat="47.23767" lon="-1.61388">
        <ele>22.8</ele>
        <time>2012-01-19T08:49:22Z</time>
      </trkpt>
      <trkpt lat="47.23768" lon="-1.61393">
        <ele>22.7</ele>
        <time>2012-01-19T08:49:24Z</time>
      </trkpt>
      <trkpt lat="47.23769" lon="-1.614">
        <ele>22.7</ele>
        <time>2012-01-19T08:49:27Z</time>
      </trkpt>
      <trkpt lat="47.23769" lon="-1.61402">
        <ele>22.7</ele>
        <time>2012-01-19T08:49:28Z</time>
      </trkpt>
      <trkpt lat="47.23771" lon="-1.6141">
        <ele>22.7</ele>
        <time>2012-01-19T08:49:32Z</time>
      </trkpt>
      <trkpt lat="47.23771" lon="-1.61416">
        <ele>22.7</ele>
        <time>2012-01-19T08:49:35Z</time>
      </trkpt>
      <trkpt lat="47.23772" lon="-1.61421">
        <ele>22.7</ele>
        <time>2012-01-19T08:49:38Z</time>
      </trkpt>
      <trkpt lat="47.23773" lon="-1.61428">
        <ele>22.6</ele>
        <time>2012-01-19T08:49:41Z</time>
      </trkpt>
      <trkpt lat="47.23774" lon="-1.61434">
        <ele>22.2</ele>
        <time>2012-01-19T08:49:44Z</time>
      </trkpt>
      <trkpt lat="47.23774" lon="-1.61439">
        <ele>21.8</ele>
        <time>2012-01-19T08:49:46Z</time>
      </trkpt>
      <trkpt lat="47.23775" lon="-1.61444">
        <ele>22.7</ele>
        <time>2012-01-19T08:49:48Z</time>
      </trkpt>
      <trkpt lat="47.23775" lon="-1.61449">
        <ele>23.1</ele>
        <time>2012-01-19T08:49:50Z</time>
      </trkpt>
      <trkpt lat="47.23775" lon="-1.61454">
        <ele>23.7</ele>
        <time>2012-01-19T08:49:53Z</time>
      </trkpt>
      <trkpt lat="47.23775" lon="-1.61459">
        <ele>24</ele>
        <time>2012-01-19T08:49:55Z</time>
      </trkpt>
      <trkpt lat="47.23774" lon="-1.61463">
        <ele>23.8</ele>
        <time>2012-01-19T08:49:57Z</time>
      </trkpt>
      <trkpt lat="47.23774" lon="-1.61469">
        <ele>23.3</ele>
        <time>2012-01-19T08:50:00Z</time>
      </trkpt>
      <trkpt lat="47.23773" lon="-1.61473">
        <ele>23.1</ele>
        <time>2012-01-19T08:50:02Z</time>
      </trkpt>
      <trkpt lat="47.23772" lon="-1.61478">
        <ele>22.6</ele>
        <time>2012-01-19T08:50:04Z</time>
      </trkpt>
      <trkpt lat="47.23769" lon="-1.61483">
        <ele>22.3</ele>
        <time>2012-01-19T08:50:07Z</time>
      </trkpt>
      <trkpt lat="47.23767" lon="-1.61486">
        <ele>22.2</ele>
        <time>2012-01-19T08:50:09Z</time>
      </trkpt>
      <trkpt lat="47.23764" lon="-1.6149">
        <ele>22.7</ele>
        <time>2012-01-19T08:50:11Z</time>
      </trkpt>
      <trkpt lat="47.23763" lon="-1.61494">
        <ele>22.7</ele>
        <time>2012-01-19T08:50:13Z</time>
      </trkpt>
      <trkpt lat="47.23761" lon="-1.61499">
        <ele>22.5</ele>
        <time>2012-01-19T08:50:15Z</time>
      </trkpt>
      <trkpt lat="47.2376" lon="-1.61505">
        <ele>22.8</ele>
        <time>2012-01-19T08:50:17Z</time>
      </trkpt>
      <trkpt lat="47.23758" lon="-1.6151">
        <ele>23.2</ele>
        <time>2012-01-19T08:50:19Z</time>
      </trkpt>
      <trkpt lat="47.23757" lon="-1.61516">
        <ele>23.6</ele>
        <time>2012-01-19T08:50:22Z</time>
      </trkpt>
      <trkpt lat="47.23755" lon="-1.61522">
        <ele>23.5</ele>
        <time>2012-01-19T08:50:25Z</time>
      </trkpt>
      <trkpt lat="47.23753" lon="-1.61525">
        <ele>23.1</ele>
        <time>2012-01-19T08:50:27Z</time>
      </trkpt>
      <trkpt lat="47.23749" lon="-1.61527">
        <ele>22.5</ele>
        <time>2012-01-19T08:50:30Z</time>
      </trkpt>
      <trkpt lat="47.23747" lon="-1.61527">
        <ele>22.3</ele>
        <time>2012-01-19T08:50:31Z</time>
      </trkpt>
      <trkpt lat="47.23741" lon="-1.61527">
        <ele>22.8</ele>
        <time>2012-01-19T08:50:37Z</time>
      </trkpt>
      <trkpt lat="47.23738" lon="-1.61527">
        <ele>23.6</ele>
        <time>2012-01-19T08:50:40Z</time>
      </trkpt>
      <trkpt lat="47.23734" lon="-1.61528">
        <ele>24</ele>
        <time>2012-01-19T08:50:43Z</time>
      </trkpt>
      <trkpt lat="47.2373" lon="-1.61528">
        <ele>23.7</ele>
        <time>2012-01-19T08:50:46Z</time>
      </trkpt>
      <trkpt lat="47.23727" lon="-1.61528">
        <ele>23.8</ele>
        <time>2012-01-19T08:50:48Z</time>
      </trkpt>
      <trkpt lat="47.23724" lon="-1.61526">
        <ele>24.2</ele>
        <time>2012-01-19T08:50:51Z</time>
      </trkpt>
      <trkpt lat="47.2372" lon="-1.61525">
        <ele>25.1</ele>
        <time>2012-01-19T08:50:58Z</time>
      </trkpt>
      <trkpt lat="47.23716" lon="-1.61522">
        <ele>25.1</ele>
        <time>2012-01-19T08:51:02Z</time>
      </trkpt>
      <trkpt lat="47.23714" lon="-1.61518">
        <ele>25.3</ele>
        <time>2012-01-19T08:51:08Z</time>
      </trkpt>
      <trkpt lat="47.2371" lon="-1.61516">
        <ele>26.1</ele>
        <time>2012-01-19T08:51:13Z</time>
      </trkpt>
      <trkpt lat="47.23706" lon="-1.61518">
        <ele>26.2</ele>
        <time>2012-01-19T08:51:16Z</time>
      </trkpt>
      <trkpt lat="47.23702" lon="-1.61521">
        <ele>25.8</ele>
        <time>2012-01-19T08:51:19Z</time>
      </trkpt>
      <trkpt lat="47.23699" lon="-1.61523">
        <ele>26.2</ele>
        <time>2012-01-19T08:51:21Z</time>
      </trkpt>
      <trkpt lat="47.23696" lon="-1.61525">
        <ele>26.3</ele>
        <time>2012-01-19T08:51:23Z</time>
      </trkpt>
      <trkpt lat="47.23692" lon="-1.61528">
        <ele>26.2</ele>
        <time>2012-01-19T08:51:26Z</time>
      </trkpt>
      <trkpt lat="47.23688" lon="-1.6153">
        <ele>26.3</ele>
        <time>2012-01-19T08:51:29Z</time>
      </trkpt>
      <trkpt lat="47.23684" lon="-1.61533">
        <ele>27.2</ele>
        <time>2012-01-19T08:51:33Z</time>
      </trkpt>
      <trkpt lat="47.23684" lon="-1.61533">
        <ele>27.1</ele>
        <time>2012-01-19T08:51:34Z</time>
      </trkpt>
      <trkpt lat="47.23677" lon="-1.61534">
        <ele>27.2</ele>
        <time>2012-01-19T08:51:40Z</time>
      </trkpt>
      <trkpt lat="47.23673" lon="-1.61535">
        <ele>28.1</ele>
        <time>2012-01-19T08:51:43Z</time>
      </trkpt>
      <trkpt lat="47.23669" lon="-1.61535">
        <ele>28.1</ele>
        <time>2012-01-19T08:51:46Z</time>
      </trkpt>
      <trkpt lat="47.23664" lon="-1.61537">
        <ele>28.2</ele>
        <time>2012-01-19T08:51:50Z</time>
      </trkpt>
      <trkpt lat="47.2366" lon="-1.61536">
        <ele>28.7</ele>
        <time>2012-01-19T08:51:54Z</time>
      </trkpt>
      <trkpt lat="47.23656" lon="-1.61534">
        <ele>29.2</ele>
        <time>2012-01-19T08:51:58Z</time>
      </trkpt>
      <trkpt lat="47.23653" lon="-1.61533">
        <ele>29.7</ele>
        <time>2012-01-19T08:52:01Z</time>
      </trkpt>
      <trkpt lat="47.23648" lon="-1.61534">
        <ele>30.6</ele>
        <time>2012-01-19T08:52:04Z</time>
      </trkpt>
      <trkpt lat="47.23645" lon="-1.61534">
        <ele>30.7</ele>
        <time>2012-01-19T08:52:06Z</time>
      </trkpt>
      <trkpt lat="47.23641" lon="-1.61534">
        <ele>30.7</ele>
        <time>2012-01-19T08:52:09Z</time>
      </trkpt>
      <trkpt lat="47.23637" lon="-1.61538">
        <ele>31.1</ele>
        <time>2012-01-19T08:52:12Z</time>
      </trkpt>
      <trkpt lat="47.23635" lon="-1.61541">
        <ele>31.1</ele>
        <time>2012-01-19T08:52:14Z</time>
      </trkpt>
      <trkpt lat="47.23634" lon="-1.61545">
        <ele>30.8</ele>
        <time>2012-01-19T08:52:16Z</time>
      </trkpt>
      <trkpt lat="47.23632" lon="-1.61551">
        <ele>31.6</ele>
        <time>2012-01-19T08:52:19Z</time>
      </trkpt>
      <trkpt lat="47.23629" lon="-1.61556">
        <ele>32.2</ele>
        <time>2012-01-19T08:52:22Z</time>
      </trkpt>
      <trkpt lat="47.23626" lon="-1.61559">
        <ele>32.5</ele>
        <time>2012-01-19T08:52:25Z</time>
      </trkpt>
      <trkpt lat="47.23624" lon="-1.61562">
        <ele>32.7</ele>
        <time>2012-01-19T08:52:27Z</time>
      </trkpt>
      <trkpt lat="47.23621" lon="-1.61565">
        <ele>32.7</ele>
        <time>2012-01-19T08:52:29Z</time>
      </trkpt>
      <trkpt lat="47.23618" lon="-1.61568">
        <ele>32.7</ele>
        <time>2012-01-19T08:52:31Z</time>
      </trkpt>
      <trkpt lat="47.23616" lon="-1.61572">
        <ele>32.9</ele>
        <time>2012-01-19T08:52:33Z</time>
      </trkpt>
      <trkpt lat="47.23613" lon="-1.61576">
        <ele>33</ele>
        <time>2012-01-19T08:52:35Z</time>
      </trkpt>
      <trkpt lat="47.23612" lon="-1.61577">
        <ele>33</ele>
        <time>2012-01-19T08:52:36Z</time>
      </trkpt>
      <trkpt lat="47.23609" lon="-1.61583">
        <ele>33.2</ele>
        <time>2012-01-19T08:52:39Z</time>
      </trkpt>
      <trkpt lat="47.23607" lon="-1.61588">
        <ele>33.7</ele>
        <time>2012-01-19T08:52:42Z</time>
      </trkpt>
      <trkpt lat="47.23606" lon="-1.61595">
        <ele>33.7</ele>
        <time>2012-01-19T08:52:45Z</time>
      </trkpt>
      <trkpt lat="47.23605" lon="-1.61601">
        <ele>34.5</ele>
        <time>2012-01-19T08:52:48Z</time>
      </trkpt>
      <trkpt lat="47.23602" lon="-1.61606">
        <ele>35</ele>
        <time>2012-01-19T08:52:52Z</time>
      </trkpt>
      <trkpt lat="47.236" lon="-1.6161">
        <ele>35.5</ele>
        <time>2012-01-19T08:52:54Z</time>
      </trkpt>
      <trkpt lat="47.23598" lon="-1.61613">
        <ele>36</ele>
        <time>2012-01-19T08:52:56Z</time>
      </trkpt>
      <trkpt lat="47.23596" lon="-1.61617">
        <ele>36.2</ele>
        <time>2012-01-19T08:52:58Z</time>
      </trkpt>
      <trkpt lat="47.23594" lon="-1.6162">
        <ele>36.4</ele>
        <time>2012-01-19T08:53:00Z</time>
      </trkpt>
      <trkpt lat="47.23592" lon="-1.61624">
        <ele>36.2</ele>
        <time>2012-01-19T08:53:02Z</time>
      </trkpt>
      <trkpt lat="47.2359" lon="-1.61627">
        <ele>36</ele>
        <time>2012-01-19T08:53:04Z</time>
      </trkpt>
      <trkpt lat="47.23587" lon="-1.61632">
        <ele>36.9</ele>
        <time>2012-01-19T08:53:07Z</time>
      </trkpt>
      <trkpt lat="47.23585" lon="-1.61637">
        <ele>36.7</ele>
        <time>2012-01-19T08:53:10Z</time>
      </trkpt>
      <trkpt lat="47.23582" lon="-1.61642">
        <ele>37.2</ele>
        <time>2012-01-19T08:53:13Z</time>
      </trkpt>
      <trkpt lat="47.2358" lon="-1.61648">
        <ele>37.9</ele>
        <time>2012-01-19T08:53:16Z</time>
      </trkpt>
      <trkpt lat="47.23579" lon="-1.61654">
        <ele>38</ele>
        <time>2012-01-19T08:53:19Z</time>
      </trkpt>
      <trkpt lat="47.23577" lon="-1.61659">
        <ele>37.5</ele>
        <time>2012-01-19T08:53:22Z</time>
      </trkpt>
      <trkpt lat="47.23575" lon="-1.61664">
        <ele>38.2</ele>
        <time>2012-01-19T08:53:25Z</time>
      </trkpt>
      <trkpt lat="47.23573" lon="-1.61669">
        <ele>38.7</ele>
        <time>2012-01-19T08:53:28Z</time>
      </trkpt>
      <trkpt lat="47.2357" lon="-1.61673">
        <ele>38.5</ele>
        <time>2012-01-19T08:53:31Z</time>
      </trkpt>
      <trkpt lat="47.23567" lon="-1.61678">
        <ele>38.5</ele>
        <time>2012-01-19T08:53:34Z</time>
      </trkpt>
      <trkpt lat="47.23564" lon="-1.61682">
        <ele>39.2</ele>
        <time>2012-01-19T08:53:38Z</time>
      </trkpt>
      <trkpt lat="47.23563" lon="-1.61683">
        <ele>39.4</ele>
        <time>2012-01-19T08:53:39Z</time>
      </trkpt>
      <trkpt lat="47.23558" lon="-1.61689">
        <ele>39.5</ele>
        <time>2012-01-19T08:53:43Z</time>
      </trkpt>
      <trkpt lat="47.23556" lon="-1.61691">
        <ele>39.2</ele>
        <time>2012-01-19T08:53:45Z</time>
      </trkpt>
      <trkpt lat="47.23552" lon="-1.61696">
        <ele>39.2</ele>
        <time>2012-01-19T08:53:48Z</time>
      </trkpt>
      <trkpt lat="47.23549" lon="-1.61699">
        <ele>39.5</ele>
        <time>2012-01-19T08:53:51Z</time>
      </trkpt>
      <trkpt lat="47.23545" lon="-1.61702">
        <ele>39.7</ele>
        <time>2012-01-19T08:53:53Z</time>
      </trkpt>
      <trkpt lat="47.23542" lon="-1.61705">
        <ele>40.4</ele>
        <time>2012-01-19T08:53:56Z</time>
      </trkpt>
      <trkpt lat="47.23539" lon="-1.61707">
        <ele>41</ele>
        <time>2012-01-19T08:53:58Z</time>
      </trkpt>
      <trkpt lat="47.23536" lon="-1.61712">
        <ele>41</ele>
        <time>2012-01-19T08:54:01Z</time>
      </trkpt>
      <trkpt lat="47.23533" lon="-1.61714">
        <ele>40.9</ele>
        <time>2012-01-19T08:54:03Z</time>
      </trkpt>
      <trkpt lat="47.23531" lon="-1.61717">
        <ele>40.9</ele>
        <time>2012-01-19T08:54:05Z</time>
      </trkpt>
      <trkpt lat="47.23528" lon="-1.61719">
        <ele>41</ele>
        <time>2012-01-19T08:54:07Z</time>
      </trkpt>
      <trkpt lat="47.23525" lon="-1.61723">
        <ele>41.2</ele>
        <time>2012-01-19T08:54:10Z</time>
      </trkpt>
      <trkpt lat="47.23521" lon="-1.61725">
        <ele>41</ele>
        <time>2012-01-19T08:54:13Z</time>
      </trkpt>
      <trkpt lat="47.23518" lon="-1.61728">
        <ele>41.2</ele>
        <time>2012-01-19T08:54:15Z</time>
      </trkpt>
      <trkpt lat="47.23516" lon="-1.6173">
        <ele>41.5</ele>
        <time>2012-01-19T08:54:17Z</time>
      </trkpt>
      <trkpt lat="47.23513" lon="-1.61734">
        <ele>41.7</ele>
        <time>2012-01-19T08:54:20Z</time>
      </trkpt>
      <trkpt lat="47.23509" lon="-1.61738">
        <ele>41.7</ele>
        <time>2012-01-19T08:54:23Z</time>
      </trkpt>
      <trkpt lat="47.23507" lon="-1.61741">
        <ele>41.7</ele>
        <time>2012-01-19T08:54:25Z</time>
      </trkpt>
      <trkpt lat="47.23504" lon="-1.61743">
        <ele>41.5</ele>
        <time>2012-01-19T08:54:27Z</time>
      </trkpt>
      <trkpt lat="47.23501" lon="-1.61746">
        <ele>41.5</ele>
        <time>2012-01-19T08:54:29Z</time>
      </trkpt>
      <trkpt lat="47.23498" lon="-1.61748">
        <ele>42</ele>
        <time>2012-01-19T08:54:31Z</time>
      </trkpt>
      <trkpt lat="47.23495" lon="-1.61749">
        <ele>42.5</ele>
        <time>2012-01-19T08:54:33Z</time>
      </trkpt>
      <trkpt lat="47.23491" lon="-1.6175">
        <ele>42.5</ele>
        <time>2012-01-19T08:54:35Z</time>
      </trkpt>
      <trkpt lat="47.23488" lon="-1.61751">
        <ele>42.5</ele>
        <time>2012-01-19T08:54:37Z</time>
      </trkpt>
      <trkpt lat="47.23485" lon="-1.61752">
        <ele>42.4</ele>
        <time>2012-01-19T08:54:39Z</time>
      </trkpt>
      <trkpt lat="47.23483" lon="-1.61752">
        <ele>42.2</ele>
        <time>2012-01-19T08:54:40Z</time>
      </trkpt>
      <trkpt lat="47.23477" lon="-1.61749">
        <ele>43.2</ele>
        <time>2012-01-19T08:54:45Z</time>
      </trkpt>
      <trkpt lat="47.23475" lon="-1.61745">
        <ele>43.5</ele>
        <time>2012-01-19T08:54:48Z</time>
      </trkpt>
      <trkpt lat="47.23473" lon="-1.61742">
        <ele>43.5</ele>
        <time>2012-01-19T08:54:50Z</time>
      </trkpt>
      <trkpt lat="47.23471" lon="-1.61738">
        <ele>43.2</ele>
        <time>2012-01-19T08:54:52Z</time>
      </trkpt>
      <trkpt lat="47.23468" lon="-1.61736">
        <ele>43.4</ele>
        <time>2012-01-19T08:54:54Z</time>
      </trkpt>
      <trkpt lat="47.23466" lon="-1.61733">
        <ele>43.5</ele>
        <time>2012-01-19T08:54:56Z</time>
      </trkpt>
      <trkpt lat="47.23464" lon="-1.6173">
        <ele>43.5</ele>
        <time>2012-01-19T08:54:58Z</time>
      </trkpt>
      <trkpt lat="47.23461" lon="-1.61727">
        <ele>43.5</ele>
        <time>2012-01-19T08:55:00Z</time>
      </trkpt>
      <trkpt lat="47.23459" lon="-1.61725">
        <ele>43.5</ele>
        <time>2012-01-19T08:55:02Z</time>
      </trkpt>
      <trkpt lat="47.23455" lon="-1.61722">
        <ele>43.7</ele>
        <time>2012-01-19T08:55:05Z</time>
      </trkpt>
      <trkpt lat="47.23452" lon="-1.61719">
        <ele>43.5</ele>
        <time>2012-01-19T08:55:07Z</time>
      </trkpt>
      <trkpt lat="47.23448" lon="-1.61716">
        <ele>43.7</ele>
        <time>2012-01-19T08:55:10Z</time>
      </trkpt>
      <trkpt lat="47.23445" lon="-1.61715">
        <ele>44.2</ele>
        <time>2012-01-19T08:55:12Z</time>
      </trkpt>
      <trkpt lat="47.23442" lon="-1.61714">
        <ele>44.7</ele>
        <time>2012-01-19T08:55:14Z</time>
      </trkpt>
      <trkpt lat="47.23439" lon="-1.61713">
        <ele>44.7</ele>
        <time>2012-01-19T08:55:16Z</time>
      </trkpt>
      <trkpt lat="47.23436" lon="-1.61713">
        <ele>44.9</ele>
        <time>2012-01-19T08:55:18Z</time>
      </trkpt>
      <trkpt lat="47.23433" lon="-1.61713">
        <ele>44.7</ele>
        <time>2012-01-19T08:55:20Z</time>
      </trkpt>
      <trkpt lat="47.23429" lon="-1.61713">
        <ele>44.7</ele>
        <time>2012-01-19T08:55:22Z</time>
      </trkpt>
      <trkpt lat="47.23426" lon="-1.61713">
        <ele>44.7</ele>
        <time>2012-01-19T08:55:24Z</time>
      </trkpt>
      <trkpt lat="47.23423" lon="-1.61713">
        <ele>45.2</ele>
        <time>2012-01-19T08:55:26Z</time>
      </trkpt>
      <trkpt lat="47.23419" lon="-1.61713">
        <ele>45.7</ele>
        <time>2012-01-19T08:55:28Z</time>
      </trkpt>
      <trkpt lat="47.23416" lon="-1.61712">
        <ele>45.5</ele>
        <time>2012-01-19T08:55:30Z</time>
      </trkpt>
      <trkpt lat="47.23412" lon="-1.61712">
        <ele>45.5</ele>
        <time>2012-01-19T08:55:33Z</time>
      </trkpt>
      <trkpt lat="47.23408" lon="-1.61711">
        <ele>45.4</ele>
        <time>2012-01-19T08:55:36Z</time>
      </trkpt>
      <trkpt lat="47.23405" lon="-1.61711">
        <ele>45.2</ele>
        <time>2012-01-19T08:55:38Z</time>
      </trkpt>
      <trkpt lat="47.23402" lon="-1.61711">
        <ele>45.2</ele>
        <time>2012-01-19T08:55:40Z</time>
      </trkpt>
      <trkpt lat="47.23401" lon="-1.61711">
        <ele>45.2</ele>
        <time>2012-01-19T08:55:41Z</time>
      </trkpt>
      <trkpt lat="47.23394" lon="-1.61713">
        <ele>44.7</ele>
        <time>2012-01-19T08:55:46Z</time>
      </trkpt>
      <trkpt lat="47.2339" lon="-1.61715">
        <ele>45</ele>
        <time>2012-01-19T08:55:49Z</time>
      </trkpt>
      <trkpt lat="47.23387" lon="-1.61717">
        <ele>45.7</ele>
        <time>2012-01-19T08:55:52Z</time>
      </trkpt>
      <trkpt lat="47.23384" lon="-1.6172">
        <ele>46</ele>
        <time>2012-01-19T08:55:56Z</time>
      </trkpt>
      <trkpt lat="47.23381" lon="-1.61724">
        <ele>46</ele>
        <time>2012-01-19T08:55:59Z</time>
      </trkpt>
      <trkpt lat="47.23377" lon="-1.61727">
        <ele>46.9</ele>
        <time>2012-01-19T08:56:02Z</time>
      </trkpt>
      <trkpt lat="47.23374" lon="-1.6173">
        <ele>46.9</ele>
        <time>2012-01-19T08:56:04Z</time>
      </trkpt>
      <trkpt lat="47.23371" lon="-1.61732">
        <ele>46.7</ele>
        <time>2012-01-19T08:56:06Z</time>
      </trkpt>
      <trkpt lat="47.23369" lon="-1.61734">
        <ele>46.7</ele>
        <time>2012-01-19T08:56:08Z</time>
      </trkpt>
      <trkpt lat="47.23365" lon="-1.61737">
        <ele>46.9</ele>
        <time>2012-01-19T08:56:11Z</time>
      </trkpt>
      <trkpt lat="47.23362" lon="-1.61739">
        <ele>47</ele>
        <time>2012-01-19T08:56:13Z</time>
      </trkpt>
      <trkpt lat="47.23359" lon="-1.61741">
        <ele>47.2</ele>
        <time>2012-01-19T08:56:15Z</time>
      </trkpt>
      <trkpt lat="47.23356" lon="-1.61743">
        <ele>47.2</ele>
        <time>2012-01-19T08:56:17Z</time>
      </trkpt>
      <trkpt lat="47.23353" lon="-1.61745">
        <ele>47.2</ele>
        <time>2012-01-19T08:56:19Z</time>
      </trkpt>
      <trkpt lat="47.23349" lon="-1.61747">
        <ele>47.5</ele>
        <time>2012-01-19T08:56:21Z</time>
      </trkpt>
      <trkpt lat="47.23346" lon="-1.61749">
        <ele>47.5</ele>
        <time>2012-01-19T08:56:23Z</time>
      </trkpt>
      <trkpt lat="47.23343" lon="-1.61751">
        <ele>47.2</ele>
        <time>2012-01-19T08:56:25Z</time>
      </trkpt>
      <trkpt lat="47.2334" lon="-1.61752">
        <ele>48</ele>
        <time>2012-01-19T08:56:27Z</time>
      </trkpt>
      <trkpt lat="47.23337" lon="-1.61754">
        <ele>47.9</ele>
        <time>2012-01-19T08:56:29Z</time>
      </trkpt>
      <trkpt lat="47.23333" lon="-1.61755">
        <ele>47.5</ele>
        <time>2012-01-19T08:56:31Z</time>
      </trkpt>
      <trkpt lat="47.2333" lon="-1.61756">
        <ele>47.5</ele>
        <time>2012-01-19T08:56:33Z</time>
      </trkpt>
      <trkpt lat="47.23327" lon="-1.61757">
        <ele>48</ele>
        <time>2012-01-19T08:56:35Z</time>
      </trkpt>
      <trkpt lat="47.23324" lon="-1.61757">
        <ele>48.2</ele>
        <time>2012-01-19T08:56:37Z</time>
      </trkpt>
      <trkpt lat="47.23321" lon="-1.61758">
        <ele>48.2</ele>
        <time>2012-01-19T08:56:39Z</time>
      </trkpt>
      <trkpt lat="47.23318" lon="-1.61758">
        <ele>48</ele>
        <time>2012-01-19T08:56:41Z</time>
      </trkpt>
      <trkpt lat="47.23316" lon="-1.61758">
        <ele>48.2</ele>
        <time>2012-01-19T08:56:42Z</time>
      </trkpt>
      <trkpt lat="47.23309" lon="-1.61757">
        <ele>48.9</ele>
        <time>2012-01-19T08:56:47Z</time>
      </trkpt>
      <trkpt lat="47.23305" lon="-1.61756">
        <ele>48.7</ele>
        <time>2012-01-19T08:56:50Z</time>
      </trkpt>
      <trkpt lat="47.23301" lon="-1.61757">
        <ele>48.2</ele>
        <time>2012-01-19T08:56:53Z</time>
      </trkpt>
      <trkpt lat="47.23297" lon="-1.61758">
        <ele>48.2</ele>
        <time>2012-01-19T08:56:56Z</time>
      </trkpt>
      <trkpt lat="47.23293" lon="-1.61759">
        <ele>48.4</ele>
        <time>2012-01-19T08:56:59Z</time>
      </trkpt>
      <trkpt lat="47.23289" lon="-1.61761">
        <ele>48.9</ele>
        <time>2012-01-19T08:57:02Z</time>
      </trkpt>
      <trkpt lat="47.23285" lon="-1.61764">
        <ele>49.2</ele>
        <time>2012-01-19T08:57:05Z</time>
      </trkpt>
      <trkpt lat="47.23282" lon="-1.61766">
        <ele>49.2</ele>
        <time>2012-01-19T08:57:08Z</time>
      </trkpt>
      <trkpt lat="47.23279" lon="-1.61768">
        <ele>49.5</ele>
        <time>2012-01-19T08:57:10Z</time>
      </trkpt>
      <trkpt lat="47.23275" lon="-1.61771">
        <ele>49.2</ele>
        <time>2012-01-19T08:57:13Z</time>
      </trkpt>
      <trkpt lat="47.23271" lon="-1.61774">
        <ele>49.5</ele>
        <time>2012-01-19T08:57:16Z</time>
      </trkpt>
      <trkpt lat="47.23268" lon="-1.61777">
        <ele>49.7</ele>
        <time>2012-01-19T08:57:19Z</time>
      </trkpt>
      <trkpt lat="47.23264" lon="-1.6178">
        <ele>50.2</ele>
        <time>2012-01-19T08:57:22Z</time>
      </trkpt>
      <trkpt lat="47.23261" lon="-1.61783">
        <ele>49.7</ele>
        <time>2012-01-19T08:57:24Z</time>
      </trkpt>
      <trkpt lat="47.23259" lon="-1.61785">
        <ele>49</ele>
        <time>2012-01-19T08:57:26Z</time>
      </trkpt>
      <trkpt lat="47.23255" lon="-1.61788">
        <ele>48.5</ele>
        <time>2012-01-19T08:57:29Z</time>
      </trkpt>
      <trkpt lat="47.23251" lon="-1.6179">
        <ele>48.7</ele>
        <time>2012-01-19T08:57:32Z</time>
      </trkpt>
      <trkpt lat="47.23247" lon="-1.61793">
        <ele>49</ele>
        <time>2012-01-19T08:57:35Z</time>
      </trkpt>
      <trkpt lat="47.23243" lon="-1.61796">
        <ele>49.2</ele>
        <time>2012-01-19T08:57:38Z</time>
      </trkpt>
      <trkpt lat="47.2324" lon="-1.61799">
        <ele>49.7</ele>
        <time>2012-01-19T08:57:41Z</time>
      </trkpt>
      <trkpt lat="47.23236" lon="-1.61803">
        <ele>50.4</ele>
        <time>2012-01-19T08:57:44Z</time>
      </trkpt>
      <trkpt lat="47.23235" lon="-1.61804">
        <ele>50.5</ele>
        <time>2012-01-19T08:57:45Z</time>
      </trkpt>
      <trkpt lat="47.23231" lon="-1.61813">
        <ele>50.2</ele>
        <time>2012-01-19T08:57:50Z</time>
      </trkpt>
      <trkpt lat="47.2323" lon="-1.61819">
        <ele>51.2</ele>
        <time>2012-01-19T08:57:58Z</time>
      </trkpt>
      <trkpt lat="47.23228" lon="-1.61824">
        <ele>51</ele>
        <time>2012-01-19T08:58:01Z</time>
      </trkpt>
      <trkpt lat="47.23226" lon="-1.61829">
        <ele>50.9</ele>
        <time>2012-01-19T08:58:04Z</time>
      </trkpt>
      <trkpt lat="47.23224" lon="-1.61835">
        <ele>50.7</ele>
        <time>2012-01-19T08:58:07Z</time>
      </trkpt>
      <trkpt lat="47.23222" lon="-1.61841">
        <ele>51.7</ele>
        <time>2012-01-19T08:58:10Z</time>
      </trkpt>
      <trkpt lat="47.23221" lon="-1.61845">
        <ele>51.7</ele>
        <time>2012-01-19T08:58:12Z</time>
      </trkpt>
      <trkpt lat="47.2322" lon="-1.61851">
        <ele>51.7</ele>
        <time>2012-01-19T08:58:15Z</time>
      </trkpt>
      <trkpt lat="47.23218" lon="-1.61857">
        <ele>51.7</ele>
        <time>2012-01-19T08:58:18Z</time>
      </trkpt>
      <trkpt lat="47.23218" lon="-1.61863">
        <ele>52.2</ele>
        <time>2012-01-19T08:58:21Z</time>
      </trkpt>
      <trkpt lat="47.23218" lon="-1.61869">
        <ele>52.4</ele>
        <time>2012-01-19T08:58:24Z</time>
      </trkpt>
      <trkpt lat="47.23217" lon="-1.61876">
        <ele>52.4</ele>
        <time>2012-01-19T08:58:27Z</time>
      </trkpt>
      <trkpt lat="47.23217" lon="-1.61882">
        <ele>52.7</ele>
        <time>2012-01-19T08:58:30Z</time>
      </trkpt>
      <trkpt lat="47.23216" lon="-1.61886">
        <ele>53.2</ele>
        <time>2012-01-19T08:58:32Z</time>
      </trkpt>
      <trkpt lat="47.23216" lon="-1.61891">
        <ele>53.2</ele>
        <time>2012-01-19T08:58:34Z</time>
      </trkpt>
      <trkpt lat="47.23216" lon="-1.61897">
        <ele>53</ele>
        <time>2012-01-19T08:58:37Z</time>
      </trkpt>
      <trkpt lat="47.23217" lon="-1.61903">
        <ele>53.2</ele>
        <time>2012-01-19T08:58:40Z</time>
      </trkpt>
      <trkpt lat="47.23218" lon="-1.6191">
        <ele>53.4</ele>
        <time>2012-01-19T08:58:43Z</time>
      </trkpt>
      <trkpt lat="47.23219" lon="-1.61916">
        <ele>54</ele>
        <time>2012-01-19T08:58:46Z</time>
      </trkpt>
      <trkpt lat="47.23219" lon="-1.61918">
        <ele>54</ele>
        <time>2012-01-19T08:58:47Z</time>
      </trkpt>
      <trkpt lat="47.23221" lon="-1.61926">
        <ele>53.9</ele>
        <time>2012-01-19T08:58:51Z</time>
      </trkpt>
      <trkpt lat="47.23222" lon="-1.6193">
        <ele>53.7</ele>
        <time>2012-01-19T08:58:53Z</time>
      </trkpt>
      <trkpt lat="47.23223" lon="-1.61935">
        <ele>53.5</ele>
        <time>2012-01-19T08:58:55Z</time>
      </trkpt>
      <trkpt lat="47.23224" lon="-1.61939">
        <ele>53.7</ele>
        <time>2012-01-19T08:58:57Z</time>
      </trkpt>
      <trkpt lat="47.23225" lon="-1.61945">
        <ele>53.9</ele>
        <time>2012-01-19T08:59:00Z</time>
      </trkpt>
      <trkpt lat="47.23226" lon="-1.61949">
        <ele>53.9</ele>
        <time>2012-01-19T08:59:02Z</time>
      </trkpt>
      <trkpt lat="47.23227" lon="-1.61955">
        <ele>53.2</ele>
        <time>2012-01-19T08:59:05Z</time>
      </trkpt>
      <trkpt lat="47.23228" lon="-1.61961">
        <ele>52.9</ele>
        <time>2012-01-19T08:59:08Z</time>
      </trkpt>
      <trkpt lat="47.23229" lon="-1.61967">
        <ele>53.7</ele>
        <time>2012-01-19T08:59:11Z</time>
      </trkpt>
      <trkpt lat="47.2323" lon="-1.61973">
        <ele>53.7</ele>
        <time>2012-01-19T08:59:14Z</time>
      </trkpt>
      <trkpt lat="47.23231" lon="-1.61979">
        <ele>54</ele>
        <time>2012-01-19T08:59:17Z</time>
      </trkpt>
      <trkpt lat="47.23233" lon="-1.61984">
        <ele>54</ele>
        <time>2012-01-19T08:59:20Z</time>
      </trkpt>
      <trkpt lat="47.23234" lon="-1.6199">
        <ele>54.2</ele>
        <time>2012-01-19T08:59:23Z</time>
      </trkpt>
      <trkpt lat="47.23236" lon="-1.61994">
        <ele>54.2</ele>
        <time>2012-01-19T08:59:25Z</time>
      </trkpt>
      <trkpt lat="47.23237" lon="-1.61998">
        <ele>54</ele>
        <time>2012-01-19T08:59:27Z</time>
      </trkpt>
      <trkpt lat="47.2324" lon="-1.62003">
        <ele>53.5</ele>
        <time>2012-01-19T08:59:30Z</time>
      </trkpt>
      <trkpt lat="47.23242" lon="-1.62009">
        <ele>52.9</ele>
        <time>2012-01-19T08:59:33Z</time>
      </trkpt>
      <trkpt lat="47.23243" lon="-1.62014">
        <ele>53.5</ele>
        <time>2012-01-19T08:59:36Z</time>
      </trkpt>
      <trkpt lat="47.23245" lon="-1.62019">
        <ele>53.5</ele>
        <time>2012-01-19T08:59:39Z</time>
      </trkpt>
      <trkpt lat="47.23246" lon="-1.62025">
        <ele>54</ele>
        <time>2012-01-19T08:59:42Z</time>
      </trkpt>
      <trkpt lat="47.23248" lon="-1.62031">
        <ele>53.9</ele>
        <time>2012-01-19T08:59:45Z</time>
      </trkpt>
      <trkpt lat="47.23249" lon="-1.62037">
        <ele>53.7</ele>
        <time>2012-01-19T08:59:48Z</time>
      </trkpt>
      <trkpt lat="47.23249" lon="-1.62039">
        <ele>53.5</ele>
        <time>2012-01-19T08:59:49Z</time>
      </trkpt>
      <trkpt lat="47.23251" lon="-1.62045">
        <ele>54</ele>
        <time>2012-01-19T08:59:52Z</time>
      </trkpt>
      <trkpt lat="47.23251" lon="-1.6205">
        <ele>53.5</ele>
        <time>2012-01-19T08:59:54Z</time>
      </trkpt>
      <trkpt lat="47.23251" lon="-1.62056">
        <ele>53.2</ele>
        <time>2012-01-19T08:59:57Z</time>
      </trkpt>
      <trkpt lat="47.23251" lon="-1.62061">
        <ele>53.2</ele>
        <time>2012-01-19T09:00:00Z</time>
      </trkpt>
      <trkpt lat="47.23252" lon="-1.62066">
        <ele>53.5</ele>
        <time>2012-01-19T09:00:03Z</time>
      </trkpt>
      <trkpt lat="47.23251" lon="-1.62073">
        <ele>53.7</ele>
        <time>2012-01-19T09:00:06Z</time>
      </trkpt>
      <trkpt lat="47.2325" lon="-1.62077">
        <ele>53.2</ele>
        <time>2012-01-19T09:00:08Z</time>
      </trkpt>
      <trkpt lat="47.2325" lon="-1.62082">
        <ele>53</ele>
        <time>2012-01-19T09:00:10Z</time>
      </trkpt>
      <trkpt lat="47.23249" lon="-1.62088">
        <ele>52.7</ele>
        <time>2012-01-19T09:00:13Z</time>
      </trkpt>
      <trkpt lat="47.23248" lon="-1.62093">
        <ele>52.7</ele>
        <time>2012-01-19T09:00:15Z</time>
      </trkpt>
      <trkpt lat="47.23247" lon="-1.62097">
        <ele>52.9</ele>
        <time>2012-01-19T09:00:17Z</time>
      </trkpt>
      <trkpt lat="47.23245" lon="-1.62103">
        <ele>52.9</ele>
        <time>2012-01-19T09:00:20Z</time>
      </trkpt>
      <trkpt lat="47.23243" lon="-1.62107">
        <ele>53</ele>
        <time>2012-01-19T09:00:22Z</time>
      </trkpt>
      <trkpt lat="47.23241" lon="-1.62112">
        <ele>53</ele>
        <time>2012-01-19T09:00:25Z</time>
      </trkpt>
      <trkpt lat="47.23239" lon="-1.62117">
        <ele>52.9</ele>
        <time>2012-01-19T09:00:28Z</time>
      </trkpt>
      <trkpt lat="47.23236" lon="-1.62122">
        <ele>53.4</ele>
        <time>2012-01-19T09:00:31Z</time>
      </trkpt>
      <trkpt lat="47.23233" lon="-1.62127">
        <ele>53.5</ele>
        <time>2012-01-19T09:00:34Z</time>
      </trkpt>
      <trkpt lat="47.23231" lon="-1.6213">
        <ele>53.5</ele>
        <time>2012-01-19T09:00:36Z</time>
      </trkpt>
      <trkpt lat="47.23229" lon="-1.62133">
        <ele>53.5</ele>
        <time>2012-01-19T09:00:38Z</time>
      </trkpt>
      <trkpt lat="47.23225" lon="-1.62137">
        <ele>53.2</ele>
        <time>2012-01-19T09:00:41Z</time>
      </trkpt>
      <trkpt lat="47.23222" lon="-1.62141">
        <ele>52.7</ele>
        <time>2012-01-19T09:00:44Z</time>
      </trkpt>
      <trkpt lat="47.23218" lon="-1.62144">
        <ele>52.5</ele>
        <time>2012-01-19T09:00:47Z</time>
      </trkpt>
      <trkpt lat="47.23214" lon="-1.62147">
        <ele>52.4</ele>
        <time>2012-01-19T09:00:50Z</time>
      </trkpt>
      <trkpt lat="47.23213" lon="-1.62148">
        <ele>52.5</ele>
        <time>2012-01-19T09:00:51Z</time>
      </trkpt>
      <trkpt lat="47.23207" lon="-1.62153">
        <ele>52.5</ele>
        <time>2012-01-19T09:00:56Z</time>
      </trkpt>
      <trkpt lat="47.23203" lon="-1.62155">
        <ele>52.4</ele>
        <time>2012-01-19T09:00:59Z</time>
      </trkpt>
      <trkpt lat="47.232" lon="-1.62157">
        <ele>52.7</ele>
        <time>2012-01-19T09:01:02Z</time>
      </trkpt>
      <trkpt lat="47.23196" lon="-1.62158">
        <ele>53</ele>
        <time>2012-01-19T09:01:05Z</time>
      </trkpt>
      <trkpt lat="47.23192" lon="-1.62159">
        <ele>53.5</ele>
        <time>2012-01-19T09:01:08Z</time>
      </trkpt>
      <trkpt lat="47.23189" lon="-1.6216">
        <ele>53.2</ele>
        <time>2012-01-19T09:01:10Z</time>
      </trkpt>
      <trkpt lat="47.23184" lon="-1.6216">
        <ele>52.9</ele>
        <time>2012-01-19T09:01:13Z</time>
      </trkpt>
      <trkpt lat="47.2318" lon="-1.6216">
        <ele>53.2</ele>
        <time>2012-01-19T09:01:16Z</time>
      </trkpt>
      <trkpt lat="47.23176" lon="-1.6216">
        <ele>53.5</ele>
        <time>2012-01-19T09:01:19Z</time>
      </trkpt>
      <trkpt lat="47.23172" lon="-1.62159">
        <ele>52.7</ele>
        <time>2012-01-19T09:01:22Z</time>
      </trkpt>
      <trkpt lat="47.23168" lon="-1.62158">
        <ele>54</ele>
        <time>2012-01-19T09:01:25Z</time>
      </trkpt>
      <trkpt lat="47.23164" lon="-1.62156">
        <ele>53.5</ele>
        <time>2012-01-19T09:01:28Z</time>
      </trkpt>
      <trkpt lat="47.23161" lon="-1.62154">
        <ele>54</ele>
        <time>2012-01-19T09:01:31Z</time>
      </trkpt>
      <trkpt lat="47.23158" lon="-1.62152">
        <ele>54.2</ele>
        <time>2012-01-19T09:01:34Z</time>
      </trkpt>
      <trkpt lat="47.23154" lon="-1.6215">
        <ele>54.5</ele>
        <time>2012-01-19T09:01:37Z</time>
      </trkpt>
      <trkpt lat="47.23151" lon="-1.62147">
        <ele>54</ele>
        <time>2012-01-19T09:01:40Z</time>
      </trkpt>
      <trkpt lat="47.23147" lon="-1.62144">
        <ele>54.2</ele>
        <time>2012-01-19T09:01:43Z</time>
      </trkpt>
      <trkpt lat="47.23143" lon="-1.62141">
        <ele>55</ele>
        <time>2012-01-19T09:01:46Z</time>
      </trkpt>
      <trkpt lat="47.23141" lon="-1.62139">
        <ele>55.4</ele>
        <time>2012-01-19T09:01:48Z</time>
      </trkpt>
      <trkpt lat="47.23137" lon="-1.62135">
        <ele>56</ele>
        <time>2012-01-19T09:01:51Z</time>
      </trkpt>
      <trkpt lat="47.23136" lon="-1.62134">
        <ele>55.7</ele>
        <time>2012-01-19T09:01:52Z</time>
      </trkpt>
      <trkpt lat="47.2313" lon="-1.62128">
        <ele>55.2</ele>
        <time>2012-01-19T09:01:57Z</time>
      </trkpt>
      <trkpt lat="47.23127" lon="-1.62124">
        <ele>55</ele>
        <time>2012-01-19T09:02:00Z</time>
      </trkpt>
      <trkpt lat="47.23123" lon="-1.6212">
        <ele>54.5</ele>
        <time>2012-01-19T09:02:03Z</time>
      </trkpt>
      <trkpt lat="47.2312" lon="-1.62116">
        <ele>54.5</ele>
        <time>2012-01-19T09:02:06Z</time>
      </trkpt>
      <trkpt lat="47.23117" lon="-1.62111">
        <ele>55</ele>
        <time>2012-01-19T09:02:09Z</time>
      </trkpt>
      <trkpt lat="47.23115" lon="-1.62108">
        <ele>55.4</ele>
        <time>2012-01-19T09:02:11Z</time>
      </trkpt>
      <trkpt lat="47.23113" lon="-1.62105">
        <ele>55.5</ele>
        <time>2012-01-19T09:02:13Z</time>
      </trkpt>
      <trkpt lat="47.2311" lon="-1.62099">
        <ele>55.2</ele>
        <time>2012-01-19T09:02:16Z</time>
      </trkpt>
      <trkpt lat="47.23108" lon="-1.62094">
        <ele>55.5</ele>
        <time>2012-01-19T09:02:19Z</time>
      </trkpt>
      <trkpt lat="47.23105" lon="-1.62089">
        <ele>56.4</ele>
        <time>2012-01-19T09:02:22Z</time>
      </trkpt>
      <trkpt lat="47.23103" lon="-1.62084">
        <ele>56.7</ele>
        <time>2012-01-19T09:02:25Z</time>
      </trkpt>
      <trkpt lat="47.23101" lon="-1.62078">
        <ele>57.7</ele>
        <time>2012-01-19T09:02:28Z</time>
      </trkpt>
      <trkpt lat="47.23099" lon="-1.62073">
        <ele>57.9</ele>
        <time>2012-01-19T09:02:31Z</time>
      </trkpt>
      <trkpt lat="47.23097" lon="-1.62067">
        <ele>57.5</ele>
        <time>2012-01-19T09:02:34Z</time>
      </trkpt>
      <trkpt lat="47.23096" lon="-1.62061">
        <ele>57.7</ele>
        <time>2012-01-19T09:02:37Z</time>
      </trkpt>
      <trkpt lat="47.23094" lon="-1.62056">
        <ele>58.2</ele>
        <time>2012-01-19T09:02:40Z</time>
      </trkpt>
      <trkpt lat="47.23092" lon="-1.6205">
        <ele>58.9</ele>
        <time>2012-01-19T09:02:43Z</time>
      </trkpt>
      <trkpt lat="47.23091" lon="-1.62044">
        <ele>58.5</ele>
        <time>2012-01-19T09:02:46Z</time>
      </trkpt>
      <trkpt lat="47.23089" lon="-1.62039">
        <ele>57.9</ele>
        <time>2012-01-19T09:02:49Z</time>
      </trkpt>
      <trkpt lat="47.23088" lon="-1.62033">
        <ele>57.9</ele>
        <time>2012-01-19T09:02:52Z</time>
      </trkpt>
      <trkpt lat="47.23087" lon="-1.62031">
        <ele>58</ele>
        <time>2012-01-19T09:02:53Z</time>
      </trkpt>
      <trkpt lat="47.23085" lon="-1.62022">
        <ele>58.2</ele>
        <time>2012-01-19T09:02:58Z</time>
      </trkpt>
      <trkpt lat="47.23084" lon="-1.62017">
        <ele>58.5</ele>
        <time>2012-01-19T09:03:01Z</time>
      </trkpt>
      <trkpt lat="47.2308" lon="-1.62014">
        <ele>57.4</ele>
        <time>2012-01-19T09:03:05Z</time>
      </trkpt>
      <trkpt lat="47.23077" lon="-1.62015">
        <ele>56.7</ele>
        <time>2012-01-19T09:03:08Z</time>
      </trkpt>
      <trkpt lat="47.23074" lon="-1.62017">
        <ele>56.5</ele>
        <time>2012-01-19T09:03:11Z</time>
      </trkpt>
      <trkpt lat="47.23071" lon="-1.62019">
        <ele>56.5</ele>
        <time>2012-01-19T09:03:14Z</time>
      </trkpt>
      <trkpt lat="47.23067" lon="-1.62021">
        <ele>55.5</ele>
        <time>2012-01-19T09:03:17Z</time>
      </trkpt>
      <trkpt lat="47.23064" lon="-1.62023">
        <ele>55.2</ele>
        <time>2012-01-19T09:03:21Z</time>
      </trkpt>
      <trkpt lat="47.2306" lon="-1.62025">
        <ele>55.4</ele>
        <time>2012-01-19T09:03:24Z</time>
      </trkpt>
      <trkpt lat="47.23056" lon="-1.62027">
        <ele>55.2</ele>
        <time>2012-01-19T09:03:28Z</time>
      </trkpt>
      <trkpt lat="47.23052" lon="-1.62029">
        <ele>54</ele>
        <time>2012-01-19T09:03:32Z</time>
      </trkpt>
      <trkpt lat="47.23049" lon="-1.62031">
        <ele>53.7</ele>
        <time>2012-01-19T09:03:36Z</time>
      </trkpt>
      <trkpt lat="47.23045" lon="-1.62032">
        <ele>53.4</ele>
        <time>2012-01-19T09:03:39Z</time>
      </trkpt>
      <trkpt lat="47.23041" lon="-1.62035">
        <ele>53</ele>
        <time>2012-01-19T09:03:42Z</time>
      </trkpt>
      <trkpt lat="47.23037" lon="-1.62036">
        <ele>52.7</ele>
        <time>2012-01-19T09:03:45Z</time>
      </trkpt>
      <trkpt lat="47.23034" lon="-1.62037">
        <ele>52.7</ele>
        <time>2012-01-19T09:03:48Z</time>
      </trkpt>
      <trkpt lat="47.23029" lon="-1.62037">
        <ele>52.4</ele>
        <time>2012-01-19T09:03:51Z</time>
      </trkpt>
      <trkpt lat="47.23025" lon="-1.62038">
        <ele>51.7</ele>
        <time>2012-01-19T09:03:54Z</time>
      </trkpt>
      <trkpt lat="47.23024" lon="-1.62038">
        <ele>51.5</ele>
        <time>2012-01-19T09:03:55Z</time>
      </trkpt>
      <trkpt lat="47.23019" lon="-1.6204">
        <ele>51.5</ele>
        <time>2012-01-19T09:03:58Z</time>
      </trkpt>
      <trkpt lat="47.23016" lon="-1.6204">
        <ele>51.4</ele>
        <time>2012-01-19T09:04:00Z</time>
      </trkpt>
      <trkpt lat="47.23013" lon="-1.62041">
        <ele>51.2</ele>
        <time>2012-01-19T09:04:02Z</time>
      </trkpt>
      <trkpt lat="47.2301" lon="-1.62041">
        <ele>51.2</ele>
        <time>2012-01-19T09:04:04Z</time>
      </trkpt>
      <trkpt lat="47.23005" lon="-1.62042">
        <ele>50.9</ele>
        <time>2012-01-19T09:04:07Z</time>
      </trkpt>
      <trkpt lat="47.23002" lon="-1.62042">
        <ele>50.7</ele>
        <time>2012-01-19T09:04:09Z</time>
      </trkpt>
      <trkpt lat="47.22999" lon="-1.62043">
        <ele>50.7</ele>
        <time>2012-01-19T09:04:11Z</time>
      </trkpt>
      <trkpt lat="47.22996" lon="-1.62043">
        <ele>51</ele>
        <time>2012-01-19T09:04:13Z</time>
      </trkpt>
      <trkpt lat="47.22992" lon="-1.62044">
        <ele>50.7</ele>
        <time>2012-01-19T09:04:16Z</time>
      </trkpt>
      <trkpt lat="47.22988" lon="-1.62041">
        <ele>50.7</ele>
        <time>2012-01-19T09:04:19Z</time>
      </trkpt>
      <trkpt lat="47.22986" lon="-1.62037">
        <ele>50.5</ele>
        <time>2012-01-19T09:04:22Z</time>
      </trkpt>
      <trkpt lat="47.22983" lon="-1.62033">
        <ele>50.2</ele>
        <time>2012-01-19T09:04:25Z</time>
      </trkpt>
      <trkpt lat="47.22981" lon="-1.62027">
        <ele>49.7</ele>
        <time>2012-01-19T09:04:29Z</time>
      </trkpt>
      <trkpt lat="47.2298" lon="-1.62021">
        <ele>50.2</ele>
        <time>2012-01-19T09:04:32Z</time>
      </trkpt>
      <trkpt lat="47.22979" lon="-1.62016">
        <ele>50.7</ele>
        <time>2012-01-19T09:04:35Z</time>
      </trkpt>
      <trkpt lat="47.22978" lon="-1.6201">
        <ele>50.7</ele>
        <time>2012-01-19T09:04:38Z</time>
      </trkpt>
      <trkpt lat="47.22977" lon="-1.62006">
        <ele>50.2</ele>
        <time>2012-01-19T09:04:40Z</time>
      </trkpt>
      <trkpt lat="47.22976" lon="-1.62">
        <ele>50.2</ele>
        <time>2012-01-19T09:04:43Z</time>
      </trkpt>
      <trkpt lat="47.22975" lon="-1.61994">
        <ele>49.5</ele>
        <time>2012-01-19T09:04:47Z</time>
      </trkpt>
      <trkpt lat="47.22975" lon="-1.61989">
        <ele>49.9</ele>
        <time>2012-01-19T09:04:50Z</time>
      </trkpt>
      <trkpt lat="47.22975" lon="-1.61983">
        <ele>49</ele>
        <time>2012-01-19T09:04:53Z</time>
      </trkpt>
      <trkpt lat="47.22975" lon="-1.61978">
        <ele>48.7</ele>
        <time>2012-01-19T09:04:56Z</time>
      </trkpt>
      <trkpt lat="47.22975" lon="-1.61976">
        <ele>48.9</ele>
        <time>2012-01-19T09:04:57Z</time>
      </trkpt>
      <trkpt lat="47.22975" lon="-1.61966">
        <ele>48.5</ele>
        <time>2012-01-19T09:05:02Z</time>
      </trkpt>
      <trkpt lat="47.22976" lon="-1.61959">
        <ele>48.9</ele>
        <time>2012-01-19T09:05:05Z</time>
      </trkpt>
      <trkpt lat="47.22976" lon="-1.61953">
        <ele>49.2</ele>
        <time>2012-01-19T09:05:08Z</time>
      </trkpt>
      <trkpt lat="47.22977" lon="-1.61947">
        <ele>48.9</ele>
        <time>2012-01-19T09:05:11Z</time>
      </trkpt>
      <trkpt lat="47.22978" lon="-1.61942">
        <ele>48.9</ele>
        <time>2012-01-19T09:05:14Z</time>
      </trkpt>
      <trkpt lat="47.2298" lon="-1.61936">
        <ele>48.7</ele>
        <time>2012-01-19T09:05:17Z</time>
      </trkpt>
      <trkpt lat="47.22983" lon="-1.6193">
        <ele>48.5</ele>
        <time>2012-01-19T09:05:20Z</time>
      </trkpt>
      <trkpt lat="47.22984" lon="-1.61926">
        <ele>48.4</ele>
        <time>2012-01-19T09:05:22Z</time>
      </trkpt>
      <trkpt lat="47.22985" lon="-1.61922">
        <ele>48</ele>
        <time>2012-01-19T09:05:24Z</time>
      </trkpt>
      <trkpt lat="47.22986" lon="-1.61917">
        <ele>48</ele>
        <time>2012-01-19T09:05:26Z</time>
      </trkpt>
      <trkpt lat="47.22988" lon="-1.61913">
        <ele>48.2</ele>
        <time>2012-01-19T09:05:28Z</time>
      </trkpt>
      <trkpt lat="47.2299" lon="-1.61908">
        <ele>48.5</ele>
        <time>2012-01-19T09:05:30Z</time>
      </trkpt>
      <trkpt lat="47.22992" lon="-1.61904">
        <ele>48.9</ele>
        <time>2012-01-19T09:05:32Z</time>
      </trkpt>
      <trkpt lat="47.22993" lon="-1.61899">
        <ele>49.2</ele>
        <time>2012-01-19T09:05:34Z</time>
      </trkpt>
      <trkpt lat="47.22995" lon="-1.61895">
        <ele>49</ele>
        <time>2012-01-19T09:05:36Z</time>
      </trkpt>
      <trkpt lat="47.22997" lon="-1.61891">
        <ele>49</ele>
        <time>2012-01-19T09:05:38Z</time>
      </trkpt>
      <trkpt lat="47.22998" lon="-1.61886">
        <ele>48.9</ele>
        <time>2012-01-19T09:05:40Z</time>
      </trkpt>
      <trkpt lat="47.23001" lon="-1.61882">
        <ele>48.9</ele>
        <time>2012-01-19T09:05:43Z</time>
      </trkpt>
      <trkpt lat="47.23003" lon="-1.61878">
        <ele>49</ele>
        <time>2012-01-19T09:05:45Z</time>
      </trkpt>
      <trkpt lat="47.23006" lon="-1.61874">
        <ele>49.4</ele>
        <time>2012-01-19T09:05:48Z</time>
      </trkpt>
      <trkpt lat="47.23009" lon="-1.61869">
        <ele>49.2</ele>
        <time>2012-01-19T09:05:50Z</time>
      </trkpt>
      <trkpt lat="47.23011" lon="-1.61865">
        <ele>49.2</ele>
        <time>2012-01-19T09:05:52Z</time>
      </trkpt>
      <trkpt lat="47.23013" lon="-1.61862">
        <ele>49.2</ele>
        <time>2012-01-19T09:05:54Z</time>
      </trkpt>
      <trkpt lat="47.23016" lon="-1.61859">
        <ele>49.4</ele>
        <time>2012-01-19T09:05:56Z</time>
      </trkpt>
      <trkpt lat="47.23018" lon="-1.61855">
        <ele>49.2</ele>
        <time>2012-01-19T09:05:58Z</time>
      </trkpt>
      <trkpt lat="47.23019" lon="-1.61853">
        <ele>49</ele>
        <time>2012-01-19T09:05:59Z</time>
      </trkpt>
      <trkpt lat="47.23023" lon="-1.61849">
        <ele>49.4</ele>
        <time>2012-01-19T09:06:02Z</time>
      </trkpt>
      <trkpt lat="47.23026" lon="-1.61846">
        <ele>49.4</ele>
        <time>2012-01-19T09:06:04Z</time>
      </trkpt>
      <trkpt lat="47.23028" lon="-1.61843">
        <ele>49.2</ele>
        <time>2012-01-19T09:06:06Z</time>
      </trkpt>
      <trkpt lat="47.23031" lon="-1.6184">
        <ele>49</ele>
        <time>2012-01-19T09:06:08Z</time>
      </trkpt>
      <trkpt lat="47.23033" lon="-1.61837">
        <ele>49.2</ele>
        <time>2012-01-19T09:06:10Z</time>
      </trkpt>
      <trkpt lat="47.23036" lon="-1.61835">
        <ele>49.4</ele>
        <time>2012-01-19T09:06:12Z</time>
      </trkpt>
      <trkpt lat="47.23038" lon="-1.61832">
        <ele>49.2</ele>
        <time>2012-01-19T09:06:14Z</time>
      </trkpt>
      <trkpt lat="47.23042" lon="-1.61828">
        <ele>49.2</ele>
        <time>2012-01-19T09:06:17Z</time>
      </trkpt>
      <trkpt lat="47.23043" lon="-1.61822">
        <ele>49.5</ele>
        <time>2012-01-19T09:06:20Z</time>
      </trkpt>
      <trkpt lat="47.23043" lon="-1.61816">
        <ele>49.9</ele>
        <time>2012-01-19T09:06:23Z</time>
      </trkpt>
      <trkpt lat="47.23042" lon="-1.6181">
        <ele>49.7</ele>
        <time>2012-01-19T09:06:26Z</time>
      </trkpt>
      <trkpt lat="47.2304" lon="-1.61804">
        <ele>49.2</ele>
        <time>2012-01-19T09:06:29Z</time>
      </trkpt>
      <trkpt lat="47.23038" lon="-1.61799">
        <ele>49.2</ele>
        <time>2012-01-19T09:06:32Z</time>
      </trkpt>
      <trkpt lat="47.23037" lon="-1.61795">
        <ele>49</ele>
        <time>2012-01-19T09:06:34Z</time>
      </trkpt>
      <trkpt lat="47.23035" lon="-1.61791">
        <ele>48.7</ele>
        <time>2012-01-19T09:06:36Z</time>
      </trkpt>
      <trkpt lat="47.23034" lon="-1.61787">
        <ele>48.4</ele>
        <time>2012-01-19T09:06:38Z</time>
      </trkpt>
      <trkpt lat="47.23031" lon="-1.61782">
        <ele>47.5</ele>
        <time>2012-01-19T09:06:41Z</time>
      </trkpt>
      <trkpt lat="47.23029" lon="-1.61776">
        <ele>48.5</ele>
        <time>2012-01-19T09:06:44Z</time>
      </trkpt>
      <trkpt lat="47.23027" lon="-1.61773">
        <ele>47.9</ele>
        <time>2012-01-19T09:06:46Z</time>
      </trkpt>
      <trkpt lat="47.23025" lon="-1.61769">
        <ele>47.5</ele>
        <time>2012-01-19T09:06:48Z</time>
      </trkpt>
      <trkpt lat="47.23023" lon="-1.61765">
        <ele>47.7</ele>
        <time>2012-01-19T09:06:50Z</time>
      </trkpt>
      <trkpt lat="47.23022" lon="-1.61762">
        <ele>47.7</ele>
        <time>2012-01-19T09:06:52Z</time>
      </trkpt>
      <trkpt lat="47.23019" lon="-1.61756">
        <ele>47.2</ele>
        <time>2012-01-19T09:06:55Z</time>
      </trkpt>
      <trkpt lat="47.23016" lon="-1.61751">
        <ele>46.5</ele>
        <time>2012-01-19T09:06:58Z</time>
      </trkpt>
      <trkpt lat="47.23014" lon="-1.61746">
        <ele>46.2</ele>
        <time>2012-01-19T09:07:01Z</time>
      </trkpt>
      <trkpt lat="47.23013" lon="-1.61744">
        <ele>46</ele>
        <time>2012-01-19T09:07:02Z</time>
      </trkpt>
      <trkpt lat="47.23009" lon="-1.61736">
        <ele>44.7</ele>
        <time>2012-01-19T09:07:07Z</time>
      </trkpt>
      <trkpt lat="47.23007" lon="-1.61732">
        <ele>45.7</ele>
        <time>2012-01-19T09:07:10Z</time>
      </trkpt>
      <trkpt lat="47.23005" lon="-1.61727">
        <ele>45.4</ele>
        <time>2012-01-19T09:07:13Z</time>
      </trkpt>
      <trkpt lat="47.23002" lon="-1.61722">
        <ele>46.2</ele>
        <time>2012-01-19T09:07:16Z</time>
      </trkpt>
      <trkpt lat="47.23" lon="-1.61717">
        <ele>45.9</ele>
        <time>2012-01-19T09:07:19Z</time>
      </trkpt>
      <trkpt lat="47.23" lon="-1.61712">
        <ele>45.2</ele>
        <time>2012-01-19T09:07:22Z</time>
      </trkpt>
      <trkpt lat="47.23001" lon="-1.61706">
        <ele>44.7</ele>
        <time>2012-01-19T09:07:25Z</time>
      </trkpt>
      <trkpt lat="47.23002" lon="-1.617">
        <ele>44.9</ele>
        <time>2012-01-19T09:07:28Z</time>
      </trkpt>
      <trkpt lat="47.23003" lon="-1.61695">
        <ele>44.7</ele>
        <time>2012-01-19T09:07:31Z</time>
      </trkpt>
      <trkpt lat="47.23004" lon="-1.61689">
        <ele>44.2</ele>
        <time>2012-01-19T09:07:34Z</time>
      </trkpt>
      <trkpt lat="47.23005" lon="-1.61683">
        <ele>44</ele>
        <time>2012-01-19T09:07:38Z</time>
      </trkpt>
      <trkpt lat="47.23007" lon="-1.61679">
        <ele>44.5</ele>
        <time>2012-01-19T09:07:41Z</time>
      </trkpt>
      <trkpt lat="47.23009" lon="-1.61674">
        <ele>44.2</ele>
        <time>2012-01-19T09:07:44Z</time>
      </trkpt>
      <trkpt lat="47.2301" lon="-1.61669">
        <ele>44.7</ele>
        <time>2012-01-19T09:07:47Z</time>
      </trkpt>
      <trkpt lat="47.2301" lon="-1.61662">
        <ele>44.2</ele>
        <time>2012-01-19T09:07:50Z</time>
      </trkpt>
      <trkpt lat="47.23012" lon="-1.61656">
        <ele>44</ele>
        <time>2012-01-19T09:07:54Z</time>
      </trkpt>
      <trkpt lat="47.23013" lon="-1.61651">
        <ele>44</ele>
        <time>2012-01-19T09:07:57Z</time>
      </trkpt>
      <trkpt lat="47.23014" lon="-1.61645">
        <ele>44.2</ele>
        <time>2012-01-19T09:08:00Z</time>
      </trkpt>
      <trkpt lat="47.23016" lon="-1.6164">
        <ele>44.2</ele>
        <time>2012-01-19T09:08:03Z</time>
      </trkpt>
      <trkpt lat="47.23016" lon="-1.61638">
        <ele>44.2</ele>
        <time>2012-01-19T09:08:04Z</time>
      </trkpt>
      <trkpt lat="47.23019" lon="-1.6163">
        <ele>43.5</ele>
        <time>2012-01-19T09:08:09Z</time>
      </trkpt>
      <trkpt lat="47.23021" lon="-1.61625">
        <ele>43.2</ele>
        <time>2012-01-19T09:08:12Z</time>
      </trkpt>
      <trkpt lat="47.23023" lon="-1.61621">
        <ele>43.5</ele>
        <time>2012-01-19T09:08:14Z</time>
      </trkpt>
      <trkpt lat="47.23025" lon="-1.61617">
        <ele>43.4</ele>
        <time>2012-01-19T09:08:16Z</time>
      </trkpt>
      <trkpt lat="47.23026" lon="-1.61613">
        <ele>43.2</ele>
        <time>2012-01-19T09:08:18Z</time>
      </trkpt>
      <trkpt lat="47.23028" lon="-1.61608">
        <ele>43.2</ele>
        <time>2012-01-19T09:08:20Z</time>
      </trkpt>
      <trkpt lat="47.23029" lon="-1.61604">
        <ele>43.5</ele>
        <time>2012-01-19T09:08:22Z</time>
      </trkpt>
      <trkpt lat="47.23031" lon="-1.616">
        <ele>43.5</ele>
        <time>2012-01-19T09:08:24Z</time>
      </trkpt>
      <trkpt lat="47.23032" lon="-1.61595">
        <ele>43.4</ele>
        <time>2012-01-19T09:08:26Z</time>
      </trkpt>
      <trkpt lat="47.23033" lon="-1.6159">
        <ele>43.4</ele>
        <time>2012-01-19T09:08:28Z</time>
      </trkpt>
      <trkpt lat="47.23034" lon="-1.61585">
        <ele>43.5</ele>
        <time>2012-01-19T09:08:30Z</time>
      </trkpt>
      <trkpt lat="47.23035" lon="-1.6158">
        <ele>43.4</ele>
        <time>2012-01-19T09:08:32Z</time>
      </trkpt>
      <trkpt lat="47.23037" lon="-1.61575">
        <ele>43.9</ele>
        <time>2012-01-19T09:08:35Z</time>
      </trkpt>
      <trkpt lat="47.23039" lon="-1.6157">
        <ele>44</ele>
        <time>2012-01-19T09:08:38Z</time>
      </trkpt>
      <trkpt lat="47.2304" lon="-1.61565">
        <ele>44</ele>
        <time>2012-01-19T09:08:40Z</time>
      </trkpt>
      <trkpt lat="47.23042" lon="-1.61561">
        <ele>43.9</ele>
        <time>2012-01-19T09:08:42Z</time>
      </trkpt>
      <trkpt lat="47.23043" lon="-1.61555">
        <ele>43.5</ele>
        <time>2012-01-19T09:08:45Z</time>
      </trkpt>
      <trkpt lat="47.23045" lon="-1.6155">
        <ele>43.7</ele>
        <time>2012-01-19T09:08:48Z</time>
      </trkpt>
      <trkpt lat="47.23046" lon="-1.61545">
        <ele>43.5</ele>
        <time>2012-01-19T09:08:51Z</time>
      </trkpt>
      <trkpt lat="47.23047" lon="-1.6154">
        <ele>43.9</ele>
        <time>2012-01-19T09:08:54Z</time>
      </trkpt>
      <trkpt lat="47.23049" lon="-1.61536">
        <ele>43.7</ele>
        <time>2012-01-19T09:08:57Z</time>
      </trkpt>
      <trkpt lat="47.23052" lon="-1.61532">
        <ele>43.2</ele>
        <time>2012-01-19T09:09:00Z</time>
      </trkpt>
      <trkpt lat="47.23054" lon="-1.61529">
        <ele>43</ele>
        <time>2012-01-19T09:09:02Z</time>
      </trkpt>
      <trkpt lat="47.23057" lon="-1.61523">
        <ele>43.7</ele>
        <time>2012-01-19T09:09:06Z</time>
      </trkpt>
      <trkpt lat="47.23057" lon="-1.61523">
        <ele>44</ele>
        <time>2012-01-19T09:09:07Z</time>
      </trkpt>
      <trkpt lat="47.23061" lon="-1.61518">
        <ele>42.9</ele>
        <time>2012-01-19T09:09:11Z</time>
      </trkpt>
      <trkpt lat="47.23064" lon="-1.61514">
        <ele>43.2</ele>
        <time>2012-01-19T09:09:13Z</time>
      </trkpt>
      <trkpt lat="47.23066" lon="-1.61511">
        <ele>43.2</ele>
        <time>2012-01-19T09:09:15Z</time>
      </trkpt>
      <trkpt lat="47.23069" lon="-1.61509">
        <ele>43.4</ele>
        <time>2012-01-19T09:09:17Z</time>
      </trkpt>
      <trkpt lat="47.23072" lon="-1.61506">
        <ele>43.5</ele>
        <time>2012-01-19T09:09:19Z</time>
      </trkpt>
      <trkpt lat="47.23075" lon="-1.61504">
        <ele>43.5</ele>
        <time>2012-01-19T09:09:21Z</time>
      </trkpt>
      <trkpt lat="47.23078" lon="-1.61501">
        <ele>43</ele>
        <time>2012-01-19T09:09:23Z</time>
      </trkpt>
      <trkpt lat="47.23081" lon="-1.61499">
        <ele>43</ele>
        <time>2012-01-19T09:09:25Z</time>
      </trkpt>
      <trkpt lat="47.23084" lon="-1.61497">
        <ele>43.2</ele>
        <time>2012-01-19T09:09:27Z</time>
      </trkpt>
      <trkpt lat="47.23088" lon="-1.61495">
        <ele>43.4</ele>
        <time>2012-01-19T09:09:29Z</time>
      </trkpt>
      <trkpt lat="47.23091" lon="-1.61493">
        <ele>43.5</ele>
        <time>2012-01-19T09:09:31Z</time>
      </trkpt>
      <trkpt lat="47.23094" lon="-1.61491">
        <ele>43.7</ele>
        <time>2012-01-19T09:09:33Z</time>
      </trkpt>
      <trkpt lat="47.23096" lon="-1.6149">
        <ele>44</ele>
        <time>2012-01-19T09:09:35Z</time>
      </trkpt>
      <trkpt lat="47.231" lon="-1.61488">
        <ele>44</ele>
        <time>2012-01-19T09:09:37Z</time>
      </trkpt>
      <trkpt lat="47.23104" lon="-1.61486">
        <ele>44</ele>
        <time>2012-01-19T09:09:40Z</time>
      </trkpt>
      <trkpt lat="47.23107" lon="-1.61485">
        <ele>43.2</ele>
        <time>2012-01-19T09:09:42Z</time>
      </trkpt>
      <trkpt lat="47.2311" lon="-1.61483">
        <ele>43</ele>
        <time>2012-01-19T09:09:44Z</time>
      </trkpt>
      <trkpt lat="47.23114" lon="-1.61482">
        <ele>43.5</ele>
        <time>2012-01-19T09:09:47Z</time>
      </trkpt>
      <trkpt lat="47.23118" lon="-1.61481">
        <ele>43.7</ele>
        <time>2012-01-19T09:09:50Z</time>
      </trkpt>
      <trkpt lat="47.23121" lon="-1.61481">
        <ele>44</ele>
        <time>2012-01-19T09:09:52Z</time>
      </trkpt>
      <trkpt lat="47.23125" lon="-1.61483">
        <ele>43.7</ele>
        <time>2012-01-19T09:09:55Z</time>
      </trkpt>
      <trkpt lat="47.23129" lon="-1.6148">
        <ele>43.7</ele>
        <time>2012-01-19T09:09:58Z</time>
      </trkpt>
      <trkpt lat="47.23133" lon="-1.61478">
        <ele>44</ele>
        <time>2012-01-19T09:10:03Z</time>
      </trkpt>
      <trkpt lat="47.23137" lon="-1.61479">
        <ele>44.5</ele>
        <time>2012-01-19T09:10:06Z</time>
      </trkpt>
      <trkpt lat="47.2314" lon="-1.61476">
        <ele>44.2</ele>
        <time>2012-01-19T09:10:09Z</time>
      </trkpt>
      <trkpt lat="47.23141" lon="-1.61475">
        <ele>43.7</ele>
        <time>2012-01-19T09:10:10Z</time>
      </trkpt>
      <trkpt lat="47.23147" lon="-1.61472">
        <ele>44</ele>
        <time>2012-01-19T09:10:17Z</time>
      </trkpt>
      <trkpt lat="47.23151" lon="-1.6147">
        <ele>44</ele>
        <time>2012-01-19T09:10:20Z</time>
      </trkpt>
      <trkpt lat="47.23155" lon="-1.61467">
        <ele>44</ele>
        <time>2012-01-19T09:10:23Z</time>
      </trkpt>
      <trkpt lat="47.23158" lon="-1.61464">
        <ele>44</ele>
        <time>2012-01-19T09:10:25Z</time>
      </trkpt>
      <trkpt lat="47.23161" lon="-1.61462">
        <ele>43.9</ele>
        <time>2012-01-19T09:10:27Z</time>
      </trkpt>
      <trkpt lat="47.23164" lon="-1.6146">
        <ele>44</ele>
        <time>2012-01-19T09:10:29Z</time>
      </trkpt>
      <trkpt lat="47.23167" lon="-1.61458">
        <ele>44.2</ele>
        <time>2012-01-19T09:10:31Z</time>
      </trkpt>
      <trkpt lat="47.2317" lon="-1.61456">
        <ele>44.2</ele>
        <time>2012-01-19T09:10:33Z</time>
      </trkpt>
      <trkpt lat="47.23173" lon="-1.61454">
        <ele>44.4</ele>
        <time>2012-01-19T09:10:35Z</time>
      </trkpt>
      <trkpt lat="47.23176" lon="-1.61452">
        <ele>44.4</ele>
        <time>2012-01-19T09:10:37Z</time>
      </trkpt>
      <trkpt lat="47.23179" lon="-1.61449">
        <ele>43.5</ele>
        <time>2012-01-19T09:10:39Z</time>
      </trkpt>
      <trkpt lat="47.23181" lon="-1.61444">
        <ele>43.2</ele>
        <time>2012-01-19T09:10:42Z</time>
      </trkpt>
      <trkpt lat="47.23182" lon="-1.61439">
        <ele>43.2</ele>
        <time>2012-01-19T09:10:44Z</time>
      </trkpt>
      <trkpt lat="47.23183" lon="-1.61434">
        <ele>43.2</ele>
        <time>2012-01-19T09:10:46Z</time>
      </trkpt>
      <trkpt lat="47.23183" lon="-1.61429">
        <ele>43</ele>
        <time>2012-01-19T09:10:49Z</time>
      </trkpt>
      <trkpt lat="47.23182" lon="-1.61423">
        <ele>42.4</ele>
        <time>2012-01-19T09:10:52Z</time>
      </trkpt>
      <trkpt lat="47.2318" lon="-1.61418">
        <ele>42.2</ele>
        <time>2012-01-19T09:10:55Z</time>
      </trkpt>
      <trkpt lat="47.23177" lon="-1.61413">
        <ele>42.5</ele>
        <time>2012-01-19T09:10:58Z</time>
      </trkpt>
      <trkpt lat="47.23174" lon="-1.61409">
        <ele>42.7</ele>
        <time>2012-01-19T09:11:01Z</time>
      </trkpt>
      <trkpt lat="47.23172" lon="-1.61405">
        <ele>42.2</ele>
        <time>2012-01-19T09:11:04Z</time>
      </trkpt>
      <trkpt lat="47.23169" lon="-1.61401">
        <ele>41.9</ele>
        <time>2012-01-19T09:11:07Z</time>
      </trkpt>
      <trkpt lat="47.23166" lon="-1.61396">
        <ele>41.5</ele>
        <time>2012-01-19T09:11:10Z</time>
      </trkpt>
      <trkpt lat="47.23165" lon="-1.61394">
        <ele>41.4</ele>
        <time>2012-01-19T09:11:11Z</time>
      </trkpt>
      <trkpt lat="47.23162" lon="-1.61386">
        <ele>41.7</ele>
        <time>2012-01-19T09:11:16Z</time>
      </trkpt>
      <trkpt lat="47.2316" lon="-1.6138">
        <ele>40.7</ele>
        <time>2012-01-19T09:11:19Z</time>
      </trkpt>
      <trkpt lat="47.23159" lon="-1.61376">
        <ele>41.2</ele>
        <time>2012-01-19T09:11:21Z</time>
      </trkpt>
      <trkpt lat="47.23158" lon="-1.61372">
        <ele>41.2</ele>
        <time>2012-01-19T09:11:23Z</time>
      </trkpt>
      <trkpt lat="47.23156" lon="-1.61369">
        <ele>40.9</ele>
        <time>2012-01-19T09:11:25Z</time>
      </trkpt>
      <trkpt lat="47.23154" lon="-1.61363">
        <ele>40.7</ele>
        <time>2012-01-19T09:11:28Z</time>
      </trkpt>
      <trkpt lat="47.23153" lon="-1.61358">
        <ele>40.7</ele>
        <time>2012-01-19T09:11:30Z</time>
      </trkpt>
      <trkpt lat="47.23152" lon="-1.61354">
        <ele>40.5</ele>
        <time>2012-01-19T09:11:32Z</time>
      </trkpt>
      <trkpt lat="47.23151" lon="-1.61348">
        <ele>40.5</ele>
        <time>2012-01-19T09:11:35Z</time>
      </trkpt>
      <trkpt lat="47.23149" lon="-1.61342">
        <ele>40</ele>
        <time>2012-01-19T09:11:38Z</time>
      </trkpt>
      <trkpt lat="47.23148" lon="-1.61336">
        <ele>40.2</ele>
        <time>2012-01-19T09:11:41Z</time>
      </trkpt>
      <trkpt lat="47.23147" lon="-1.6133">
        <ele>40.7</ele>
        <time>2012-01-19T09:11:44Z</time>
      </trkpt>
      <trkpt lat="47.23145" lon="-1.61325">
        <ele>41.5</ele>
        <time>2012-01-19T09:11:47Z</time>
      </trkpt>
      <trkpt lat="47.23143" lon="-1.6132">
        <ele>41.9</ele>
        <time>2012-01-19T09:11:50Z</time>
      </trkpt>
      <trkpt lat="47.23142" lon="-1.61314">
        <ele>41.5</ele>
        <time>2012-01-19T09:11:53Z</time>
      </trkpt>
      <trkpt lat="47.23141" lon="-1.61308">
        <ele>41.2</ele>
        <time>2012-01-19T09:11:56Z</time>
      </trkpt>
      <trkpt lat="47.23139" lon="-1.61303">
        <ele>41.4</ele>
        <time>2012-01-19T09:11:59Z</time>
      </trkpt>
      <trkpt lat="47.23138" lon="-1.61297">
        <ele>41.2</ele>
        <time>2012-01-19T09:12:02Z</time>
      </trkpt>
      <trkpt lat="47.23136" lon="-1.61292">
        <ele>41.2</ele>
        <time>2012-01-19T09:12:05Z</time>
      </trkpt>
      <trkpt lat="47.23134" lon="-1.61287">
        <ele>41.2</ele>
        <time>2012-01-19T09:12:08Z</time>
      </trkpt>
      <trkpt lat="47.23132" lon="-1.61281">
        <ele>40.7</ele>
        <time>2012-01-19T09:12:11Z</time>
      </trkpt>
      <trkpt lat="47.23131" lon="-1.61279">
        <ele>40.7</ele>
        <time>2012-01-19T09:12:12Z</time>
      </trkpt>
      <trkpt lat="47.23129" lon="-1.61272">
        <ele>40.5</ele>
        <time>2012-01-19T09:12:16Z</time>
      </trkpt>
      <trkpt lat="47.23127" lon="-1.61268">
        <ele>40.5</ele>
        <time>2012-01-19T09:12:18Z</time>
      </trkpt>
      <trkpt lat="47.23125" lon="-1.61262">
        <ele>40.7</ele>
        <time>2012-01-19T09:12:21Z</time>
      </trkpt>
      <trkpt lat="47.23123" lon="-1.61257">
        <ele>40.7</ele>
        <time>2012-01-19T09:12:24Z</time>
      </trkpt>
      <trkpt lat="47.23121" lon="-1.61251">
        <ele>40.5</ele>
        <time>2012-01-19T09:12:27Z</time>
      </trkpt>
      <trkpt lat="47.2312" lon="-1.61246">
        <ele>40.4</ele>
        <time>2012-01-19T09:12:30Z</time>
      </trkpt>
      <trkpt lat="47.23119" lon="-1.6124">
        <ele>40.2</ele>
        <time>2012-01-19T09:12:33Z</time>
      </trkpt>
      <trkpt lat="47.23117" lon="-1.61234">
        <ele>40.5</ele>
        <time>2012-01-19T09:12:36Z</time>
      </trkpt>
      <trkpt lat="47.23115" lon="-1.61228">
        <ele>40.5</ele>
        <time>2012-01-19T09:12:39Z</time>
      </trkpt>
      <trkpt lat="47.23114" lon="-1.61224">
        <ele>40.4</ele>
        <time>2012-01-19T09:12:41Z</time>
      </trkpt>
      <trkpt lat="47.23113" lon="-1.6122">
        <ele>40.2</ele>
        <time>2012-01-19T09:12:43Z</time>
      </trkpt>
      <trkpt lat="47.23111" lon="-1.61216">
        <ele>40.2</ele>
        <time>2012-01-19T09:12:45Z</time>
      </trkpt>
      <trkpt lat="47.23109" lon="-1.61211">
        <ele>40.9</ele>
        <time>2012-01-19T09:12:48Z</time>
      </trkpt>
      <trkpt lat="47.23107" lon="-1.61207">
        <ele>41.4</ele>
        <time>2012-01-19T09:12:51Z</time>
      </trkpt>
      <trkpt lat="47.23104" lon="-1.61202">
        <ele>41.4</ele>
        <time>2012-01-19T09:12:54Z</time>
      </trkpt>
      <trkpt lat="47.23104" lon="-1.61197">
        <ele>41.2</ele>
        <time>2012-01-19T09:12:57Z</time>
      </trkpt>
      <trkpt lat="47.23104" lon="-1.61192">
        <ele>41.4</ele>
        <time>2012-01-19T09:13:00Z</time>
      </trkpt>
      <trkpt lat="47.23105" lon="-1.61185">
        <ele>41.7</ele>
        <time>2012-01-19T09:13:03Z</time>
      </trkpt>
      <trkpt lat="47.23105" lon="-1.61179">
        <ele>42.2</ele>
        <time>2012-01-19T09:13:06Z</time>
      </trkpt>
      <trkpt lat="47.23104" lon="-1.61174">
        <ele>42.2</ele>
        <time>2012-01-19T09:13:08Z</time>
      </trkpt>
      <trkpt lat="47.23104" lon="-1.61169">
        <ele>42.2</ele>
        <time>2012-01-19T09:13:10Z</time>
      </trkpt>
      <trkpt lat="47.23104" lon="-1.61165">
        <ele>42.4</ele>
        <time>2012-01-19T09:13:12Z</time>
      </trkpt>
      <trkpt lat="47.23104" lon="-1.61162">
        <ele>42.4</ele>
        <time>2012-01-19T09:13:13Z</time>
      </trkpt>
      <trkpt lat="47.23103" lon="-1.61156">
        <ele>42</ele>
        <time>2012-01-19T09:13:16Z</time>
      </trkpt>
      <trkpt lat="47.23102" lon="-1.61151">
        <ele>42.2</ele>
        <time>2012-01-19T09:13:18Z</time>
      </trkpt>
      <trkpt lat="47.23102" lon="-1.61146">
        <ele>42.5</ele>
        <time>2012-01-19T09:13:20Z</time>
      </trkpt>
      <trkpt lat="47.23102" lon="-1.6114">
        <ele>42.5</ele>
        <time>2012-01-19T09:13:23Z</time>
      </trkpt>
      <trkpt lat="47.23102" lon="-1.61134">
        <ele>42.5</ele>
        <time>2012-01-19T09:13:26Z</time>
      </trkpt>
      <trkpt lat="47.23103" lon="-1.61129">
        <ele>42.2</ele>
        <time>2012-01-19T09:13:29Z</time>
      </trkpt>
      <trkpt lat="47.23103" lon="-1.61124">
        <ele>43.2</ele>
        <time>2012-01-19T09:13:32Z</time>
      </trkpt>
      <trkpt lat="47.23102" lon="-1.61119">
        <ele>43.2</ele>
        <time>2012-01-19T09:13:34Z</time>
      </trkpt>
      <trkpt lat="47.23102" lon="-1.61115">
        <ele>43</ele>
        <time>2012-01-19T09:13:36Z</time>
      </trkpt>
      <trkpt lat="47.23101" lon="-1.61111">
        <ele>42.9</ele>
        <time>2012-01-19T09:13:38Z</time>
      </trkpt>
      <trkpt lat="47.23099" lon="-1.61104">
        <ele>42.7</ele>
        <time>2012-01-19T09:13:41Z</time>
      </trkpt>
      <trkpt lat="47.23099" lon="-1.61098">
        <ele>42.7</ele>
        <time>2012-01-19T09:13:44Z</time>
      </trkpt>
      <trkpt lat="47.23099" lon="-1.61092">
        <ele>42.7</ele>
        <time>2012-01-19T09:13:47Z</time>
      </trkpt>
      <trkpt lat="47.231" lon="-1.61086">
        <ele>43.2</ele>
        <time>2012-01-19T09:13:50Z</time>
      </trkpt>
      <trkpt lat="47.23102" lon="-1.61081">
        <ele>43.7</ele>
        <time>2012-01-19T09:13:53Z</time>
      </trkpt>
      <trkpt lat="47.23105" lon="-1.61076">
        <ele>43.5</ele>
        <time>2012-01-19T09:13:56Z</time>
      </trkpt>
      <trkpt lat="47.23108" lon="-1.61072">
        <ele>43.5</ele>
        <time>2012-01-19T09:13:59Z</time>
      </trkpt>
      <trkpt lat="47.23111" lon="-1.61068">
        <ele>43.7</ele>
        <time>2012-01-19T09:14:02Z</time>
      </trkpt>
      <trkpt lat="47.23113" lon="-1.61064">
        <ele>44.9</ele>
        <time>2012-01-19T09:14:05Z</time>
      </trkpt>
      <trkpt lat="47.23116" lon="-1.61059">
        <ele>44.4</ele>
        <time>2012-01-19T09:14:09Z</time>
      </trkpt>
      <trkpt lat="47.23119" lon="-1.61054">
        <ele>44.2</ele>
        <time>2012-01-19T09:14:12Z</time>
      </trkpt>
      <trkpt lat="47.23122" lon="-1.6105">
        <ele>44.7</ele>
        <time>2012-01-19T09:14:15Z</time>
      </trkpt>
      <trkpt lat="47.23122" lon="-1.61049">
        <ele>44.5</ele>
        <time>2012-01-19T09:14:16Z</time>
      </trkpt>
      <trkpt lat="47.23127" lon="-1.61041">
        <ele>45.2</ele>
        <time>2012-01-19T09:14:21Z</time>
      </trkpt>
      <trkpt lat="47.2313" lon="-1.61038">
        <ele>44.7</ele>
        <time>2012-01-19T09:14:24Z</time>
      </trkpt>
      <trkpt lat="47.23133" lon="-1.61033">
        <ele>44.2</ele>
        <time>2012-01-19T09:14:27Z</time>
      </trkpt>
      <trkpt lat="47.23137" lon="-1.6103">
        <ele>44.4</ele>
        <time>2012-01-19T09:14:31Z</time>
      </trkpt>
      <trkpt lat="47.23139" lon="-1.61026">
        <ele>44.4</ele>
        <time>2012-01-19T09:14:34Z</time>
      </trkpt>
      <trkpt lat="47.23142" lon="-1.61023">
        <ele>44.9</ele>
        <time>2012-01-19T09:14:36Z</time>
      </trkpt>
      <trkpt lat="47.23144" lon="-1.6102">
        <ele>45</ele>
        <time>2012-01-19T09:14:38Z</time>
      </trkpt>
      <trkpt lat="47.23146" lon="-1.61016">
        <ele>45</ele>
        <time>2012-01-19T09:14:40Z</time>
      </trkpt>
      <trkpt lat="47.23147" lon="-1.61009">
        <ele>44.4</ele>
        <time>2012-01-19T09:14:43Z</time>
      </trkpt>
      <trkpt lat="47.23148" lon="-1.61004">
        <ele>45.2</ele>
        <time>2012-01-19T09:14:46Z</time>
      </trkpt>
      <trkpt lat="47.23148" lon="-1.60999">
        <ele>45.2</ele>
        <time>2012-01-19T09:14:48Z</time>
      </trkpt>
      <trkpt lat="47.23147" lon="-1.60993">
        <ele>45.2</ele>
        <time>2012-01-19T09:14:51Z</time>
      </trkpt>
      <trkpt lat="47.23146" lon="-1.60988">
        <ele>45.7</ele>
        <time>2012-01-19T09:14:54Z</time>
      </trkpt>
      <trkpt lat="47.23146" lon="-1.60981">
        <ele>46</ele>
        <time>2012-01-19T09:14:57Z</time>
      </trkpt>
      <trkpt lat="47.23146" lon="-1.60975">
        <ele>46</ele>
        <time>2012-01-19T09:15:00Z</time>
      </trkpt>
      <trkpt lat="47.23145" lon="-1.60969">
        <ele>45.9</ele>
        <time>2012-01-19T09:15:03Z</time>
      </trkpt>
      <trkpt lat="47.23145" lon="-1.60963">
        <ele>45.7</ele>
        <time>2012-01-19T09:15:07Z</time>
      </trkpt>
      <trkpt lat="47.23144" lon="-1.60957">
        <ele>46.2</ele>
        <time>2012-01-19T09:15:11Z</time>
      </trkpt>
      <trkpt lat="47.23142" lon="-1.60951">
        <ele>47</ele>
        <time>2012-01-19T09:15:15Z</time>
      </trkpt>
      <trkpt lat="47.2314" lon="-1.60946">
        <ele>46.5</ele>
        <time>2012-01-19T09:15:18Z</time>
      </trkpt>
      <trkpt lat="47.23139" lon="-1.60944">
        <ele>46.7</ele>
        <time>2012-01-19T09:15:19Z</time>
      </trkpt>
      <trkpt lat="47.23143" lon="-1.60935">
        <ele>46.7</ele>
        <time>2012-01-19T09:15:26Z</time>
      </trkpt>
      <trkpt lat="47.23145" lon="-1.6093">
        <ele>46.2</ele>
        <time>2012-01-19T09:15:31Z</time>
      </trkpt>
      <trkpt lat="47.23148" lon="-1.60926">
        <ele>46.4</ele>
        <time>2012-01-19T09:15:35Z</time>
      </trkpt>
      <trkpt lat="47.2315" lon="-1.60921">
        <ele>46.2</ele>
        <time>2012-01-19T09:15:39Z</time>
      </trkpt>
      <trkpt lat="47.23153" lon="-1.60918">
        <ele>46.2</ele>
        <time>2012-01-19T09:15:42Z</time>
      </trkpt>
      <trkpt lat="47.23157" lon="-1.60915">
        <ele>46</ele>
        <time>2012-01-19T09:15:45Z</time>
      </trkpt>
      <trkpt lat="47.2316" lon="-1.60911">
        <ele>46.4</ele>
        <time>2012-01-19T09:15:48Z</time>
      </trkpt>
      <trkpt lat="47.23164" lon="-1.60908">
        <ele>46.2</ele>
        <time>2012-01-19T09:15:52Z</time>
      </trkpt>
      <trkpt lat="47.23166" lon="-1.60905">
        <ele>46.2</ele>
        <time>2012-01-19T09:15:55Z</time>
      </trkpt>
      <trkpt lat="47.23169" lon="-1.60904">
        <ele>46.2</ele>
        <time>2012-01-19T09:15:57Z</time>
      </trkpt>
      <trkpt lat="47.23173" lon="-1.60901">
        <ele>46.5</ele>
        <time>2012-01-19T09:16:01Z</time>
      </trkpt>
      <trkpt lat="47.23176" lon="-1.60899">
        <ele>46.5</ele>
        <time>2012-01-19T09:16:03Z</time>
      </trkpt>
      <trkpt lat="47.2318" lon="-1.60897">
        <ele>46.5</ele>
        <time>2012-01-19T09:16:06Z</time>
      </trkpt>
      <trkpt lat="47.23184" lon="-1.60894">
        <ele>46.2</ele>
        <time>2012-01-19T09:16:10Z</time>
      </trkpt>
      <trkpt lat="47.23187" lon="-1.60892">
        <ele>46.2</ele>
        <time>2012-01-19T09:16:13Z</time>
      </trkpt>
      <trkpt lat="47.23191" lon="-1.60889">
        <ele>45.7</ele>
        <time>2012-01-19T09:16:16Z</time>
      </trkpt>
      <trkpt lat="47.23195" lon="-1.60886">
        <ele>46</ele>
        <time>2012-01-19T09:16:19Z</time>
      </trkpt>
      <trkpt lat="47.23196" lon="-1.60886">
        <ele>46.2</ele>
        <time>2012-01-19T09:16:20Z</time>
      </trkpt>
      <trkpt lat="47.23201" lon="-1.60879">
        <ele>46.2</ele>
        <time>2012-01-19T09:16:26Z</time>
      </trkpt>
      <trkpt lat="47.23204" lon="-1.60875">
        <ele>46</ele>
        <time>2012-01-19T09:16:29Z</time>
      </trkpt>
      <trkpt lat="47.23207" lon="-1.60871">
        <ele>45.5</ele>
        <time>2012-01-19T09:16:31Z</time>
      </trkpt>
      <trkpt lat="47.2321" lon="-1.60867">
        <ele>45.2</ele>
        <time>2012-01-19T09:16:34Z</time>
      </trkpt>
      <trkpt lat="47.23213" lon="-1.60862">
        <ele>45</ele>
        <time>2012-01-19T09:16:37Z</time>
      </trkpt>
      <trkpt lat="47.23217" lon="-1.60859">
        <ele>44.7</ele>
        <time>2012-01-19T09:16:40Z</time>
      </trkpt>
      <trkpt lat="47.2322" lon="-1.60856">
        <ele>45</ele>
        <time>2012-01-19T09:16:43Z</time>
      </trkpt>
      <trkpt lat="47.23223" lon="-1.60853">
        <ele>45.2</ele>
        <time>2012-01-19T09:16:45Z</time>
      </trkpt>
      <trkpt lat="47.23225" lon="-1.60851">
        <ele>45.2</ele>
        <time>2012-01-19T09:16:47Z</time>
      </trkpt>
      <trkpt lat="47.23228" lon="-1.60849">
        <ele>45.4</ele>
        <time>2012-01-19T09:16:49Z</time>
      </trkpt>
      <trkpt lat="47.23231" lon="-1.60846">
        <ele>45.5</ele>
        <time>2012-01-19T09:16:51Z</time>
      </trkpt>
      <trkpt lat="47.23233" lon="-1.60844">
        <ele>44.7</ele>
        <time>2012-01-19T09:16:53Z</time>
      </trkpt>
      <trkpt lat="47.23236" lon="-1.60841">
        <ele>44.2</ele>
        <time>2012-01-19T09:16:55Z</time>
      </trkpt>
      <trkpt lat="47.23239" lon="-1.60838">
        <ele>43.9</ele>
        <time>2012-01-19T09:16:57Z</time>
      </trkpt>
      <trkpt lat="47.23242" lon="-1.60835">
        <ele>44.2</ele>
        <time>2012-01-19T09:16:59Z</time>
      </trkpt>
      <trkpt lat="47.23245" lon="-1.60832">
        <ele>44.5</ele>
        <time>2012-01-19T09:17:01Z</time>
      </trkpt>
      <trkpt lat="47.23247" lon="-1.60829">
        <ele>44.7</ele>
        <time>2012-01-19T09:17:03Z</time>
      </trkpt>
      <trkpt lat="47.2325" lon="-1.60826">
        <ele>44.7</ele>
        <time>2012-01-19T09:17:05Z</time>
      </trkpt>
      <trkpt lat="47.23253" lon="-1.60824">
        <ele>44.2</ele>
        <time>2012-01-19T09:17:07Z</time>
      </trkpt>
      <trkpt lat="47.23255" lon="-1.6082">
        <ele>44.2</ele>
        <time>2012-01-19T09:17:09Z</time>
      </trkpt>
      <trkpt lat="47.23258" lon="-1.60818">
        <ele>44.2</ele>
        <time>2012-01-19T09:17:11Z</time>
      </trkpt>
      <trkpt lat="47.2326" lon="-1.60815">
        <ele>44.2</ele>
        <time>2012-01-19T09:17:13Z</time>
      </trkpt>
      <trkpt lat="47.23263" lon="-1.60812">
        <ele>44</ele>
        <time>2012-01-19T09:17:15Z</time>
      </trkpt>
      <trkpt lat="47.23265" lon="-1.60809">
        <ele>43.7</ele>
        <time>2012-01-19T09:17:17Z</time>
      </trkpt>
      <trkpt lat="47.23268" lon="-1.60804">
        <ele>43.7</ele>
        <time>2012-01-19T09:17:31Z</time>
      </trkpt>
      <trkpt lat="47.23269" lon="-1.60804">
        <ele>43.5</ele>
        <time>2012-01-19T09:17:32Z</time>
      </trkpt>
      <trkpt lat="47.23273" lon="-1.60795">
        <ele>43.5</ele>
        <time>2012-01-19T09:18:19Z</time>
      </trkpt>
      <trkpt lat="47.23276" lon="-1.60791">
        <ele>43.5</ele>
        <time>2012-01-19T09:18:38Z</time>
      </trkpt>
      <trkpt lat="47.23277" lon="-1.60791">
        <ele>43.5</ele>
        <time>2012-01-19T09:18:39Z</time>
      </trkpt>
      <trkpt lat="47.23275" lon="-1.60797">
        <ele>43.5</ele>
        <time>2012-01-19T09:19:55Z</time>
      </trkpt>
      <trkpt lat="47.2327" lon="-1.60797">
        <ele>43.9</ele>
        <time>2012-01-19T09:22:05Z</time>
      </trkpt>
      <trkpt lat="47.2327" lon="-1.60789">
        <ele>43.7</ele>
        <time>2012-01-19T09:24:09Z</time>
      </trkpt>
      <trkpt lat="47.23267" lon="-1.6078">
        <ele>43.5</ele>
        <time>2012-01-19T09:24:16Z</time>
      </trkpt>
      <trkpt lat="47.23265" lon="-1.60777">
        <ele>43.9</ele>
        <time>2012-01-19T09:24:19Z</time>
      </trkpt>
      <trkpt lat="47.23262" lon="-1.60774">
        <ele>43.7</ele>
        <time>2012-01-19T09:24:22Z</time>
      </trkpt>
      <trkpt lat="47.2326" lon="-1.60769">
        <ele>43.5</ele>
        <time>2012-01-19T09:24:26Z</time>
      </trkpt>
      <trkpt lat="47.23257" lon="-1.60764">
        <ele>43.4</ele>
        <time>2012-01-19T09:24:30Z</time>
      </trkpt>
      <trkpt lat="47.23255" lon="-1.60759">
        <ele>43.5</ele>
        <time>2012-01-19T09:24:34Z</time>
      </trkpt>
      <trkpt lat="47.23253" lon="-1.60755">
        <ele>43.5</ele>
        <time>2012-01-19T09:24:37Z</time>
      </trkpt>
      <trkpt lat="47.2325" lon="-1.6075">
        <ele>43.7</ele>
        <time>2012-01-19T09:24:41Z</time>
      </trkpt>
      <trkpt lat="47.23247" lon="-1.60745">
        <ele>43.5</ele>
        <time>2012-01-19T09:24:45Z</time>
      </trkpt>
      <trkpt lat="47.23244" lon="-1.60741">
        <ele>44</ele>
        <time>2012-01-19T09:24:49Z</time>
      </trkpt>
      <trkpt lat="47.23242" lon="-1.60737">
        <ele>43.7</ele>
        <time>2012-01-19T09:24:52Z</time>
      </trkpt>
      <trkpt lat="47.23239" lon="-1.60733">
        <ele>43.9</ele>
        <time>2012-01-19T09:24:55Z</time>
      </trkpt>
      <trkpt lat="47.23236" lon="-1.60728">
        <ele>44.2</ele>
        <time>2012-01-19T09:24:59Z</time>
      </trkpt>
      <trkpt lat="47.23234" lon="-1.60725">
        <ele>43.5</ele>
        <time>2012-01-19T09:25:02Z</time>
      </trkpt>
      <trkpt lat="47.23231" lon="-1.60722">
        <ele>44</ele>
        <time>2012-01-19T09:25:05Z</time>
      </trkpt>
      <trkpt lat="47.23228" lon="-1.60719">
        <ele>43.9</ele>
        <time>2012-01-19T09:25:08Z</time>
      </trkpt>
      <trkpt lat="47.23224" lon="-1.60715">
        <ele>44</ele>
        <time>2012-01-19T09:25:12Z</time>
      </trkpt>
      <trkpt lat="47.23224" lon="-1.60714">
        <ele>44</ele>
        <time>2012-01-19T09:25:13Z</time>
      </trkpt>
      <trkpt lat="47.2322" lon="-1.60707">
        <ele>44.2</ele>
        <time>2012-01-19T09:25:18Z</time>
      </trkpt>
      <trkpt lat="47.23217" lon="-1.60703">
        <ele>45</ele>
        <time>2012-01-19T09:25:21Z</time>
      </trkpt>
      <trkpt lat="47.23215" lon="-1.60699">
        <ele>44.2</ele>
        <time>2012-01-19T09:25:24Z</time>
      </trkpt>
      <trkpt lat="47.23213" lon="-1.60695">
        <ele>44.2</ele>
        <time>2012-01-19T09:25:27Z</time>
      </trkpt>
      <trkpt lat="47.23211" lon="-1.60691">
        <ele>44.5</ele>
        <time>2012-01-19T09:25:30Z</time>
      </trkpt>
      <trkpt lat="47.23209" lon="-1.60687">
        <ele>44</ele>
        <time>2012-01-19T09:25:33Z</time>
      </trkpt>
      <trkpt lat="47.23208" lon="-1.60681">
        <ele>44</ele>
        <time>2012-01-19T09:25:36Z</time>
      </trkpt>
      <trkpt lat="47.23207" lon="-1.60675">
        <ele>44</ele>
        <time>2012-01-19T09:25:39Z</time>
      </trkpt>
      <trkpt lat="47.23206" lon="-1.60669">
        <ele>44</ele>
        <time>2012-01-19T09:25:42Z</time>
      </trkpt>
      <trkpt lat="47.23206" lon="-1.60662">
        <ele>44.2</ele>
        <time>2012-01-19T09:25:45Z</time>
      </trkpt>
      <trkpt lat="47.23206" lon="-1.60656">
        <ele>44.5</ele>
        <time>2012-01-19T09:25:48Z</time>
      </trkpt>
      <trkpt lat="47.23206" lon="-1.6065">
        <ele>45</ele>
        <time>2012-01-19T09:25:51Z</time>
      </trkpt>
      <trkpt lat="47.23207" lon="-1.60643">
        <ele>45.2</ele>
        <time>2012-01-19T09:25:54Z</time>
      </trkpt>
      <trkpt lat="47.23208" lon="-1.60638">
        <ele>44.9</ele>
        <time>2012-01-19T09:25:57Z</time>
      </trkpt>
      <trkpt lat="47.23209" lon="-1.60632">
        <ele>44.7</ele>
        <time>2012-01-19T09:26:00Z</time>
      </trkpt>
      <trkpt lat="47.2321" lon="-1.60627">
        <ele>44.4</ele>
        <time>2012-01-19T09:26:03Z</time>
      </trkpt>
      <trkpt lat="47.23212" lon="-1.60621">
        <ele>44</ele>
        <time>2012-01-19T09:26:06Z</time>
      </trkpt>
      <trkpt lat="47.23213" lon="-1.60615">
        <ele>44.7</ele>
        <time>2012-01-19T09:26:09Z</time>
      </trkpt>
      <trkpt lat="47.23215" lon="-1.60609">
        <ele>44.7</ele>
        <time>2012-01-19T09:26:12Z</time>
      </trkpt>
      <trkpt lat="47.23216" lon="-1.60605">
        <ele>44.2</ele>
        <time>2012-01-19T09:26:14Z</time>
      </trkpt>
      <trkpt lat="47.23216" lon="-1.60603">
        <ele>43.9</ele>
        <time>2012-01-19T09:26:15Z</time>
      </trkpt>
      <trkpt lat="47.23218" lon="-1.60597">
        <ele>43.7</ele>
        <time>2012-01-19T09:26:18Z</time>
      </trkpt>
      <trkpt lat="47.2322" lon="-1.60591">
        <ele>43.4</ele>
        <time>2012-01-19T09:26:21Z</time>
      </trkpt>
      <trkpt lat="47.23222" lon="-1.60586">
        <ele>42.7</ele>
        <time>2012-01-19T09:26:24Z</time>
      </trkpt>
      <trkpt lat="47.23224" lon="-1.6058">
        <ele>42.4</ele>
        <time>2012-01-19T09:26:27Z</time>
      </trkpt>
      <trkpt lat="47.23226" lon="-1.60574">
        <ele>42.2</ele>
        <time>2012-01-19T09:26:30Z</time>
      </trkpt>
      <trkpt lat="47.23228" lon="-1.60569">
        <ele>42.2</ele>
        <time>2012-01-19T09:26:33Z</time>
      </trkpt>
      <trkpt lat="47.2323" lon="-1.60563">
        <ele>42.5</ele>
        <time>2012-01-19T09:26:36Z</time>
      </trkpt>
      <trkpt lat="47.23231" lon="-1.60559">
        <ele>43</ele>
        <time>2012-01-19T09:26:38Z</time>
      </trkpt>
      <trkpt lat="47.23232" lon="-1.60555">
        <ele>42.5</ele>
        <time>2012-01-19T09:26:40Z</time>
      </trkpt>
      <trkpt lat="47.23234" lon="-1.60551">
        <ele>42.5</ele>
        <time>2012-01-19T09:26:42Z</time>
      </trkpt>
      <trkpt lat="47.23236" lon="-1.60545">
        <ele>42.5</ele>
        <time>2012-01-19T09:26:45Z</time>
      </trkpt>
      <trkpt lat="47.23238" lon="-1.60539">
        <ele>42.2</ele>
        <time>2012-01-19T09:26:48Z</time>
      </trkpt>
      <trkpt lat="47.2324" lon="-1.60534">
        <ele>42</ele>
        <time>2012-01-19T09:26:51Z</time>
      </trkpt>
      <trkpt lat="47.23242" lon="-1.60528">
        <ele>42</ele>
        <time>2012-01-19T09:26:54Z</time>
      </trkpt>
      <trkpt lat="47.23244" lon="-1.60523">
        <ele>42.2</ele>
        <time>2012-01-19T09:26:57Z</time>
      </trkpt>
      <trkpt lat="47.23248" lon="-1.60519">
        <ele>41.7</ele>
        <time>2012-01-19T09:27:00Z</time>
      </trkpt>
      <trkpt lat="47.2325" lon="-1.60514">
        <ele>41.4</ele>
        <time>2012-01-19T09:27:03Z</time>
      </trkpt>
      <trkpt lat="47.23252" lon="-1.60509">
        <ele>41.5</ele>
        <time>2012-01-19T09:27:06Z</time>
      </trkpt>
      <trkpt lat="47.23254" lon="-1.60503">
        <ele>41</ele>
        <time>2012-01-19T09:27:09Z</time>
      </trkpt>
      <trkpt lat="47.23256" lon="-1.60497">
        <ele>40.5</ele>
        <time>2012-01-19T09:27:12Z</time>
      </trkpt>
      <trkpt lat="47.23258" lon="-1.60492">
        <ele>40.5</ele>
        <time>2012-01-19T09:27:15Z</time>
      </trkpt>
      <trkpt lat="47.23258" lon="-1.6049">
        <ele>40.5</ele>
        <time>2012-01-19T09:27:16Z</time>
      </trkpt>
      <trkpt lat="47.23261" lon="-1.60482">
        <ele>40.5</ele>
        <time>2012-01-19T09:27:20Z</time>
      </trkpt>
      <trkpt lat="47.23263" lon="-1.60477">
        <ele>40.4</ele>
        <time>2012-01-19T09:27:23Z</time>
      </trkpt>
      <trkpt lat="47.23264" lon="-1.60471">
        <ele>39.9</ele>
        <time>2012-01-19T09:27:26Z</time>
      </trkpt>
      <trkpt lat="47.23266" lon="-1.60465">
        <ele>40.2</ele>
        <time>2012-01-19T09:27:29Z</time>
      </trkpt>
      <trkpt lat="47.23268" lon="-1.60459">
        <ele>39.5</ele>
        <time>2012-01-19T09:27:33Z</time>
      </trkpt>
      <trkpt lat="47.23269" lon="-1.60454">
        <ele>39.9</ele>
        <time>2012-01-19T09:27:39Z</time>
      </trkpt>
      <trkpt lat="47.23271" lon="-1.60448">
        <ele>38.9</ele>
        <time>2012-01-19T09:27:43Z</time>
      </trkpt>
      <trkpt lat="47.23273" lon="-1.60445">
        <ele>38.7</ele>
        <time>2012-01-19T09:27:46Z</time>
      </trkpt>
      <trkpt lat="47.23277" lon="-1.60442">
        <ele>38.2</ele>
        <time>2012-01-19T09:27:49Z</time>
      </trkpt>
      <trkpt lat="47.2328" lon="-1.60439">
        <ele>37.7</ele>
        <time>2012-01-19T09:27:52Z</time>
      </trkpt>
      <trkpt lat="47.23283" lon="-1.60436">
        <ele>37.5</ele>
        <time>2012-01-19T09:27:55Z</time>
      </trkpt>
      <trkpt lat="47.23286" lon="-1.60432">
        <ele>37.7</ele>
        <time>2012-01-19T09:28:00Z</time>
      </trkpt>
      <trkpt lat="47.23289" lon="-1.60427">
        <ele>37.5</ele>
        <time>2012-01-19T09:28:04Z</time>
      </trkpt>
      <trkpt lat="47.23292" lon="-1.60423">
        <ele>37</ele>
        <time>2012-01-19T09:28:07Z</time>
      </trkpt>
      <trkpt lat="47.23295" lon="-1.60419">
        <ele>37</ele>
        <time>2012-01-19T09:28:10Z</time>
      </trkpt>
      <trkpt lat="47.23297" lon="-1.60416">
        <ele>36.7</ele>
        <time>2012-01-19T09:28:12Z</time>
      </trkpt>
      <trkpt lat="47.23301" lon="-1.60413">
        <ele>36.2</ele>
        <time>2012-01-19T09:28:15Z</time>
      </trkpt>
      <trkpt lat="47.23304" lon="-1.6041">
        <ele>36.4</ele>
        <time>2012-01-19T09:28:18Z</time>
      </trkpt>
      <trkpt lat="47.23306" lon="-1.6041">
        <ele>36.2</ele>
        <time>2012-01-19T09:28:19Z</time>
      </trkpt>
      <trkpt lat="47.23312" lon="-1.60407">
        <ele>35.2</ele>
        <time>2012-01-19T09:28:24Z</time>
      </trkpt>
      <trkpt lat="47.23315" lon="-1.60406">
        <ele>35.5</ele>
        <time>2012-01-19T09:28:27Z</time>
      </trkpt>
      <trkpt lat="47.23319" lon="-1.60407">
        <ele>35.4</ele>
        <time>2012-01-19T09:28:29Z</time>
      </trkpt>
      <trkpt lat="47.23323" lon="-1.60409">
        <ele>35.9</ele>
        <time>2012-01-19T09:28:32Z</time>
      </trkpt>
      <trkpt lat="47.23325" lon="-1.60412">
        <ele>36</ele>
        <time>2012-01-19T09:28:34Z</time>
      </trkpt>
      <trkpt lat="47.23328" lon="-1.60415">
        <ele>36</ele>
        <time>2012-01-19T09:28:36Z</time>
      </trkpt>
      <trkpt lat="47.2333" lon="-1.60418">
        <ele>36</ele>
        <time>2012-01-19T09:28:38Z</time>
      </trkpt>
      <trkpt lat="47.23333" lon="-1.60421">
        <ele>35.9</ele>
        <time>2012-01-19T09:28:40Z</time>
      </trkpt>
      <trkpt lat="47.23336" lon="-1.60425">
        <ele>35.7</ele>
        <time>2012-01-19T09:28:42Z</time>
      </trkpt>
      <trkpt lat="47.23338" lon="-1.60428">
        <ele>35.7</ele>
        <time>2012-01-19T09:28:44Z</time>
      </trkpt>
      <trkpt lat="47.23341" lon="-1.60432">
        <ele>36</ele>
        <time>2012-01-19T09:28:46Z</time>
      </trkpt>
      <trkpt lat="47.23343" lon="-1.60435">
        <ele>35.5</ele>
        <time>2012-01-19T09:28:48Z</time>
      </trkpt>
      <trkpt lat="47.23346" lon="-1.60438">
        <ele>35.5</ele>
        <time>2012-01-19T09:28:50Z</time>
      </trkpt>
      <trkpt lat="47.23349" lon="-1.60441">
        <ele>35.4</ele>
        <time>2012-01-19T09:28:52Z</time>
      </trkpt>
      <trkpt lat="47.23351" lon="-1.60444">
        <ele>35.2</ele>
        <time>2012-01-19T09:28:54Z</time>
      </trkpt>
      <trkpt lat="47.23354" lon="-1.60446">
        <ele>35.2</ele>
        <time>2012-01-19T09:28:56Z</time>
      </trkpt>
      <trkpt lat="47.23357" lon="-1.60449">
        <ele>35.4</ele>
        <time>2012-01-19T09:28:58Z</time>
      </trkpt>
      <trkpt lat="47.2336" lon="-1.60451">
        <ele>35.2</ele>
        <time>2012-01-19T09:29:00Z</time>
      </trkpt>
      <trkpt lat="47.23362" lon="-1.60453">
        <ele>34.9</ele>
        <time>2012-01-19T09:29:02Z</time>
      </trkpt>
      <trkpt lat="47.23366" lon="-1.60456">
        <ele>34.2</ele>
        <time>2012-01-19T09:29:05Z</time>
      </trkpt>
      <trkpt lat="47.2337" lon="-1.60458">
        <ele>34.7</ele>
        <time>2012-01-19T09:29:08Z</time>
      </trkpt>
      <trkpt lat="47.23373" lon="-1.6046">
        <ele>34.2</ele>
        <time>2012-01-19T09:29:11Z</time>
      </trkpt>
      <trkpt lat="47.23378" lon="-1.60461">
        <ele>34.5</ele>
        <time>2012-01-19T09:29:14Z</time>
      </trkpt>
      <trkpt lat="47.23382" lon="-1.60463">
        <ele>34.7</ele>
        <time>2012-01-19T09:29:17Z</time>
      </trkpt>
      <trkpt lat="47.23386" lon="-1.60465">
        <ele>34.2</ele>
        <time>2012-01-19T09:29:20Z</time>
      </trkpt>
      <trkpt lat="47.23387" lon="-1.60466">
        <ele>34.2</ele>
        <time>2012-01-19T09:29:21Z</time>
      </trkpt>
      <trkpt lat="47.23391" lon="-1.60468">
        <ele>33.7</ele>
        <time>2012-01-19T09:29:24Z</time>
      </trkpt>
      <trkpt lat="47.23394" lon="-1.60469">
        <ele>33.5</ele>
        <time>2012-01-19T09:29:26Z</time>
      </trkpt>
      <trkpt lat="47.23397" lon="-1.60471">
        <ele>33.5</ele>
        <time>2012-01-19T09:29:28Z</time>
      </trkpt>
      <trkpt lat="47.23401" lon="-1.60472">
        <ele>33.5</ele>
        <time>2012-01-19T09:29:30Z</time>
      </trkpt>
      <trkpt lat="47.23405" lon="-1.60473">
        <ele>33.5</ele>
        <time>2012-01-19T09:29:33Z</time>
      </trkpt>
      <trkpt lat="47.23408" lon="-1.60474">
        <ele>33.2</ele>
        <time>2012-01-19T09:29:35Z</time>
      </trkpt>
      <trkpt lat="47.23413" lon="-1.60474">
        <ele>32.5</ele>
        <time>2012-01-19T09:29:38Z</time>
      </trkpt>
      <trkpt lat="47.23416" lon="-1.60474">
        <ele>31.8</ele>
        <time>2012-01-19T09:29:40Z</time>
      </trkpt>
      <trkpt lat="47.23419" lon="-1.60474">
        <ele>30.8</ele>
        <time>2012-01-19T09:29:42Z</time>
      </trkpt>
      <trkpt lat="47.23423" lon="-1.60475">
        <ele>30.3</ele>
        <time>2012-01-19T09:29:45Z</time>
      </trkpt>
      <trkpt lat="47.23427" lon="-1.60476">
        <ele>30.5</ele>
        <time>2012-01-19T09:29:47Z</time>
      </trkpt>
      <trkpt lat="47.2343" lon="-1.60476">
        <ele>30.6</ele>
        <time>2012-01-19T09:29:49Z</time>
      </trkpt>
      <trkpt lat="47.23434" lon="-1.60477">
        <ele>30.3</ele>
        <time>2012-01-19T09:29:52Z</time>
      </trkpt>
      <trkpt lat="47.23438" lon="-1.60478">
        <ele>30.1</ele>
        <time>2012-01-19T09:29:55Z</time>
      </trkpt>
      <trkpt lat="47.23442" lon="-1.60476">
        <ele>30.2</ele>
        <time>2012-01-19T09:29:58Z</time>
      </trkpt>
      <trkpt lat="47.23444" lon="-1.60472">
        <ele>29.7</ele>
        <time>2012-01-19T09:30:01Z</time>
      </trkpt>
      <trkpt lat="47.23445" lon="-1.60467">
        <ele>29.5</ele>
        <time>2012-01-19T09:30:04Z</time>
      </trkpt>
      <trkpt lat="47.23446" lon="-1.60462">
        <ele>29.3</ele>
        <time>2012-01-19T09:30:07Z</time>
      </trkpt>
      <trkpt lat="47.23447" lon="-1.60456">
        <ele>29</ele>
        <time>2012-01-19T09:30:10Z</time>
      </trkpt>
      <trkpt lat="47.23448" lon="-1.6045">
        <ele>28.5</ele>
        <time>2012-01-19T09:30:13Z</time>
      </trkpt>
      <trkpt lat="47.23449" lon="-1.60444">
        <ele>28.2</ele>
        <time>2012-01-19T09:30:16Z</time>
      </trkpt>
      <trkpt lat="47.2345" lon="-1.60438">
        <ele>28.1</ele>
        <time>2012-01-19T09:30:19Z</time>
      </trkpt>
      <trkpt lat="47.23451" lon="-1.60433">
        <ele>28</ele>
        <time>2012-01-19T09:30:22Z</time>
      </trkpt>
      <trkpt lat="47.23452" lon="-1.60431">
        <ele>27.8</ele>
        <time>2012-01-19T09:30:23Z</time>
      </trkpt>
      <trkpt lat="47.23454" lon="-1.60422">
        <ele>26.6</ele>
        <time>2012-01-19T09:30:29Z</time>
      </trkpt>
      <trkpt lat="47.23454" lon="-1.60415">
        <ele>25.7</ele>
        <time>2012-01-19T09:30:33Z</time>
      </trkpt>
      <trkpt lat="47.23454" lon="-1.60409">
        <ele>25.7</ele>
        <time>2012-01-19T09:30:36Z</time>
      </trkpt>
      <trkpt lat="47.23454" lon="-1.60403">
        <ele>24.5</ele>
        <time>2012-01-19T09:30:39Z</time>
      </trkpt>
      <trkpt lat="47.23455" lon="-1.60397">
        <ele>23.8</ele>
        <time>2012-01-19T09:30:42Z</time>
      </trkpt>
      <trkpt lat="47.23455" lon="-1.60391">
        <ele>23.6</ele>
        <time>2012-01-19T09:30:45Z</time>
      </trkpt>
      <trkpt lat="47.23455" lon="-1.60384">
        <ele>23.1</ele>
        <time>2012-01-19T09:30:48Z</time>
      </trkpt>
      <trkpt lat="47.23455" lon="-1.60379">
        <ele>22.7</ele>
        <time>2012-01-19T09:30:50Z</time>
      </trkpt>
      <trkpt lat="47.23455" lon="-1.60374">
        <ele>23.2</ele>
        <time>2012-01-19T09:30:52Z</time>
      </trkpt>
      <trkpt lat="47.23455" lon="-1.60369">
        <ele>23.3</ele>
        <time>2012-01-19T09:30:54Z</time>
      </trkpt>
      <trkpt lat="47.23455" lon="-1.60365">
        <ele>22.6</ele>
        <time>2012-01-19T09:30:56Z</time>
      </trkpt>
      <trkpt lat="47.23454" lon="-1.6036">
        <ele>22.5</ele>
        <time>2012-01-19T09:30:58Z</time>
      </trkpt>
      <trkpt lat="47.23453" lon="-1.60355">
        <ele>22.7</ele>
        <time>2012-01-19T09:31:00Z</time>
      </trkpt>
      <trkpt lat="47.23452" lon="-1.6035">
        <ele>22.2</ele>
        <time>2012-01-19T09:31:03Z</time>
      </trkpt>
      <trkpt lat="47.23451" lon="-1.60344">
        <ele>21.6</ele>
        <time>2012-01-19T09:31:06Z</time>
      </trkpt>
      <trkpt lat="47.2345" lon="-1.6034">
        <ele>22</ele>
        <time>2012-01-19T09:31:08Z</time>
      </trkpt>
      <trkpt lat="47.23448" lon="-1.60334">
        <ele>21.7</ele>
        <time>2012-01-19T09:31:11Z</time>
      </trkpt>
      <trkpt lat="47.23446" lon="-1.6033">
        <ele>21.7</ele>
        <time>2012-01-19T09:31:15Z</time>
      </trkpt>
      <trkpt lat="47.23445" lon="-1.60325">
        <ele>21.6</ele>
        <time>2012-01-19T09:31:18Z</time>
      </trkpt>
      <trkpt lat="47.23443" lon="-1.6032">
        <ele>21.1</ele>
        <time>2012-01-19T09:31:21Z</time>
      </trkpt>
      <trkpt lat="47.23442" lon="-1.60315">
        <ele>20.5</ele>
        <time>2012-01-19T09:31:24Z</time>
      </trkpt>
      <trkpt lat="47.23441" lon="-1.60313">
        <ele>20.2</ele>
        <time>2012-01-19T09:31:25Z</time>
      </trkpt>
      <trkpt lat="47.23438" lon="-1.60306">
        <ele>20.3</ele>
        <time>2012-01-19T09:31:29Z</time>
      </trkpt>
      <trkpt lat="47.23435" lon="-1.60301">
        <ele>20.3</ele>
        <time>2012-01-19T09:31:32Z</time>
      </trkpt>
      <trkpt lat="47.23433" lon="-1.60298">
        <ele>20.6</ele>
        <time>2012-01-19T09:31:34Z</time>
      </trkpt>
      <trkpt lat="47.2343" lon="-1.60294">
        <ele>19.7</ele>
        <time>2012-01-19T09:31:37Z</time>
      </trkpt>
      <trkpt lat="47.23427" lon="-1.60289">
        <ele>19.1</ele>
        <time>2012-01-19T09:31:40Z</time>
      </trkpt>
      <trkpt lat="47.23425" lon="-1.60285">
        <ele>19.1</ele>
        <time>2012-01-19T09:31:43Z</time>
      </trkpt>
      <trkpt lat="47.23422" lon="-1.60281">
        <ele>19.1</ele>
        <time>2012-01-19T09:31:46Z</time>
      </trkpt>
      <trkpt lat="47.23419" lon="-1.60276">
        <ele>19</ele>
        <time>2012-01-19T09:31:49Z</time>
      </trkpt>
      <trkpt lat="47.23416" lon="-1.60272">
        <ele>19.3</ele>
        <time>2012-01-19T09:31:52Z</time>
      </trkpt>
      <trkpt lat="47.23413" lon="-1.60269">
        <ele>19.8</ele>
        <time>2012-01-19T09:31:54Z</time>
      </trkpt>
      <trkpt lat="47.23411" lon="-1.60266">
        <ele>19.7</ele>
        <time>2012-01-19T09:31:56Z</time>
      </trkpt>
      <trkpt lat="47.23408" lon="-1.60263">
        <ele>19.7</ele>
        <time>2012-01-19T09:31:58Z</time>
      </trkpt>
      <trkpt lat="47.23406" lon="-1.6026">
        <ele>19.7</ele>
        <time>2012-01-19T09:32:00Z</time>
      </trkpt>
      <trkpt lat="47.23403" lon="-1.60256">
        <ele>19.6</ele>
        <time>2012-01-19T09:32:02Z</time>
      </trkpt>
      <trkpt lat="47.23401" lon="-1.60252">
        <ele>19.5</ele>
        <time>2012-01-19T09:32:04Z</time>
      </trkpt>
      <trkpt lat="47.23398" lon="-1.60248">
        <ele>19.6</ele>
        <time>2012-01-19T09:32:06Z</time>
      </trkpt>
      <trkpt lat="47.23396" lon="-1.60245">
        <ele>19.7</ele>
        <time>2012-01-19T09:32:08Z</time>
      </trkpt>
      <trkpt lat="47.23393" lon="-1.60242">
        <ele>19.7</ele>
        <time>2012-01-19T09:32:10Z</time>
      </trkpt>
      <trkpt lat="47.2339" lon="-1.60239">
        <ele>19.5</ele>
        <time>2012-01-19T09:32:12Z</time>
      </trkpt>
      <trkpt lat="47.23387" lon="-1.60236">
        <ele>19.1</ele>
        <time>2012-01-19T09:32:14Z</time>
      </trkpt>
      <trkpt lat="47.23385" lon="-1.60233">
        <ele>18.7</ele>
        <time>2012-01-19T09:32:16Z</time>
      </trkpt>
      <trkpt lat="47.23382" lon="-1.6023">
        <ele>19</ele>
        <time>2012-01-19T09:32:18Z</time>
      </trkpt>
      <trkpt lat="47.23379" lon="-1.60228">
        <ele>19.2</ele>
        <time>2012-01-19T09:32:20Z</time>
      </trkpt>
      <trkpt lat="47.23376" lon="-1.60226">
        <ele>19.1</ele>
        <time>2012-01-19T09:32:22Z</time>
      </trkpt>
      <trkpt lat="47.23374" lon="-1.60223">
        <ele>19</ele>
        <time>2012-01-19T09:32:24Z</time>
      </trkpt>
      <trkpt lat="47.2337" lon="-1.60219">
        <ele>19.1</ele>
        <time>2012-01-19T09:32:27Z</time>
      </trkpt>
      <trkpt lat="47.23369" lon="-1.60218">
        <ele>19.2</ele>
        <time>2012-01-19T09:32:28Z</time>
      </trkpt>
      <trkpt lat="47.23365" lon="-1.6021">
        <ele>19.1</ele>
        <time>2012-01-19T09:32:33Z</time>
      </trkpt>
      <trkpt lat="47.23362" lon="-1.60206">
        <ele>18.6</ele>
        <time>2012-01-19T09:32:36Z</time>
      </trkpt>
      <trkpt lat="47.2336" lon="-1.60201">
        <ele>19</ele>
        <time>2012-01-19T09:32:39Z</time>
      </trkpt>
      <trkpt lat="47.23358" lon="-1.60196">
        <ele>19.6</ele>
        <time>2012-01-19T09:32:42Z</time>
      </trkpt>
      <trkpt lat="47.23356" lon="-1.60191">
        <ele>19.7</ele>
        <time>2012-01-19T09:32:45Z</time>
      </trkpt>
      <trkpt lat="47.23354" lon="-1.60188">
        <ele>19.2</ele>
        <time>2012-01-19T09:32:47Z</time>
      </trkpt>
      <trkpt lat="47.23351" lon="-1.60183">
        <ele>19.1</ele>
        <time>2012-01-19T09:32:50Z</time>
      </trkpt>
      <trkpt lat="47.23348" lon="-1.60178">
        <ele>19</ele>
        <time>2012-01-19T09:32:53Z</time>
      </trkpt>
      <trkpt lat="47.23346" lon="-1.60175">
        <ele>18.8</ele>
        <time>2012-01-19T09:32:55Z</time>
      </trkpt>
      <trkpt lat="47.23344" lon="-1.60172">
        <ele>18.7</ele>
        <time>2012-01-19T09:32:57Z</time>
      </trkpt>
      <trkpt lat="47.23342" lon="-1.60168">
        <ele>18.7</ele>
        <time>2012-01-19T09:32:59Z</time>
      </trkpt>
      <trkpt lat="47.23339" lon="-1.60163">
        <ele>18.5</ele>
        <time>2012-01-19T09:33:02Z</time>
      </trkpt>
      <trkpt lat="47.23337" lon="-1.60159">
        <ele>18.6</ele>
        <time>2012-01-19T09:33:04Z</time>
      </trkpt>
      <trkpt lat="47.23334" lon="-1.60157">
        <ele>18.7</ele>
        <time>2012-01-19T09:33:06Z</time>
      </trkpt>
      <trkpt lat="47.23332" lon="-1.60153">
        <ele>18.8</ele>
        <time>2012-01-19T09:33:08Z</time>
      </trkpt>
      <trkpt lat="47.2333" lon="-1.6015">
        <ele>19.5</ele>
        <time>2012-01-19T09:33:10Z</time>
      </trkpt>
      <trkpt lat="47.23328" lon="-1.60147">
        <ele>19.5</ele>
        <time>2012-01-19T09:33:12Z</time>
      </trkpt>
      <trkpt lat="47.23324" lon="-1.60144">
        <ele>19.2</ele>
        <time>2012-01-19T09:33:14Z</time>
      </trkpt>
      <trkpt lat="47.23322" lon="-1.60141">
        <ele>19.1</ele>
        <time>2012-01-19T09:33:16Z</time>
      </trkpt>
      <trkpt lat="47.2332" lon="-1.60138">
        <ele>19</ele>
        <time>2012-01-19T09:33:18Z</time>
      </trkpt>
      <trkpt lat="47.23317" lon="-1.60134">
        <ele>19.1</ele>
        <time>2012-01-19T09:33:21Z</time>
      </trkpt>
      <trkpt lat="47.23314" lon="-1.60129">
        <ele>19.2</ele>
        <time>2012-01-19T09:33:24Z</time>
      </trkpt>
      <trkpt lat="47.23312" lon="-1.60124">
        <ele>19.3</ele>
        <time>2012-01-19T09:33:27Z</time>
      </trkpt>
      <trkpt lat="47.23312" lon="-1.60117">
        <ele>18.7</ele>
        <time>2012-01-19T09:33:30Z</time>
      </trkpt>
      <trkpt lat="47.23312" lon="-1.60116">
        <ele>19.1</ele>
        <time>2012-01-19T09:33:31Z</time>
      </trkpt>
      <trkpt lat="47.23312" lon="-1.60107">
        <ele>19.2</ele>
        <time>2012-01-19T09:33:36Z</time>
      </trkpt>
      <trkpt lat="47.23311" lon="-1.60102">
        <ele>19.1</ele>
        <time>2012-01-19T09:33:39Z</time>
      </trkpt>
      <trkpt lat="47.23312" lon="-1.60096">
        <ele>19</ele>
        <time>2012-01-19T09:33:42Z</time>
      </trkpt>
      <trkpt lat="47.23311" lon="-1.6009">
        <ele>18.7</ele>
        <time>2012-01-19T09:33:45Z</time>
      </trkpt>
      <trkpt lat="47.23311" lon="-1.60085">
        <ele>19.1</ele>
        <time>2012-01-19T09:33:48Z</time>
      </trkpt>
      <trkpt lat="47.2331" lon="-1.60079">
        <ele>18.8</ele>
        <time>2012-01-19T09:33:51Z</time>
      </trkpt>
      <trkpt lat="47.2331" lon="-1.60073">
        <ele>19.3</ele>
        <time>2012-01-19T09:33:54Z</time>
      </trkpt>
      <trkpt lat="47.2331" lon="-1.60067">
        <ele>18.8</ele>
        <time>2012-01-19T09:33:57Z</time>
      </trkpt>
      <trkpt lat="47.2331" lon="-1.60062">
        <ele>18.6</ele>
        <time>2012-01-19T09:33:59Z</time>
      </trkpt>
      <trkpt lat="47.2331" lon="-1.60058">
        <ele>18.6</ele>
        <time>2012-01-19T09:34:01Z</time>
      </trkpt>
      <trkpt lat="47.2331" lon="-1.60051">
        <ele>17.7</ele>
        <time>2012-01-19T09:34:04Z</time>
      </trkpt>
      <trkpt lat="47.23311" lon="-1.60045">
        <ele>18</ele>
        <time>2012-01-19T09:34:07Z</time>
      </trkpt>
      <trkpt lat="47.23311" lon="-1.6004">
        <ele>18.2</ele>
        <time>2012-01-19T09:34:09Z</time>
      </trkpt>
      <trkpt lat="47.23311" lon="-1.60036">
        <ele>18.2</ele>
        <time>2012-01-19T09:34:11Z</time>
      </trkpt>
      <trkpt lat="47.23311" lon="-1.60031">
        <ele>18.2</ele>
        <time>2012-01-19T09:34:13Z</time>
      </trkpt>
      <trkpt lat="47.23311" lon="-1.60026">
        <ele>18.2</ele>
        <time>2012-01-19T09:34:15Z</time>
      </trkpt>
      <trkpt lat="47.23311" lon="-1.60021">
        <ele>18</ele>
        <time>2012-01-19T09:34:17Z</time>
      </trkpt>
      <trkpt lat="47.2331" lon="-1.60016">
        <ele>18.2</ele>
        <time>2012-01-19T09:34:19Z</time>
      </trkpt>
      <trkpt lat="47.2331" lon="-1.60011">
        <ele>18.3</ele>
        <time>2012-01-19T09:34:21Z</time>
      </trkpt>
      <trkpt lat="47.2331" lon="-1.60006">
        <ele>18.6</ele>
        <time>2012-01-19T09:34:23Z</time>
      </trkpt>
      <trkpt lat="47.23309" lon="-1.60002">
        <ele>18.6</ele>
        <time>2012-01-19T09:34:25Z</time>
      </trkpt>
      <trkpt lat="47.23309" lon="-1.59997">
        <ele>18.6</ele>
        <time>2012-01-19T09:34:27Z</time>
      </trkpt>
      <trkpt lat="47.23308" lon="-1.59993">
        <ele>18.6</ele>
        <time>2012-01-19T09:34:29Z</time>
      </trkpt>
      <trkpt lat="47.23307" lon="-1.59987">
        <ele>18.7</ele>
        <time>2012-01-19T09:34:32Z</time>
      </trkpt>
      <trkpt lat="47.23307" lon="-1.59985">
        <ele>18.7</ele>
        <time>2012-01-19T09:34:33Z</time>
      </trkpt>
      <trkpt lat="47.23305" lon="-1.59977">
        <ele>18.2</ele>
        <time>2012-01-19T09:34:37Z</time>
      </trkpt>
      <trkpt lat="47.23304" lon="-1.59972">
        <ele>18.1</ele>
        <time>2012-01-19T09:34:39Z</time>
      </trkpt>
      <trkpt lat="47.23303" lon="-1.59968">
        <ele>18</ele>
        <time>2012-01-19T09:34:41Z</time>
      </trkpt>
      <trkpt lat="47.23301" lon="-1.59964">
        <ele>17.7</ele>
        <time>2012-01-19T09:34:43Z</time>
      </trkpt>
      <trkpt lat="47.23299" lon="-1.5996">
        <ele>17.8</ele>
        <time>2012-01-19T09:34:45Z</time>
      </trkpt>
      <trkpt lat="47.23296" lon="-1.59955">
        <ele>18.1</ele>
        <time>2012-01-19T09:34:48Z</time>
      </trkpt>
      <trkpt lat="47.23294" lon="-1.59952">
        <ele>18.2</ele>
        <time>2012-01-19T09:34:50Z</time>
      </trkpt>
      <trkpt lat="47.23292" lon="-1.59948">
        <ele>17.8</ele>
        <time>2012-01-19T09:34:52Z</time>
      </trkpt>
      <trkpt lat="47.2329" lon="-1.59945">
        <ele>17.5</ele>
        <time>2012-01-19T09:34:54Z</time>
      </trkpt>
      <trkpt lat="47.23288" lon="-1.59942">
        <ele>17</ele>
        <time>2012-01-19T09:34:56Z</time>
      </trkpt>
      <trkpt lat="47.23284" lon="-1.59938">
        <ele>17.7</ele>
        <time>2012-01-19T09:34:59Z</time>
      </trkpt>
      <trkpt lat="47.23281" lon="-1.59934">
        <ele>17.8</ele>
        <time>2012-01-19T09:35:02Z</time>
      </trkpt>
      <trkpt lat="47.23277" lon="-1.5993">
        <ele>17.7</ele>
        <time>2012-01-19T09:35:05Z</time>
      </trkpt>
      <trkpt lat="47.23274" lon="-1.59927">
        <ele>17.8</ele>
        <time>2012-01-19T09:35:08Z</time>
      </trkpt>
      <trkpt lat="47.23271" lon="-1.59923">
        <ele>17.8</ele>
        <time>2012-01-19T09:35:11Z</time>
      </trkpt>
      <trkpt lat="47.23268" lon="-1.5992">
        <ele>17.8</ele>
        <time>2012-01-19T09:35:14Z</time>
      </trkpt>
      <trkpt lat="47.23265" lon="-1.59917">
        <ele>17.7</ele>
        <time>2012-01-19T09:35:17Z</time>
      </trkpt>
      <trkpt lat="47.23262" lon="-1.59913">
        <ele>17.6</ele>
        <time>2012-01-19T09:35:21Z</time>
      </trkpt>
      <trkpt lat="47.23258" lon="-1.59911">
        <ele>17.7</ele>
        <time>2012-01-19T09:35:31Z</time>
      </trkpt>
      <trkpt lat="47.23254" lon="-1.59911">
        <ele>17.7</ele>
        <time>2012-01-19T09:35:41Z</time>
      </trkpt>
      <trkpt lat="47.23253" lon="-1.5991">
        <ele>17.6</ele>
        <time>2012-01-19T09:35:42Z</time>
      </trkpt>
      <trkpt lat="47.23249" lon="-1.59904">
        <ele>17.1</ele>
        <time>2012-01-19T09:35:47Z</time>
      </trkpt>
      <trkpt lat="47.23246" lon="-1.599">
        <ele>17.1</ele>
        <time>2012-01-19T09:35:50Z</time>
      </trkpt>
      <trkpt lat="47.23242" lon="-1.59896">
        <ele>17.1</ele>
        <time>2012-01-19T09:35:53Z</time>
      </trkpt>
      <trkpt lat="47.2324" lon="-1.59892">
        <ele>17.2</ele>
        <time>2012-01-19T09:35:56Z</time>
      </trkpt>
      <trkpt lat="47.23236" lon="-1.59888">
        <ele>17.6</ele>
        <time>2012-01-19T09:35:59Z</time>
      </trkpt>
      <trkpt lat="47.23234" lon="-1.59884">
        <ele>17.3</ele>
        <time>2012-01-19T09:36:02Z</time>
      </trkpt>
      <trkpt lat="47.2323" lon="-1.5988">
        <ele>17.7</ele>
        <time>2012-01-19T09:36:05Z</time>
      </trkpt>
      <trkpt lat="47.23228" lon="-1.59877">
        <ele>17.7</ele>
        <time>2012-01-19T09:36:07Z</time>
      </trkpt>
      <trkpt lat="47.23224" lon="-1.59874">
        <ele>17.2</ele>
        <time>2012-01-19T09:36:10Z</time>
      </trkpt>
      <trkpt lat="47.2322" lon="-1.5987">
        <ele>16.3</ele>
        <time>2012-01-19T09:36:13Z</time>
      </trkpt>
      <trkpt lat="47.23217" lon="-1.59866">
        <ele>16.5</ele>
        <time>2012-01-19T09:36:16Z</time>
      </trkpt>
      <trkpt lat="47.23214" lon="-1.59862">
        <ele>17.1</ele>
        <time>2012-01-19T09:36:19Z</time>
      </trkpt>
      <trkpt lat="47.23212" lon="-1.59857">
        <ele>17.2</ele>
        <time>2012-01-19T09:36:22Z</time>
      </trkpt>
      <trkpt lat="47.23209" lon="-1.59853">
        <ele>17.2</ele>
        <time>2012-01-19T09:36:25Z</time>
      </trkpt>
      <trkpt lat="47.23207" lon="-1.59849">
        <ele>17.2</ele>
        <time>2012-01-19T09:36:27Z</time>
      </trkpt>
      <trkpt lat="47.23205" lon="-1.59844">
        <ele>17.2</ele>
        <time>2012-01-19T09:36:30Z</time>
      </trkpt>
      <trkpt lat="47.23202" lon="-1.59839">
        <ele>17.2</ele>
        <time>2012-01-19T09:36:33Z</time>
      </trkpt>
      <trkpt lat="47.232" lon="-1.59834">
        <ele>17.1</ele>
        <time>2012-01-19T09:36:36Z</time>
      </trkpt>
      <trkpt lat="47.23198" lon="-1.59829">
        <ele>17</ele>
        <time>2012-01-19T09:36:39Z</time>
      </trkpt>
      <trkpt lat="47.23196" lon="-1.59825">
        <ele>16.7</ele>
        <time>2012-01-19T09:36:41Z</time>
      </trkpt>
      <trkpt lat="47.23194" lon="-1.59821">
        <ele>17.2</ele>
        <time>2012-01-19T09:36:43Z</time>
      </trkpt>
      <trkpt lat="47.23193" lon="-1.5982">
        <ele>17.2</ele>
        <time>2012-01-19T09:36:44Z</time>
      </trkpt>
      <trkpt lat="47.23189" lon="-1.59813">
        <ele>17.1</ele>
        <time>2012-01-19T09:36:48Z</time>
      </trkpt>
      <trkpt lat="47.23186" lon="-1.59809">
        <ele>16.7</ele>
        <time>2012-01-19T09:36:51Z</time>
      </trkpt>
      <trkpt lat="47.23183" lon="-1.59805">
        <ele>16.8</ele>
        <time>2012-01-19T09:36:53Z</time>
      </trkpt>
      <trkpt lat="47.23181" lon="-1.59803">
        <ele>16.7</ele>
        <time>2012-01-19T09:36:55Z</time>
      </trkpt>
      <trkpt lat="47.23176" lon="-1.59801">
        <ele>16.6</ele>
        <time>2012-01-19T09:36:58Z</time>
      </trkpt>
      <trkpt lat="47.23172" lon="-1.598">
        <ele>16.7</ele>
        <time>2012-01-19T09:37:01Z</time>
      </trkpt>
      <trkpt lat="47.23168" lon="-1.59801">
        <ele>16.3</ele>
        <time>2012-01-19T09:37:04Z</time>
      </trkpt>
      <trkpt lat="47.23164" lon="-1.598">
        <ele>16.5</ele>
        <time>2012-01-19T09:37:07Z</time>
      </trkpt>
      <trkpt lat="47.2316" lon="-1.59799">
        <ele>16.6</ele>
        <time>2012-01-19T09:37:10Z</time>
      </trkpt>
      <trkpt lat="47.23156" lon="-1.59798">
        <ele>17.1</ele>
        <time>2012-01-19T09:37:13Z</time>
      </trkpt>
      <trkpt lat="47.23153" lon="-1.59797">
        <ele>17</ele>
        <time>2012-01-19T09:37:15Z</time>
      </trkpt>
      <trkpt lat="47.2315" lon="-1.59796">
        <ele>16.8</ele>
        <time>2012-01-19T09:37:17Z</time>
      </trkpt>
      <trkpt lat="47.23147" lon="-1.59794">
        <ele>17.2</ele>
        <time>2012-01-19T09:37:19Z</time>
      </trkpt>
      <trkpt lat="47.23143" lon="-1.59791">
        <ele>17.5</ele>
        <time>2012-01-19T09:37:22Z</time>
      </trkpt>
      <trkpt lat="47.23139" lon="-1.59787">
        <ele>17.5</ele>
        <time>2012-01-19T09:37:25Z</time>
      </trkpt>
      <trkpt lat="47.23136" lon="-1.59783">
        <ele>17.2</ele>
        <time>2012-01-19T09:37:28Z</time>
      </trkpt>
      <trkpt lat="47.23134" lon="-1.59779">
        <ele>17</ele>
        <time>2012-01-19T09:37:31Z</time>
      </trkpt>
      <trkpt lat="47.23131" lon="-1.59775">
        <ele>17.1</ele>
        <time>2012-01-19T09:37:34Z</time>
      </trkpt>
      <trkpt lat="47.23129" lon="-1.5977">
        <ele>17.2</ele>
        <time>2012-01-19T09:37:37Z</time>
      </trkpt>
      <trkpt lat="47.23126" lon="-1.59765">
        <ele>17.2</ele>
        <time>2012-01-19T09:37:40Z</time>
      </trkpt>
      <trkpt lat="47.23123" lon="-1.5976">
        <ele>17.2</ele>
        <time>2012-01-19T09:37:43Z</time>
      </trkpt>
      <trkpt lat="47.2312" lon="-1.59756">
        <ele>17.6</ele>
        <time>2012-01-19T09:37:46Z</time>
      </trkpt>
      <trkpt lat="47.23119" lon="-1.59754">
        <ele>17.6</ele>
        <time>2012-01-19T09:37:47Z</time>
      </trkpt>
      <trkpt lat="47.23114" lon="-1.59747">
        <ele>17.8</ele>
        <time>2012-01-19T09:37:52Z</time>
      </trkpt>
      <trkpt lat="47.23111" lon="-1.59743">
        <ele>18.6</ele>
        <time>2012-01-19T09:37:55Z</time>
      </trkpt>
      <trkpt lat="47.23108" lon="-1.5974">
        <ele>18.1</ele>
        <time>2012-01-19T09:37:57Z</time>
      </trkpt>
      <trkpt lat="47.23105" lon="-1.59735">
        <ele>17.6</ele>
        <time>2012-01-19T09:38:00Z</time>
      </trkpt>
      <trkpt lat="47.23103" lon="-1.59732">
        <ele>17.2</ele>
        <time>2012-01-19T09:38:03Z</time>
      </trkpt>
      <trkpt lat="47.23099" lon="-1.59728">
        <ele>16.6</ele>
        <time>2012-01-19T09:38:06Z</time>
      </trkpt>
      <trkpt lat="47.23096" lon="-1.59726">
        <ele>16.5</ele>
        <time>2012-01-19T09:38:08Z</time>
      </trkpt>
      <trkpt lat="47.23093" lon="-1.59725">
        <ele>16.6</ele>
        <time>2012-01-19T09:38:10Z</time>
      </trkpt>
      <trkpt lat="47.23089" lon="-1.59726">
        <ele>16.8</ele>
        <time>2012-01-19T09:38:13Z</time>
      </trkpt>
      <trkpt lat="47.23085" lon="-1.59728">
        <ele>17.7</ele>
        <time>2012-01-19T09:38:16Z</time>
      </trkpt>
      <trkpt lat="47.23082" lon="-1.59731">
        <ele>17.6</ele>
        <time>2012-01-19T09:38:19Z</time>
      </trkpt>
      <trkpt lat="47.23079" lon="-1.59735">
        <ele>17.7</ele>
        <time>2012-01-19T09:38:22Z</time>
      </trkpt>
      <trkpt lat="47.23077" lon="-1.5974">
        <ele>17.7</ele>
        <time>2012-01-19T09:38:26Z</time>
      </trkpt>
      <trkpt lat="47.23074" lon="-1.59744">
        <ele>17.2</ele>
        <time>2012-01-19T09:38:29Z</time>
      </trkpt>
      <trkpt lat="47.23071" lon="-1.59747">
        <ele>17.5</ele>
        <time>2012-01-19T09:38:32Z</time>
      </trkpt>
      <trkpt lat="47.23069" lon="-1.5975">
        <ele>17.7</ele>
        <time>2012-01-19T09:38:35Z</time>
      </trkpt>
      <trkpt lat="47.23065" lon="-1.59754">
        <ele>18.5</ele>
        <time>2012-01-19T09:38:39Z</time>
      </trkpt>
      <trkpt lat="47.23063" lon="-1.59757">
        <ele>18.5</ele>
        <time>2012-01-19T09:38:42Z</time>
      </trkpt>
      <trkpt lat="47.23059" lon="-1.5976">
        <ele>18.2</ele>
        <time>2012-01-19T09:38:45Z</time>
      </trkpt>
      <trkpt lat="47.23056" lon="-1.59763">
        <ele>18.7</ele>
        <time>2012-01-19T09:38:48Z</time>
      </trkpt>
      <trkpt lat="47.23055" lon="-1.59764">
        <ele>18.8</ele>
        <time>2012-01-19T09:38:49Z</time>
      </trkpt>
      <trkpt lat="47.23049" lon="-1.59769">
        <ele>18.7</ele>
        <time>2012-01-19T09:38:54Z</time>
      </trkpt>
      <trkpt lat="47.23046" lon="-1.59771">
        <ele>18.6</ele>
        <time>2012-01-19T09:38:56Z</time>
      </trkpt>
      <trkpt lat="47.23043" lon="-1.59772">
        <ele>18.3</ele>
        <time>2012-01-19T09:38:58Z</time>
      </trkpt>
      <trkpt lat="47.2304" lon="-1.59773">
        <ele>18.2</ele>
        <time>2012-01-19T09:39:00Z</time>
      </trkpt>
      <trkpt lat="47.23037" lon="-1.59775">
        <ele>18.1</ele>
        <time>2012-01-19T09:39:02Z</time>
      </trkpt>
      <trkpt lat="47.23034" lon="-1.59776">
        <ele>18.6</ele>
        <time>2012-01-19T09:39:04Z</time>
      </trkpt>
      <trkpt lat="47.2303" lon="-1.59778">
        <ele>18.7</ele>
        <time>2012-01-19T09:39:07Z</time>
      </trkpt>
      <trkpt lat="47.23026" lon="-1.59779">
        <ele>18.2</ele>
        <time>2012-01-19T09:39:10Z</time>
      </trkpt>
      <trkpt lat="47.23022" lon="-1.5978">
        <ele>18.1</ele>
        <time>2012-01-19T09:39:13Z</time>
      </trkpt>
      <trkpt lat="47.23018" lon="-1.59781">
        <ele>18.2</ele>
        <time>2012-01-19T09:39:16Z</time>
      </trkpt>
      <trkpt lat="47.23014" lon="-1.59783">
        <ele>18.2</ele>
        <time>2012-01-19T09:39:19Z</time>
      </trkpt>
      <trkpt lat="47.2301" lon="-1.59784">
        <ele>18.1</ele>
        <time>2012-01-19T09:39:22Z</time>
      </trkpt>
      <trkpt lat="47.23006" lon="-1.59785">
        <ele>18.1</ele>
        <time>2012-01-19T09:39:25Z</time>
      </trkpt>
      <trkpt lat="47.23002" lon="-1.59787">
        <ele>18.2</ele>
        <time>2012-01-19T09:39:28Z</time>
      </trkpt>
      <trkpt lat="47.22998" lon="-1.59788">
        <ele>18.8</ele>
        <time>2012-01-19T09:39:31Z</time>
      </trkpt>
      <trkpt lat="47.22995" lon="-1.5979">
        <ele>18.8</ele>
        <time>2012-01-19T09:39:34Z</time>
      </trkpt>
      <trkpt lat="47.22991" lon="-1.59791">
        <ele>19.1</ele>
        <time>2012-01-19T09:39:37Z</time>
      </trkpt>
      <trkpt lat="47.22987" lon="-1.59793">
        <ele>19.6</ele>
        <time>2012-01-19T09:39:40Z</time>
      </trkpt>
      <trkpt lat="47.22984" lon="-1.59793">
        <ele>19</ele>
        <time>2012-01-19T09:39:43Z</time>
      </trkpt>
      <trkpt lat="47.2298" lon="-1.59792">
        <ele>19.2</ele>
        <time>2012-01-19T09:39:46Z</time>
      </trkpt>
      <trkpt lat="47.22976" lon="-1.59792">
        <ele>19</ele>
        <time>2012-01-19T09:39:49Z</time>
      </trkpt>
      <trkpt lat="47.22974" lon="-1.59792">
        <ele>18.8</ele>
        <time>2012-01-19T09:39:50Z</time>
      </trkpt>
      <trkpt lat="47.22968" lon="-1.59793">
        <ele>19.2</ele>
        <time>2012-01-19T09:39:55Z</time>
      </trkpt>
      <trkpt lat="47.22964" lon="-1.59794">
        <ele>19.5</ele>
        <time>2012-01-19T09:39:58Z</time>
      </trkpt>
      <trkpt lat="47.22961" lon="-1.59795">
        <ele>19.2</ele>
        <time>2012-01-19T09:40:01Z</time>
      </trkpt>
      <trkpt lat="47.22958" lon="-1.59795">
        <ele>18.7</ele>
        <time>2012-01-19T09:40:03Z</time>
      </trkpt>
      <trkpt lat="47.22954" lon="-1.59793">
        <ele>18.2</ele>
        <time>2012-01-19T09:40:06Z</time>
      </trkpt>
      <trkpt lat="47.2295" lon="-1.5979">
        <ele>19.1</ele>
        <time>2012-01-19T09:40:09Z</time>
      </trkpt>
      <trkpt lat="47.22948" lon="-1.59786">
        <ele>18.7</ele>
        <time>2012-01-19T09:40:12Z</time>
      </trkpt>
      <trkpt lat="47.22945" lon="-1.59781">
        <ele>18.8</ele>
        <time>2012-01-19T09:40:15Z</time>
      </trkpt>
      <trkpt lat="47.22943" lon="-1.59776">
        <ele>19.7</ele>
        <time>2012-01-19T09:40:18Z</time>
      </trkpt>
      <trkpt lat="47.22941" lon="-1.59771">
        <ele>18.8</ele>
        <time>2012-01-19T09:40:21Z</time>
      </trkpt>
      <trkpt lat="47.22939" lon="-1.59767">
        <ele>18.7</ele>
        <time>2012-01-19T09:40:23Z</time>
      </trkpt>
      <trkpt lat="47.22936" lon="-1.59763">
        <ele>18.7</ele>
        <time>2012-01-19T09:40:26Z</time>
      </trkpt>
      <trkpt lat="47.22933" lon="-1.59758">
        <ele>18.5</ele>
        <time>2012-01-19T09:40:30Z</time>
      </trkpt>
      <trkpt lat="47.22931" lon="-1.59752">
        <ele>18.7</ele>
        <time>2012-01-19T09:40:55Z</time>
      </trkpt>
      <trkpt lat="47.2293" lon="-1.59752">
        <ele>18.8</ele>
        <time>2012-01-19T09:40:56Z</time>
      </trkpt>
      <trkpt lat="47.22924" lon="-1.59748">
        <ele>18.7</ele>
        <time>2012-01-19T09:41:03Z</time>
      </trkpt>
      <trkpt lat="47.22924" lon="-1.59742">
        <ele>18.8</ele>
        <time>2012-01-19T09:41:07Z</time>
      </trkpt>
      <trkpt lat="47.22925" lon="-1.59736">
        <ele>18.2</ele>
        <time>2012-01-19T09:41:11Z</time>
      </trkpt>
      <trkpt lat="47.22927" lon="-1.59732">
        <ele>18.2</ele>
        <time>2012-01-19T09:41:14Z</time>
      </trkpt>
      <trkpt lat="47.22929" lon="-1.59727">
        <ele>18.2</ele>
        <time>2012-01-19T09:41:17Z</time>
      </trkpt>
      <trkpt lat="47.22929" lon="-1.59721">
        <ele>18.1</ele>
        <time>2012-01-19T09:41:20Z</time>
      </trkpt>
      <trkpt lat="47.22928" lon="-1.59715">
        <ele>18.5</ele>
        <time>2012-01-19T09:41:23Z</time>
      </trkpt>
      <trkpt lat="47.22926" lon="-1.59711">
        <ele>18.2</ele>
        <time>2012-01-19T09:41:26Z</time>
      </trkpt>
      <trkpt lat="47.22922" lon="-1.59708">
        <ele>17.7</ele>
        <time>2012-01-19T09:41:30Z</time>
      </trkpt>
      <trkpt lat="47.22919" lon="-1.59705">
        <ele>17.2</ele>
        <time>2012-01-19T09:41:33Z</time>
      </trkpt>
      <trkpt lat="47.22915" lon="-1.59702">
        <ele>17.1</ele>
        <time>2012-01-19T09:41:36Z</time>
      </trkpt>
      <trkpt lat="47.22912" lon="-1.59699">
        <ele>17.1</ele>
        <time>2012-01-19T09:41:39Z</time>
      </trkpt>
      <trkpt lat="47.22908" lon="-1.59695">
        <ele>17</ele>
        <time>2012-01-19T09:41:42Z</time>
      </trkpt>
      <trkpt lat="47.22904" lon="-1.59692">
        <ele>16.7</ele>
        <time>2012-01-19T09:41:46Z</time>
      </trkpt>
      <trkpt lat="47.22901" lon="-1.5969">
        <ele>16.3</ele>
        <time>2012-01-19T09:41:49Z</time>
      </trkpt>
      <trkpt lat="47.22897" lon="-1.59687">
        <ele>16.2</ele>
        <time>2012-01-19T09:41:52Z</time>
      </trkpt>
      <trkpt lat="47.22893" lon="-1.59684">
        <ele>16.3</ele>
        <time>2012-01-19T09:41:55Z</time>
      </trkpt>
      <trkpt lat="47.2289" lon="-1.59681">
        <ele>17</ele>
        <time>2012-01-19T09:41:58Z</time>
      </trkpt>
      <trkpt lat="47.22889" lon="-1.5968">
        <ele>17.1</ele>
        <time>2012-01-19T09:41:59Z</time>
      </trkpt>
      <trkpt lat="47.22884" lon="-1.59674">
        <ele>17.2</ele>
        <time>2012-01-19T09:42:04Z</time>
      </trkpt>
      <trkpt lat="47.2288" lon="-1.59671">
        <ele>17.5</ele>
        <time>2012-01-19T09:42:07Z</time>
      </trkpt>
      <trkpt lat="47.22878" lon="-1.59668">
        <ele>17.5</ele>
        <time>2012-01-19T09:42:09Z</time>
      </trkpt>
      <trkpt lat="47.22874" lon="-1.59664">
        <ele>17.3</ele>
        <time>2012-01-19T09:42:12Z</time>
      </trkpt>
      <trkpt lat="47.2287" lon="-1.5966">
        <ele>17.3</ele>
        <time>2012-01-19T09:42:15Z</time>
      </trkpt>
      <trkpt lat="47.22867" lon="-1.59656">
        <ele>17.6</ele>
        <time>2012-01-19T09:42:18Z</time>
      </trkpt>
      <trkpt lat="47.22863" lon="-1.59652">
        <ele>17.7</ele>
        <time>2012-01-19T09:42:21Z</time>
      </trkpt>
      <trkpt lat="47.22861" lon="-1.59649">
        <ele>17.7</ele>
        <time>2012-01-19T09:42:23Z</time>
      </trkpt>
      <trkpt lat="47.22859" lon="-1.59645">
        <ele>17.7</ele>
        <time>2012-01-19T09:42:25Z</time>
      </trkpt>
      <trkpt lat="47.22856" lon="-1.5964">
        <ele>17.7</ele>
        <time>2012-01-19T09:42:28Z</time>
      </trkpt>
      <trkpt lat="47.22854" lon="-1.59635">
        <ele>17.6</ele>
        <time>2012-01-19T09:42:31Z</time>
      </trkpt>
      <trkpt lat="47.22851" lon="-1.5963">
        <ele>17.7</ele>
        <time>2012-01-19T09:42:34Z</time>
      </trkpt>
      <trkpt lat="47.22849" lon="-1.59626">
        <ele>17.7</ele>
        <time>2012-01-19T09:42:36Z</time>
      </trkpt>
      <trkpt lat="47.22847" lon="-1.59623">
        <ele>18.3</ele>
        <time>2012-01-19T09:42:38Z</time>
      </trkpt>
      <trkpt lat="47.22843" lon="-1.59619">
        <ele>18</ele>
        <time>2012-01-19T09:42:41Z</time>
      </trkpt>
      <trkpt lat="47.2284" lon="-1.59616">
        <ele>17.2</ele>
        <time>2012-01-19T09:42:44Z</time>
      </trkpt>
      <trkpt lat="47.22837" lon="-1.59612">
        <ele>17.7</ele>
        <time>2012-01-19T09:42:47Z</time>
      </trkpt>
      <trkpt lat="47.22833" lon="-1.59609">
        <ele>17.6</ele>
        <time>2012-01-19T09:42:50Z</time>
      </trkpt>
      <trkpt lat="47.22829" lon="-1.59606">
        <ele>17.3</ele>
        <time>2012-01-19T09:42:53Z</time>
      </trkpt>
      <trkpt lat="47.22825" lon="-1.59604">
        <ele>17.3</ele>
        <time>2012-01-19T09:42:56Z</time>
      </trkpt>
      <trkpt lat="47.22822" lon="-1.59603">
        <ele>17.2</ele>
        <time>2012-01-19T09:42:58Z</time>
      </trkpt>
      <trkpt lat="47.22818" lon="-1.59601">
        <ele>17.2</ele>
        <time>2012-01-19T09:43:01Z</time>
      </trkpt>
      <trkpt lat="47.22817" lon="-1.596">
        <ele>17.5</ele>
        <time>2012-01-19T09:43:02Z</time>
      </trkpt>
      <trkpt lat="47.22812" lon="-1.596">
        <ele>17.8</ele>
        <time>2012-01-19T09:43:05Z</time>
      </trkpt>
      <trkpt lat="47.22808" lon="-1.59599">
        <ele>17.8</ele>
        <time>2012-01-19T09:43:08Z</time>
      </trkpt>
      <trkpt lat="47.22805" lon="-1.59598">
        <ele>18.2</ele>
        <time>2012-01-19T09:43:11Z</time>
      </trkpt>
      <trkpt lat="47.228" lon="-1.59598">
        <ele>17.2</ele>
        <time>2012-01-19T09:43:14Z</time>
      </trkpt>
      <trkpt lat="47.22796" lon="-1.59599">
        <ele>16.8</ele>
        <time>2012-01-19T09:43:17Z</time>
      </trkpt>
      <trkpt lat="47.22792" lon="-1.59599">
        <ele>16.7</ele>
        <time>2012-01-19T09:43:20Z</time>
      </trkpt>
      <trkpt lat="47.22788" lon="-1.596">
        <ele>16.2</ele>
        <time>2012-01-19T09:43:23Z</time>
      </trkpt>
      <trkpt lat="47.22784" lon="-1.59601">
        <ele>16.6</ele>
        <time>2012-01-19T09:43:26Z</time>
      </trkpt>
      <trkpt lat="47.2278" lon="-1.59601">
        <ele>16.2</ele>
        <time>2012-01-19T09:43:29Z</time>
      </trkpt>
      <trkpt lat="47.22776" lon="-1.596">
        <ele>16.5</ele>
        <time>2012-01-19T09:43:32Z</time>
      </trkpt>
      <trkpt lat="47.22772" lon="-1.596">
        <ele>16.6</ele>
        <time>2012-01-19T09:43:36Z</time>
      </trkpt>
      <trkpt lat="47.22768" lon="-1.59601">
        <ele>16.6</ele>
        <time>2012-01-19T09:43:39Z</time>
      </trkpt>
      <trkpt lat="47.22765" lon="-1.59602">
        <ele>16.7</ele>
        <time>2012-01-19T09:43:42Z</time>
      </trkpt>
      <trkpt lat="47.22761" lon="-1.59605">
        <ele>16.7</ele>
        <time>2012-01-19T09:43:45Z</time>
      </trkpt>
      <trkpt lat="47.22758" lon="-1.59607">
        <ele>16.7</ele>
        <time>2012-01-19T09:43:48Z</time>
      </trkpt>
      <trkpt lat="47.22754" lon="-1.59608">
        <ele>16.8</ele>
        <time>2012-01-19T09:43:52Z</time>
      </trkpt>
      <trkpt lat="47.2275" lon="-1.59608">
        <ele>16.5</ele>
        <time>2012-01-19T09:43:56Z</time>
      </trkpt>
      <trkpt lat="47.22746" lon="-1.59609">
        <ele>17</ele>
        <time>2012-01-19T09:43:59Z</time>
      </trkpt>
      <trkpt lat="47.22743" lon="-1.59609">
        <ele>17.3</ele>
        <time>2012-01-19T09:44:03Z</time>
      </trkpt>
      <trkpt lat="47.22742" lon="-1.5961">
        <ele>17.5</ele>
        <time>2012-01-19T09:44:04Z</time>
      </trkpt>
      <trkpt lat="47.22735" lon="-1.59606">
        <ele>17</ele>
        <time>2012-01-19T09:44:13Z</time>
      </trkpt>
      <trkpt lat="47.22731" lon="-1.59604">
        <ele>16.7</ele>
        <time>2012-01-19T09:44:16Z</time>
      </trkpt>
      <trkpt lat="47.22727" lon="-1.59603">
        <ele>16.7</ele>
        <time>2012-01-19T09:44:19Z</time>
      </trkpt>
      <trkpt lat="47.22724" lon="-1.59603">
        <ele>16.7</ele>
        <time>2012-01-19T09:44:21Z</time>
      </trkpt>
      <trkpt lat="47.2272" lon="-1.59602">
        <ele>16.2</ele>
        <time>2012-01-19T09:44:24Z</time>
      </trkpt>
      <trkpt lat="47.22716" lon="-1.59601">
        <ele>16.5</ele>
        <time>2012-01-19T09:44:27Z</time>
      </trkpt>
      <trkpt lat="47.22712" lon="-1.596">
        <ele>16.7</ele>
        <time>2012-01-19T09:44:31Z</time>
      </trkpt>
      <trkpt lat="47.22708" lon="-1.59599">
        <ele>16.8</ele>
        <time>2012-01-19T09:44:34Z</time>
      </trkpt>
      <trkpt lat="47.22704" lon="-1.59599">
        <ele>17.2</ele>
        <time>2012-01-19T09:44:37Z</time>
      </trkpt>
      <trkpt lat="47.22701" lon="-1.59598">
        <ele>17.1</ele>
        <time>2012-01-19T09:44:39Z</time>
      </trkpt>
      <trkpt lat="47.22698" lon="-1.59598">
        <ele>17</ele>
        <time>2012-01-19T09:44:41Z</time>
      </trkpt>
      <trkpt lat="47.22694" lon="-1.59598">
        <ele>16.8</ele>
        <time>2012-01-19T09:44:43Z</time>
      </trkpt>
      <trkpt lat="47.22691" lon="-1.59598">
        <ele>16.7</ele>
        <time>2012-01-19T09:44:45Z</time>
      </trkpt>
      <trkpt lat="47.22688" lon="-1.59598">
        <ele>16.6</ele>
        <time>2012-01-19T09:44:47Z</time>
      </trkpt>
      <trkpt lat="47.22684" lon="-1.59598">
        <ele>16.7</ele>
        <time>2012-01-19T09:44:49Z</time>
      </trkpt>
      <trkpt lat="47.22681" lon="-1.59597">
        <ele>17</ele>
        <time>2012-01-19T09:44:51Z</time>
      </trkpt>
      <trkpt lat="47.22677" lon="-1.59596">
        <ele>17.2</ele>
        <time>2012-01-19T09:44:54Z</time>
      </trkpt>
      <trkpt lat="47.22673" lon="-1.59595">
        <ele>17.2</ele>
        <time>2012-01-19T09:44:57Z</time>
      </trkpt>
      <trkpt lat="47.22668" lon="-1.59595">
        <ele>17.2</ele>
        <time>2012-01-19T09:45:00Z</time>
      </trkpt>
      <trkpt lat="47.22664" lon="-1.59594">
        <ele>17</ele>
        <time>2012-01-19T09:45:03Z</time>
      </trkpt>
      <trkpt lat="47.22661" lon="-1.59593">
        <ele>16.7</ele>
        <time>2012-01-19T09:45:05Z</time>
      </trkpt>
      <trkpt lat="47.2266" lon="-1.59593">
        <ele>16.7</ele>
        <time>2012-01-19T09:45:06Z</time>
      </trkpt>
      <trkpt lat="47.22654" lon="-1.59587">
        <ele>17.3</ele>
        <time>2012-01-19T09:45:11Z</time>
      </trkpt>
      <trkpt lat="47.22652" lon="-1.59582">
        <ele>17.2</ele>
        <time>2012-01-19T09:45:15Z</time>
      </trkpt>
      <trkpt lat="47.22649" lon="-1.59577">
        <ele>17.1</ele>
        <time>2012-01-19T09:45:18Z</time>
      </trkpt>
      <trkpt lat="47.22647" lon="-1.59571">
        <ele>17.3</ele>
        <time>2012-01-19T09:45:21Z</time>
      </trkpt>
      <trkpt lat="47.22646" lon="-1.59567">
        <ele>17.3</ele>
        <time>2012-01-19T09:45:23Z</time>
      </trkpt>
      <trkpt lat="47.22645" lon="-1.59563">
        <ele>17.2</ele>
        <time>2012-01-19T09:45:25Z</time>
      </trkpt>
      <trkpt lat="47.22642" lon="-1.59557">
        <ele>16.2</ele>
        <time>2012-01-19T09:45:28Z</time>
      </trkpt>
      <trkpt lat="47.2264" lon="-1.59554">
        <ele>16.6</ele>
        <time>2012-01-19T09:45:30Z</time>
      </trkpt>
      <trkpt lat="47.22638" lon="-1.59551">
        <ele>16.7</ele>
        <time>2012-01-19T09:45:32Z</time>
      </trkpt>
      <trkpt lat="47.22635" lon="-1.59547">
        <ele>16.8</ele>
        <time>2012-01-19T09:45:35Z</time>
      </trkpt>
      <trkpt lat="47.22632" lon="-1.59543">
        <ele>17.2</ele>
        <time>2012-01-19T09:45:38Z</time>
      </trkpt>
      <trkpt lat="47.2263" lon="-1.59537">
        <ele>18</ele>
        <time>2012-01-19T09:45:41Z</time>
      </trkpt>
      <trkpt lat="47.22629" lon="-1.59531">
        <ele>17.7</ele>
        <time>2012-01-19T09:45:44Z</time>
      </trkpt>
      <trkpt lat="47.22629" lon="-1.59525">
        <ele>17</ele>
        <time>2012-01-19T09:45:47Z</time>
      </trkpt>
      <trkpt lat="47.22629" lon="-1.59519">
        <ele>16.7</ele>
        <time>2012-01-19T09:45:50Z</time>
      </trkpt>
      <trkpt lat="47.2263" lon="-1.59513">
        <ele>17</ele>
        <time>2012-01-19T09:45:53Z</time>
      </trkpt>
      <trkpt lat="47.2263" lon="-1.59507">
        <ele>17.3</ele>
        <time>2012-01-19T09:45:56Z</time>
      </trkpt>
      <trkpt lat="47.22631" lon="-1.59503">
        <ele>17.3</ele>
        <time>2012-01-19T09:45:58Z</time>
      </trkpt>
      <trkpt lat="47.22631" lon="-1.59498">
        <ele>17.1</ele>
        <time>2012-01-19T09:46:00Z</time>
      </trkpt>
      <trkpt lat="47.22632" lon="-1.59492">
        <ele>16.8</ele>
        <time>2012-01-19T09:46:03Z</time>
      </trkpt>
      <trkpt lat="47.22632" lon="-1.59487">
        <ele>16.6</ele>
        <time>2012-01-19T09:46:06Z</time>
      </trkpt>
      <trkpt lat="47.22632" lon="-1.59485">
        <ele>16.7</ele>
        <time>2012-01-19T09:46:07Z</time>
      </trkpt>
      <trkpt lat="47.22634" lon="-1.59475">
        <ele>16.7</ele>
        <time>2012-01-19T09:46:13Z</time>
      </trkpt>
      <trkpt lat="47.22635" lon="-1.59469">
        <ele>16.3</ele>
        <time>2012-01-19T09:46:17Z</time>
      </trkpt>
      <trkpt lat="47.22637" lon="-1.59463">
        <ele>16</ele>
        <time>2012-01-19T09:46:21Z</time>
      </trkpt>
      <trkpt lat="47.22638" lon="-1.59457">
        <ele>16</ele>
        <time>2012-01-19T09:46:25Z</time>
      </trkpt>
      <trkpt lat="47.2264" lon="-1.59452">
        <ele>16</ele>
        <time>2012-01-19T09:46:29Z</time>
      </trkpt>
      <trkpt lat="47.22641" lon="-1.59446">
        <ele>16.2</ele>
        <time>2012-01-19T09:46:32Z</time>
      </trkpt>
      <trkpt lat="47.22643" lon="-1.59442">
        <ele>16.3</ele>
        <time>2012-01-19T09:46:34Z</time>
      </trkpt>
      <trkpt lat="47.22644" lon="-1.59438">
        <ele>16.6</ele>
        <time>2012-01-19T09:46:36Z</time>
      </trkpt>
      <trkpt lat="47.22646" lon="-1.59433">
        <ele>16.7</ele>
        <time>2012-01-19T09:46:38Z</time>
      </trkpt>
      <trkpt lat="47.22647" lon="-1.59428">
        <ele>15.8</ele>
        <time>2012-01-19T09:46:40Z</time>
      </trkpt>
      <trkpt lat="47.22649" lon="-1.59424">
        <ele>15.8</ele>
        <time>2012-01-19T09:46:42Z</time>
      </trkpt>
      <trkpt lat="47.22651" lon="-1.59419">
        <ele>16.1</ele>
        <time>2012-01-19T09:46:44Z</time>
      </trkpt>
      <trkpt lat="47.22652" lon="-1.59415">
        <ele>16.2</ele>
        <time>2012-01-19T09:46:46Z</time>
      </trkpt>
      <trkpt lat="47.22653" lon="-1.59411">
        <ele>16.2</ele>
        <time>2012-01-19T09:46:48Z</time>
      </trkpt>
      <trkpt lat="47.22655" lon="-1.59406">
        <ele>16.1</ele>
        <time>2012-01-19T09:46:50Z</time>
      </trkpt>
      <trkpt lat="47.22656" lon="-1.59401">
        <ele>16.3</ele>
        <time>2012-01-19T09:46:52Z</time>
      </trkpt>
      <trkpt lat="47.22657" lon="-1.59396">
        <ele>16.7</ele>
        <time>2012-01-19T09:46:54Z</time>
      </trkpt>
      <trkpt lat="47.22658" lon="-1.59392">
        <ele>16.1</ele>
        <time>2012-01-19T09:46:56Z</time>
      </trkpt>
      <trkpt lat="47.2266" lon="-1.59388">
        <ele>15.8</ele>
        <time>2012-01-19T09:46:58Z</time>
      </trkpt>
      <trkpt lat="47.22661" lon="-1.59383">
        <ele>15.6</ele>
        <time>2012-01-19T09:47:00Z</time>
      </trkpt>
      <trkpt lat="47.22662" lon="-1.59378">
        <ele>15.8</ele>
        <time>2012-01-19T09:47:03Z</time>
      </trkpt>
      <trkpt lat="47.22664" lon="-1.59372">
        <ele>16.2</ele>
        <time>2012-01-19T09:47:06Z</time>
      </trkpt>
      <trkpt lat="47.22665" lon="-1.59367">
        <ele>15.8</ele>
        <time>2012-01-19T09:47:09Z</time>
      </trkpt>
      <trkpt lat="47.22665" lon="-1.59365">
        <ele>15.6</ele>
        <time>2012-01-19T09:47:10Z</time>
      </trkpt>
      <trkpt lat="47.22666" lon="-1.59355">
        <ele>16.2</ele>
        <time>2012-01-19T09:47:15Z</time>
      </trkpt>
      <trkpt lat="47.22667" lon="-1.5935">
        <ele>15.8</ele>
        <time>2012-01-19T09:47:18Z</time>
      </trkpt>
      <trkpt lat="47.22669" lon="-1.59346">
        <ele>15.6</ele>
        <time>2012-01-19T09:47:21Z</time>
      </trkpt>
      <trkpt lat="47.2267" lon="-1.5934">
        <ele>15.8</ele>
        <time>2012-01-19T09:47:24Z</time>
      </trkpt>
      <trkpt lat="47.22671" lon="-1.59336">
        <ele>16.1</ele>
        <time>2012-01-19T09:47:26Z</time>
      </trkpt>
      <trkpt lat="47.22672" lon="-1.5933">
        <ele>15.6</ele>
        <time>2012-01-19T09:47:29Z</time>
      </trkpt>
      <trkpt lat="47.22673" lon="-1.59324">
        <ele>16.1</ele>
        <time>2012-01-19T09:47:32Z</time>
      </trkpt>
      <trkpt lat="47.22675" lon="-1.59318">
        <ele>16.1</ele>
        <time>2012-01-19T09:47:35Z</time>
      </trkpt>
      <trkpt lat="47.22676" lon="-1.59312">
        <ele>15.8</ele>
        <time>2012-01-19T09:47:38Z</time>
      </trkpt>
      <trkpt lat="47.22677" lon="-1.59306">
        <ele>15.6</ele>
        <time>2012-01-19T09:47:41Z</time>
      </trkpt>
      <trkpt lat="47.22678" lon="-1.59302">
        <ele>15.6</ele>
        <time>2012-01-19T09:47:43Z</time>
      </trkpt>
      <trkpt lat="47.22679" lon="-1.59297">
        <ele>15.6</ele>
        <time>2012-01-19T09:47:45Z</time>
      </trkpt>
      <trkpt lat="47.22679" lon="-1.59292">
        <ele>15.3</ele>
        <time>2012-01-19T09:47:47Z</time>
      </trkpt>
      <trkpt lat="47.2268" lon="-1.59288">
        <ele>15.3</ele>
        <time>2012-01-19T09:47:49Z</time>
      </trkpt>
      <trkpt lat="47.2268" lon="-1.59283">
        <ele>15.5</ele>
        <time>2012-01-19T09:47:51Z</time>
      </trkpt>
      <trkpt lat="47.22681" lon="-1.59276">
        <ele>15.6</ele>
        <time>2012-01-19T09:47:54Z</time>
      </trkpt>
      <trkpt lat="47.22682" lon="-1.59272">
        <ele>15.6</ele>
        <time>2012-01-19T09:47:56Z</time>
      </trkpt>
      <trkpt lat="47.22682" lon="-1.59267">
        <ele>15.8</ele>
        <time>2012-01-19T09:47:58Z</time>
      </trkpt>
      <trkpt lat="47.22683" lon="-1.59263">
        <ele>16.1</ele>
        <time>2012-01-19T09:48:00Z</time>
      </trkpt>
      <trkpt lat="47.22684" lon="-1.59258">
        <ele>16.2</ele>
        <time>2012-01-19T09:48:02Z</time>
      </trkpt>
      <trkpt lat="47.22684" lon="-1.59252">
        <ele>16.2</ele>
        <time>2012-01-19T09:48:05Z</time>
      </trkpt>
      <trkpt lat="47.22686" lon="-1.59246">
        <ele>16.1</ele>
        <time>2012-01-19T09:48:08Z</time>
      </trkpt>
      <trkpt lat="47.22686" lon="-1.5924">
        <ele>15.1</ele>
        <time>2012-01-19T09:48:11Z</time>
      </trkpt>
      <trkpt lat="47.22686" lon="-1.59238">
        <ele>15</ele>
        <time>2012-01-19T09:48:12Z</time>
      </trkpt>
      <trkpt lat="47.22688" lon="-1.5923">
        <ele>15.5</ele>
        <time>2012-01-19T09:48:16Z</time>
      </trkpt>
      <trkpt lat="47.22688" lon="-1.59223">
        <ele>15.1</ele>
        <time>2012-01-19T09:48:19Z</time>
      </trkpt>
      <trkpt lat="47.22688" lon="-1.59217">
        <ele>15</ele>
        <time>2012-01-19T09:48:22Z</time>
      </trkpt>
      <trkpt lat="47.22689" lon="-1.59211">
        <ele>15.1</ele>
        <time>2012-01-19T09:48:25Z</time>
      </trkpt>
      <trkpt lat="47.2269" lon="-1.59206">
        <ele>15.8</ele>
        <time>2012-01-19T09:48:28Z</time>
      </trkpt>
      <trkpt lat="47.2269" lon="-1.592">
        <ele>16.1</ele>
        <time>2012-01-19T09:48:31Z</time>
      </trkpt>
      <trkpt lat="47.22691" lon="-1.59195">
        <ele>15.6</ele>
        <time>2012-01-19T09:48:34Z</time>
      </trkpt>
      <trkpt lat="47.22691" lon="-1.59189">
        <ele>15.8</ele>
        <time>2012-01-19T09:48:37Z</time>
      </trkpt>
      <trkpt lat="47.22691" lon="-1.59183">
        <ele>15.8</ele>
        <time>2012-01-19T09:48:40Z</time>
      </trkpt>
      <trkpt lat="47.22691" lon="-1.59178">
        <ele>16.2</ele>
        <time>2012-01-19T09:48:42Z</time>
      </trkpt>
      <trkpt lat="47.22691" lon="-1.59174">
        <ele>16.5</ele>
        <time>2012-01-19T09:48:44Z</time>
      </trkpt>
      <trkpt lat="47.2269" lon="-1.59169">
        <ele>16.7</ele>
        <time>2012-01-19T09:48:46Z</time>
      </trkpt>
      <trkpt lat="47.2269" lon="-1.59164">
        <ele>16.3</ele>
        <time>2012-01-19T09:48:48Z</time>
      </trkpt>
      <trkpt lat="47.22689" lon="-1.59159">
        <ele>16.2</ele>
        <time>2012-01-19T09:48:50Z</time>
      </trkpt>
      <trkpt lat="47.22689" lon="-1.59153">
        <ele>16</ele>
        <time>2012-01-19T09:48:52Z</time>
      </trkpt>
      <trkpt lat="47.22688" lon="-1.59148">
        <ele>16.1</ele>
        <time>2012-01-19T09:48:54Z</time>
      </trkpt>
      <trkpt lat="47.22688" lon="-1.59143">
        <ele>16.1</ele>
        <time>2012-01-19T09:48:56Z</time>
      </trkpt>
      <trkpt lat="47.22687" lon="-1.59139">
        <ele>16.1</ele>
        <time>2012-01-19T09:48:58Z</time>
      </trkpt>
      <trkpt lat="47.22685" lon="-1.59134">
        <ele>16</ele>
        <time>2012-01-19T09:49:00Z</time>
      </trkpt>
      <trkpt lat="47.22684" lon="-1.59128">
        <ele>16.1</ele>
        <time>2012-01-19T09:49:03Z</time>
      </trkpt>
      <trkpt lat="47.22682" lon="-1.59124">
        <ele>16.2</ele>
        <time>2012-01-19T09:49:05Z</time>
      </trkpt>
      <trkpt lat="47.22681" lon="-1.59118">
        <ele>16.2</ele>
        <time>2012-01-19T09:49:08Z</time>
      </trkpt>
      <trkpt lat="47.22679" lon="-1.59113">
        <ele>16.2</ele>
        <time>2012-01-19T09:49:11Z</time>
      </trkpt>
      <trkpt lat="47.22678" lon="-1.59107">
        <ele>16.7</ele>
        <time>2012-01-19T09:49:14Z</time>
      </trkpt>
      <trkpt lat="47.22677" lon="-1.59105">
        <ele>16.7</ele>
        <time>2012-01-19T09:49:15Z</time>
      </trkpt>
      <trkpt lat="47.22674" lon="-1.59098">
        <ele>16.5</ele>
        <time>2012-01-19T09:49:19Z</time>
      </trkpt>
      <trkpt lat="47.22672" lon="-1.59094">
        <ele>16.3</ele>
        <time>2012-01-19T09:49:21Z</time>
      </trkpt>
      <trkpt lat="47.22671" lon="-1.5909">
        <ele>16.8</ele>
        <time>2012-01-19T09:49:23Z</time>
      </trkpt>
      <trkpt lat="47.22669" lon="-1.59087">
        <ele>17</ele>
        <time>2012-01-19T09:49:25Z</time>
      </trkpt>
      <trkpt lat="47.22667" lon="-1.59083">
        <ele>16.7</ele>
        <time>2012-01-19T09:49:27Z</time>
      </trkpt>
      <trkpt lat="47.22665" lon="-1.59077">
        <ele>16.2</ele>
        <time>2012-01-19T09:49:30Z</time>
      </trkpt>
      <trkpt lat="47.22663" lon="-1.59073">
        <ele>16.2</ele>
        <time>2012-01-19T09:49:32Z</time>
      </trkpt>
      <trkpt lat="47.22662" lon="-1.59069">
        <ele>16.3</ele>
        <time>2012-01-19T09:49:34Z</time>
      </trkpt>
      <trkpt lat="47.2266" lon="-1.59065">
        <ele>16.5</ele>
        <time>2012-01-19T09:49:36Z</time>
      </trkpt>
      <trkpt lat="47.22657" lon="-1.59061">
        <ele>16.3</ele>
        <time>2012-01-19T09:49:38Z</time>
      </trkpt>
      <trkpt lat="47.22655" lon="-1.59058">
        <ele>16.2</ele>
        <time>2012-01-19T09:49:40Z</time>
      </trkpt>
      <trkpt lat="47.22652" lon="-1.59055">
        <ele>15.6</ele>
        <time>2012-01-19T09:49:42Z</time>
      </trkpt>
      <trkpt lat="47.2265" lon="-1.59052">
        <ele>15.3</ele>
        <time>2012-01-19T09:49:44Z</time>
      </trkpt>
      <trkpt lat="47.22646" lon="-1.5905">
        <ele>15.1</ele>
        <time>2012-01-19T09:49:46Z</time>
      </trkpt>
      <trkpt lat="47.22643" lon="-1.59048">
        <ele>14.8</ele>
        <time>2012-01-19T09:49:48Z</time>
      </trkpt>
      <trkpt lat="47.22639" lon="-1.59045">
        <ele>14.8</ele>
        <time>2012-01-19T09:49:51Z</time>
      </trkpt>
      <trkpt lat="47.22635" lon="-1.59042">
        <ele>15.1</ele>
        <time>2012-01-19T09:49:54Z</time>
      </trkpt>
      <trkpt lat="47.22631" lon="-1.5904">
        <ele>15.5</ele>
        <time>2012-01-19T09:49:57Z</time>
      </trkpt>
      <trkpt lat="47.22628" lon="-1.59038">
        <ele>15.3</ele>
        <time>2012-01-19T09:50:00Z</time>
      </trkpt>
      <trkpt lat="47.22624" lon="-1.59036">
        <ele>15.3</ele>
        <time>2012-01-19T09:50:03Z</time>
      </trkpt>
      <trkpt lat="47.2262" lon="-1.59034">
        <ele>15.6</ele>
        <time>2012-01-19T09:50:06Z</time>
      </trkpt>
      <trkpt lat="47.22617" lon="-1.59031">
        <ele>15.8</ele>
        <time>2012-01-19T09:50:09Z</time>
      </trkpt>
      <trkpt lat="47.22613" lon="-1.59029">
        <ele>15.8</ele>
        <time>2012-01-19T09:50:12Z</time>
      </trkpt>
      <trkpt lat="47.2261" lon="-1.59027">
        <ele>15.6</ele>
        <time>2012-01-19T09:50:14Z</time>
      </trkpt>
      <trkpt lat="47.22607" lon="-1.59025">
        <ele>15.6</ele>
        <time>2012-01-19T09:50:16Z</time>
      </trkpt>
      <trkpt lat="47.22605" lon="-1.59025">
        <ele>15.6</ele>
        <time>2012-01-19T09:50:17Z</time>
      </trkpt>
      <trkpt lat="47.22599" lon="-1.59023">
        <ele>15.5</ele>
        <time>2012-01-19T09:50:22Z</time>
      </trkpt>
      <trkpt lat="47.22595" lon="-1.59022">
        <ele>15.3</ele>
        <time>2012-01-19T09:50:26Z</time>
      </trkpt>
      <trkpt lat="47.22591" lon="-1.59021">
        <ele>15.8</ele>
        <time>2012-01-19T09:50:29Z</time>
      </trkpt>
      <trkpt lat="47.22588" lon="-1.59021">
        <ele>15.8</ele>
        <time>2012-01-19T09:50:31Z</time>
      </trkpt>
      <trkpt lat="47.22585" lon="-1.5902">
        <ele>15.8</ele>
        <time>2012-01-19T09:50:33Z</time>
      </trkpt>
      <trkpt lat="47.22582" lon="-1.59019">
        <ele>15.8</ele>
        <time>2012-01-19T09:50:35Z</time>
      </trkpt>
      <trkpt lat="47.22579" lon="-1.59018">
        <ele>15.6</ele>
        <time>2012-01-19T09:50:37Z</time>
      </trkpt>
      <trkpt lat="47.22575" lon="-1.59016">
        <ele>15.8</ele>
        <time>2012-01-19T09:50:40Z</time>
      </trkpt>
      <trkpt lat="47.22571" lon="-1.59012">
        <ele>15.5</ele>
        <time>2012-01-19T09:50:43Z</time>
      </trkpt>
      <trkpt lat="47.22568" lon="-1.59008">
        <ele>16</ele>
        <time>2012-01-19T09:50:48Z</time>
      </trkpt>
      <trkpt lat="47.22566" lon="-1.59004">
        <ele>16</ele>
        <time>2012-01-19T09:50:52Z</time>
      </trkpt>
      <trkpt lat="47.22563" lon="-1.59">
        <ele>15.6</ele>
        <time>2012-01-19T09:50:55Z</time>
      </trkpt>
      <trkpt lat="47.22561" lon="-1.58994">
        <ele>15.5</ele>
        <time>2012-01-19T09:50:58Z</time>
      </trkpt>
      <trkpt lat="47.22558" lon="-1.5899">
        <ele>15.5</ele>
        <time>2012-01-19T09:51:01Z</time>
      </trkpt>
      <trkpt lat="47.22556" lon="-1.58986">
        <ele>15.6</ele>
        <time>2012-01-19T09:51:03Z</time>
      </trkpt>
      <trkpt lat="47.22554" lon="-1.58982">
        <ele>15.5</ele>
        <time>2012-01-19T09:51:05Z</time>
      </trkpt>
      <trkpt lat="47.22552" lon="-1.58978">
        <ele>15.5</ele>
        <time>2012-01-19T09:51:07Z</time>
      </trkpt>
      <trkpt lat="47.2255" lon="-1.58974">
        <ele>15.6</ele>
        <time>2012-01-19T09:51:09Z</time>
      </trkpt>
      <trkpt lat="47.22549" lon="-1.5897">
        <ele>15.6</ele>
        <time>2012-01-19T09:51:11Z</time>
      </trkpt>
      <trkpt lat="47.22547" lon="-1.58966">
        <ele>15.6</ele>
        <time>2012-01-19T09:51:13Z</time>
      </trkpt>
      <trkpt lat="47.22546" lon="-1.58961">
        <ele>15.5</ele>
        <time>2012-01-19T09:51:15Z</time>
      </trkpt>
      <trkpt lat="47.22544" lon="-1.58955">
        <ele>14.8</ele>
        <time>2012-01-19T09:51:18Z</time>
      </trkpt>
      <trkpt lat="47.22544" lon="-1.58953">
        <ele>14.6</ele>
        <time>2012-01-19T09:51:19Z</time>
      </trkpt>
      <trkpt lat="47.22542" lon="-1.58945">
        <ele>14.3</ele>
        <time>2012-01-19T09:51:23Z</time>
      </trkpt>
      <trkpt lat="47.22541" lon="-1.58941">
        <ele>14.3</ele>
        <time>2012-01-19T09:51:25Z</time>
      </trkpt>
      <trkpt lat="47.2254" lon="-1.58937">
        <ele>14.6</ele>
        <time>2012-01-19T09:51:27Z</time>
      </trkpt>
      <trkpt lat="47.22538" lon="-1.58931">
        <ele>14.8</ele>
        <time>2012-01-19T09:51:30Z</time>
      </trkpt>
      <trkpt lat="47.22536" lon="-1.58926">
        <ele>14.6</ele>
        <time>2012-01-19T09:51:33Z</time>
      </trkpt>
      <trkpt lat="47.22535" lon="-1.5892">
        <ele>14.3</ele>
        <time>2012-01-19T09:51:36Z</time>
      </trkpt>
      <trkpt lat="47.22534" lon="-1.58914">
        <ele>14.6</ele>
        <time>2012-01-19T09:51:39Z</time>
      </trkpt>
      <trkpt lat="47.22532" lon="-1.5891">
        <ele>14.8</ele>
        <time>2012-01-19T09:51:41Z</time>
      </trkpt>
      <trkpt lat="47.2253" lon="-1.58905">
        <ele>14.8</ele>
        <time>2012-01-19T09:51:44Z</time>
      </trkpt>
      <trkpt lat="47.22528" lon="-1.58899">
        <ele>14.8</ele>
        <time>2012-01-19T09:51:47Z</time>
      </trkpt>
      <trkpt lat="47.22527" lon="-1.58894">
        <ele>14.5</ele>
        <time>2012-01-19T09:51:49Z</time>
      </trkpt>
      <trkpt lat="47.22525" lon="-1.58889">
        <ele>14</ele>
        <time>2012-01-19T09:51:52Z</time>
      </trkpt>
      <trkpt lat="47.22523" lon="-1.58883">
        <ele>13.8</ele>
        <time>2012-01-19T09:51:55Z</time>
      </trkpt>
      <trkpt lat="47.22522" lon="-1.58877">
        <ele>13.6</ele>
        <time>2012-01-19T09:51:58Z</time>
      </trkpt>
      <trkpt lat="47.22521" lon="-1.58871">
        <ele>13.8</ele>
        <time>2012-01-19T09:52:01Z</time>
      </trkpt>
      <trkpt lat="47.2252" lon="-1.58865">
        <ele>14.3</ele>
        <time>2012-01-19T09:52:04Z</time>
      </trkpt>
      <trkpt lat="47.22518" lon="-1.58859">
        <ele>14.6</ele>
        <time>2012-01-19T09:52:07Z</time>
      </trkpt>
      <trkpt lat="47.22518" lon="-1.58855">
        <ele>14.6</ele>
        <time>2012-01-19T09:52:09Z</time>
      </trkpt>
      <trkpt lat="47.22517" lon="-1.58849">
        <ele>14.6</ele>
        <time>2012-01-19T09:52:12Z</time>
      </trkpt>
      <trkpt lat="47.22516" lon="-1.58843">
        <ele>14.6</ele>
        <time>2012-01-19T09:52:15Z</time>
      </trkpt>
      <trkpt lat="47.22516" lon="-1.58837">
        <ele>14.5</ele>
        <time>2012-01-19T09:52:18Z</time>
      </trkpt>
      <trkpt lat="47.22516" lon="-1.58831">
        <ele>14.5</ele>
        <time>2012-01-19T09:52:21Z</time>
      </trkpt>
      <trkpt lat="47.22516" lon="-1.58829">
        <ele>14.6</ele>
        <time>2012-01-19T09:52:22Z</time>
      </trkpt>
      <trkpt lat="47.22517" lon="-1.58819">
        <ele>15.1</ele>
        <time>2012-01-19T09:52:27Z</time>
      </trkpt>
      <trkpt lat="47.22517" lon="-1.58813">
        <ele>15.3</ele>
        <time>2012-01-19T09:52:30Z</time>
      </trkpt>
      <trkpt lat="47.22519" lon="-1.58807">
        <ele>15.6</ele>
        <time>2012-01-19T09:52:33Z</time>
      </trkpt>
      <trkpt lat="47.2252" lon="-1.58801">
        <ele>15.5</ele>
        <time>2012-01-19T09:52:36Z</time>
      </trkpt>
      <trkpt lat="47.2252" lon="-1.58797">
        <ele>16.1</ele>
        <time>2012-01-19T09:52:38Z</time>
      </trkpt>
      <trkpt lat="47.2252" lon="-1.5879">
        <ele>16.6</ele>
        <time>2012-01-19T09:52:41Z</time>
      </trkpt>
      <trkpt lat="47.2252" lon="-1.58786">
        <ele>16.5</ele>
        <time>2012-01-19T09:52:43Z</time>
      </trkpt>
      <trkpt lat="47.2252" lon="-1.58781">
        <ele>16.2</ele>
        <time>2012-01-19T09:52:45Z</time>
      </trkpt>
      <trkpt lat="47.22521" lon="-1.58775">
        <ele>15.5</ele>
        <time>2012-01-19T09:52:48Z</time>
      </trkpt>
      <trkpt lat="47.22522" lon="-1.58769">
        <ele>15.1</ele>
        <time>2012-01-19T09:52:51Z</time>
      </trkpt>
      <trkpt lat="47.22523" lon="-1.58763">
        <ele>14.6</ele>
        <time>2012-01-19T09:52:54Z</time>
      </trkpt>
      <trkpt lat="47.22524" lon="-1.58757">
        <ele>15.1</ele>
        <time>2012-01-19T09:52:57Z</time>
      </trkpt>
      <trkpt lat="47.22526" lon="-1.58752">
        <ele>14.8</ele>
        <time>2012-01-19T09:53:00Z</time>
      </trkpt>
      <trkpt lat="47.22525" lon="-1.58745">
        <ele>14.3</ele>
        <time>2012-01-19T09:53:04Z</time>
      </trkpt>
      <trkpt lat="47.22524" lon="-1.58741">
        <ele>14.3</ele>
        <time>2012-01-19T09:53:07Z</time>
      </trkpt>
      <trkpt lat="47.22522" lon="-1.58736">
        <ele>14</ele>
        <time>2012-01-19T09:53:09Z</time>
      </trkpt>
      <trkpt lat="47.22521" lon="-1.58732">
        <ele>13.6</ele>
        <time>2012-01-19T09:53:11Z</time>
      </trkpt>
      <trkpt lat="47.22519" lon="-1.58729">
        <ele>13.8</ele>
        <time>2012-01-19T09:53:13Z</time>
      </trkpt>
      <trkpt lat="47.22515" lon="-1.58725">
        <ele>14.3</ele>
        <time>2012-01-19T09:53:16Z</time>
      </trkpt>
      <trkpt lat="47.22512" lon="-1.58722">
        <ele>13.8</ele>
        <time>2012-01-19T09:53:19Z</time>
      </trkpt>
      <trkpt lat="47.22508" lon="-1.5872">
        <ele>13.6</ele>
        <time>2012-01-19T09:53:23Z</time>
      </trkpt>
      <trkpt lat="47.22507" lon="-1.5872">
        <ele>13.6</ele>
        <time>2012-01-19T09:53:24Z</time>
      </trkpt>
      <trkpt lat="47.225" lon="-1.58719">
        <ele>14.1</ele>
        <time>2012-01-19T09:53:30Z</time>
      </trkpt>
      <trkpt lat="47.22497" lon="-1.58718">
        <ele>14.5</ele>
        <time>2012-01-19T09:53:33Z</time>
      </trkpt>
      <trkpt lat="47.22493" lon="-1.58717">
        <ele>14.3</ele>
        <time>2012-01-19T09:53:36Z</time>
      </trkpt>
      <trkpt lat="47.22489" lon="-1.58715">
        <ele>14.3</ele>
        <time>2012-01-19T09:53:39Z</time>
      </trkpt>
      <trkpt lat="47.22486" lon="-1.58715">
        <ele>14.1</ele>
        <time>2012-01-19T09:53:41Z</time>
      </trkpt>
      <trkpt lat="47.22483" lon="-1.58714">
        <ele>13.8</ele>
        <time>2012-01-19T09:53:43Z</time>
      </trkpt>
      <trkpt lat="47.2248" lon="-1.58713">
        <ele>13.6</ele>
        <time>2012-01-19T09:53:45Z</time>
      </trkpt>
      <trkpt lat="47.22476" lon="-1.58713">
        <ele>13.8</ele>
        <time>2012-01-19T09:53:47Z</time>
      </trkpt>
      <trkpt lat="47.22473" lon="-1.58714">
        <ele>14.3</ele>
        <time>2012-01-19T09:53:49Z</time>
      </trkpt>
      <trkpt lat="47.2247" lon="-1.58714">
        <ele>13.8</ele>
        <time>2012-01-19T09:53:51Z</time>
      </trkpt>
      <trkpt lat="47.22466" lon="-1.58713">
        <ele>14</ele>
        <time>2012-01-19T09:53:53Z</time>
      </trkpt>
      <trkpt lat="47.22462" lon="-1.58713">
        <ele>14.1</ele>
        <time>2012-01-19T09:53:56Z</time>
      </trkpt>
      <trkpt lat="47.22459" lon="-1.58712">
        <ele>14.1</ele>
        <time>2012-01-19T09:53:58Z</time>
      </trkpt>
      <trkpt lat="47.22456" lon="-1.58711">
        <ele>14.3</ele>
        <time>2012-01-19T09:54:00Z</time>
      </trkpt>
      <trkpt lat="47.22452" lon="-1.5871">
        <ele>14.6</ele>
        <time>2012-01-19T09:54:03Z</time>
      </trkpt>
      <trkpt lat="47.22447" lon="-1.58709">
        <ele>14.5</ele>
        <time>2012-01-19T09:54:06Z</time>
      </trkpt>
      <trkpt lat="47.22443" lon="-1.58708">
        <ele>14</ele>
        <time>2012-01-19T09:54:09Z</time>
      </trkpt>
      <trkpt lat="47.2244" lon="-1.58707">
        <ele>14.1</ele>
        <time>2012-01-19T09:54:12Z</time>
      </trkpt>
      <trkpt lat="47.22436" lon="-1.58706">
        <ele>14.6</ele>
        <time>2012-01-19T09:54:14Z</time>
      </trkpt>
      <trkpt lat="47.22433" lon="-1.58705">
        <ele>14.6</ele>
        <time>2012-01-19T09:54:17Z</time>
      </trkpt>
      <trkpt lat="47.22429" lon="-1.58704">
        <ele>14.8</ele>
        <time>2012-01-19T09:54:20Z</time>
      </trkpt>
      <trkpt lat="47.22425" lon="-1.58703">
        <ele>14.1</ele>
        <time>2012-01-19T09:54:23Z</time>
      </trkpt>
      <trkpt lat="47.22421" lon="-1.58702">
        <ele>14.6</ele>
        <time>2012-01-19T09:54:26Z</time>
      </trkpt>
      <trkpt lat="47.22419" lon="-1.58701">
        <ele>15</ele>
        <time>2012-01-19T09:54:27Z</time>
      </trkpt>
      <trkpt lat="47.22413" lon="-1.58699">
        <ele>15</ele>
        <time>2012-01-19T09:54:31Z</time>
      </trkpt>
      <trkpt lat="47.2241" lon="-1.58696">
        <ele>14.8</ele>
        <time>2012-01-19T09:54:34Z</time>
      </trkpt>
      <trkpt lat="47.22406" lon="-1.58693">
        <ele>15</ele>
        <time>2012-01-19T09:54:37Z</time>
      </trkpt>
      <trkpt lat="47.22403" lon="-1.58692">
        <ele>14.8</ele>
        <time>2012-01-19T09:54:40Z</time>
      </trkpt>
      <trkpt lat="47.224" lon="-1.58691">
        <ele>15</ele>
        <time>2012-01-19T09:54:43Z</time>
      </trkpt>
      <trkpt lat="47.22396" lon="-1.58689">
        <ele>14.8</ele>
        <time>2012-01-19T09:54:46Z</time>
      </trkpt>
      <trkpt lat="47.22393" lon="-1.58687">
        <ele>14.6</ele>
        <time>2012-01-19T09:54:49Z</time>
      </trkpt>
      <trkpt lat="47.2239" lon="-1.58684">
        <ele>15.5</ele>
        <time>2012-01-19T09:54:52Z</time>
      </trkpt>
      <trkpt lat="47.22387" lon="-1.58681">
        <ele>15.1</ele>
        <time>2012-01-19T09:54:55Z</time>
      </trkpt>
      <trkpt lat="47.22384" lon="-1.58678">
        <ele>15.5</ele>
        <time>2012-01-19T09:54:57Z</time>
      </trkpt>
      <trkpt lat="47.22382" lon="-1.58675">
        <ele>16.1</ele>
        <time>2012-01-19T09:54:59Z</time>
      </trkpt>
      <trkpt lat="47.22379" lon="-1.58671">
        <ele>15.6</ele>
        <time>2012-01-19T09:55:02Z</time>
      </trkpt>
      <trkpt lat="47.22376" lon="-1.58668">
        <ele>16</ele>
        <time>2012-01-19T09:55:05Z</time>
      </trkpt>
      <trkpt lat="47.22373" lon="-1.58663">
        <ele>16.8</ele>
        <time>2012-01-19T09:55:08Z</time>
      </trkpt>
      <trkpt lat="47.22371" lon="-1.5866">
        <ele>16.6</ele>
        <time>2012-01-19T09:55:10Z</time>
      </trkpt>
      <trkpt lat="47.22369" lon="-1.58656">
        <ele>16</ele>
        <time>2012-01-19T09:55:12Z</time>
      </trkpt>
      <trkpt lat="47.22367" lon="-1.58651">
        <ele>15.6</ele>
        <time>2012-01-19T09:55:15Z</time>
      </trkpt>
      <trkpt lat="47.22365" lon="-1.58648">
        <ele>15.8</ele>
        <time>2012-01-19T09:55:17Z</time>
      </trkpt>
      <trkpt lat="47.22362" lon="-1.58644">
        <ele>15.6</ele>
        <time>2012-01-19T09:55:19Z</time>
      </trkpt>
      <trkpt lat="47.2236" lon="-1.5864">
        <ele>15.1</ele>
        <time>2012-01-19T09:55:22Z</time>
      </trkpt>
      <trkpt lat="47.22358" lon="-1.58635">
        <ele>14.6</ele>
        <time>2012-01-19T09:55:25Z</time>
      </trkpt>
      <trkpt lat="47.22356" lon="-1.58629">
        <ele>14.1</ele>
        <time>2012-01-19T09:55:28Z</time>
      </trkpt>
      <trkpt lat="47.22356" lon="-1.58627">
        <ele>14.3</ele>
        <time>2012-01-19T09:55:29Z</time>
      </trkpt>
      <trkpt lat="47.22353" lon="-1.58619">
        <ele>14.3</ele>
        <time>2012-01-19T09:55:33Z</time>
      </trkpt>
      <trkpt lat="47.22351" lon="-1.58616">
        <ele>14.1</ele>
        <time>2012-01-19T09:55:35Z</time>
      </trkpt>
      <trkpt lat="47.22349" lon="-1.58611">
        <ele>14</ele>
        <time>2012-01-19T09:55:38Z</time>
      </trkpt>
      <trkpt lat="47.22347" lon="-1.58607">
        <ele>14.1</ele>
        <time>2012-01-19T09:55:40Z</time>
      </trkpt>
      <trkpt lat="47.22345" lon="-1.58602">
        <ele>14.3</ele>
        <time>2012-01-19T09:55:42Z</time>
      </trkpt>
      <trkpt lat="47.22344" lon="-1.58598">
        <ele>14.6</ele>
        <time>2012-01-19T09:55:44Z</time>
      </trkpt>
      <trkpt lat="47.22342" lon="-1.58594">
        <ele>14.3</ele>
        <time>2012-01-19T09:55:46Z</time>
      </trkpt>
      <trkpt lat="47.2234" lon="-1.5859">
        <ele>14.1</ele>
        <time>2012-01-19T09:55:48Z</time>
      </trkpt>
      <trkpt lat="47.22337" lon="-1.58585">
        <ele>14</ele>
        <time>2012-01-19T09:55:51Z</time>
      </trkpt>
      <trkpt lat="47.22334" lon="-1.58581">
        <ele>14.1</ele>
        <time>2012-01-19T09:55:54Z</time>
      </trkpt>
      <trkpt lat="47.22332" lon="-1.58576">
        <ele>13.6</ele>
        <time>2012-01-19T09:55:57Z</time>
      </trkpt>
      <trkpt lat="47.2233" lon="-1.58571">
        <ele>14.1</ele>
        <time>2012-01-19T09:56:00Z</time>
      </trkpt>
      <trkpt lat="47.22328" lon="-1.58566">
        <ele>15</ele>
        <time>2012-01-19T09:56:03Z</time>
      </trkpt>
      <trkpt lat="47.22326" lon="-1.5856">
        <ele>14.8</ele>
        <time>2012-01-19T09:56:06Z</time>
      </trkpt>
      <trkpt lat="47.22325" lon="-1.58555">
        <ele>14.6</ele>
        <time>2012-01-19T09:56:09Z</time>
      </trkpt>
      <trkpt lat="47.22324" lon="-1.58548">
        <ele>13.6</ele>
        <time>2012-01-19T09:56:12Z</time>
      </trkpt>
      <trkpt lat="47.22323" lon="-1.58544">
        <ele>13.8</ele>
        <time>2012-01-19T09:56:14Z</time>
      </trkpt>
      <trkpt lat="47.22323" lon="-1.58537">
        <ele>13.8</ele>
        <time>2012-01-19T09:56:17Z</time>
      </trkpt>
      <trkpt lat="47.22322" lon="-1.58533">
        <ele>13.6</ele>
        <time>2012-01-19T09:56:19Z</time>
      </trkpt>
      <trkpt lat="47.2232" lon="-1.58528">
        <ele>14.1</ele>
        <time>2012-01-19T09:56:22Z</time>
      </trkpt>
      <trkpt lat="47.22318" lon="-1.58522">
        <ele>14.3</ele>
        <time>2012-01-19T09:56:26Z</time>
      </trkpt>
      <trkpt lat="47.22316" lon="-1.58517">
        <ele>14.3</ele>
        <time>2012-01-19T09:56:30Z</time>
      </trkpt>
      <trkpt lat="47.22316" lon="-1.58515">
        <ele>13.8</ele>
        <time>2012-01-19T09:56:31Z</time>
      </trkpt>
      <trkpt lat="47.22313" lon="-1.58506">
        <ele>13</ele>
        <time>2012-01-19T09:56:37Z</time>
      </trkpt>
      <trkpt lat="47.22314" lon="-1.58502">
        <ele>13.3</ele>
        <time>2012-01-19T09:56:40Z</time>
      </trkpt>
      <trkpt lat="47.22315" lon="-1.58497">
        <ele>13.3</ele>
        <time>2012-01-19T09:56:42Z</time>
      </trkpt>
      <trkpt lat="47.22317" lon="-1.58493">
        <ele>13.3</ele>
        <time>2012-01-19T09:56:44Z</time>
      </trkpt>
      <trkpt lat="47.22319" lon="-1.58488">
        <ele>13</ele>
        <time>2012-01-19T09:56:47Z</time>
      </trkpt>
      <trkpt lat="47.2232" lon="-1.58481">
        <ele>13.5</ele>
        <time>2012-01-19T09:56:52Z</time>
      </trkpt>
      <trkpt lat="47.2232" lon="-1.58475">
        <ele>13.8</ele>
        <time>2012-01-19T09:57:02Z</time>
      </trkpt>
      <trkpt lat="47.22319" lon="-1.58468">
        <ele>14.1</ele>
        <time>2012-01-19T09:57:13Z</time>
      </trkpt>
      <trkpt lat="47.22318" lon="-1.58462">
        <ele>13.8</ele>
        <time>2012-01-19T09:57:21Z</time>
      </trkpt>
      <trkpt lat="47.22317" lon="-1.58456">
        <ele>13.6</ele>
        <time>2012-01-19T09:58:02Z</time>
      </trkpt>
      <trkpt lat="47.22317" lon="-1.58456">
        <ele>13.8</ele>
        <time>2012-01-19T09:58:03Z</time>
      </trkpt>
      <trkpt lat="47.2232" lon="-1.58462">
        <ele>13.8</ele>
        <time>2012-01-19T09:59:05Z</time>
      </trkpt>
      <trkpt lat="47.2232" lon="-1.58466">
        <ele>13.5</ele>
        <time>2012-01-19T10:01:10Z</time>
      </trkpt>
      <trkpt lat="47.22319" lon="-1.58466">
        <ele>13.3</ele>
        <time>2012-01-19T10:01:11Z</time>
      </trkpt>
      <trkpt lat="47.22317" lon="-1.58468">
        <ele>14.6</ele>
        <time>2012-01-19T10:02:29Z</time>
      </trkpt>
      <trkpt lat="47.22317" lon="-1.58468">
        <ele>14.6</ele>
        <time>2012-01-19T10:02:30Z</time>
      </trkpt>
      <trkpt lat="47.22318" lon="-1.58457">
        <ele>13.6</ele>
        <time>2012-01-19T10:03:02Z</time>
      </trkpt>
      <trkpt lat="47.22321" lon="-1.58461">
        <ele>13.6</ele>
        <time>2012-01-19T10:03:59Z</time>
      </trkpt>
      <trkpt lat="47.22321" lon="-1.58461">
        <ele>13.8</ele>
        <time>2012-01-19T10:04:00Z</time>
      </trkpt>
      <trkpt lat="47.22321" lon="-1.58466">
        <ele>14.1</ele>
        <time>2012-01-19T10:04:38Z</time>
      </trkpt>
      <trkpt lat="47.22318" lon="-1.58469">
        <ele>14.3</ele>
        <time>2012-01-19T10:04:41Z</time>
      </trkpt>
      <trkpt lat="47.22315" lon="-1.58473">
        <ele>14.3</ele>
        <time>2012-01-19T10:04:44Z</time>
      </trkpt>
      <trkpt lat="47.22312" lon="-1.58476">
        <ele>14.6</ele>
        <time>2012-01-19T10:04:47Z</time>
      </trkpt>
      <trkpt lat="47.22311" lon="-1.58483">
        <ele>14.3</ele>
        <time>2012-01-19T10:04:53Z</time>
      </trkpt>
      <trkpt lat="47.22311" lon="-1.58489">
        <ele>14.3</ele>
        <time>2012-01-19T10:04:58Z</time>
      </trkpt>
      <trkpt lat="47.22314" lon="-1.58494">
        <ele>14</ele>
        <time>2012-01-19T10:05:04Z</time>
      </trkpt>
      <trkpt lat="47.22315" lon="-1.58494">
        <ele>14.1</ele>
        <time>2012-01-19T10:05:05Z</time>
      </trkpt>
      <trkpt lat="47.22322" lon="-1.58493">
        <ele>14.8</ele>
        <time>2012-01-19T10:05:12Z</time>
      </trkpt>
      <trkpt lat="47.22325" lon="-1.58492">
        <ele>15</ele>
        <time>2012-01-19T10:05:15Z</time>
      </trkpt>
      <trkpt lat="47.22329" lon="-1.58491">
        <ele>15.6</ele>
        <time>2012-01-19T10:05:18Z</time>
      </trkpt>
      <trkpt lat="47.22333" lon="-1.5849">
        <ele>15.8</ele>
        <time>2012-01-19T10:05:21Z</time>
      </trkpt>
      <trkpt lat="47.22336" lon="-1.58489">
        <ele>15.8</ele>
        <time>2012-01-19T10:05:24Z</time>
      </trkpt>
      <trkpt lat="47.2234" lon="-1.58487">
        <ele>15.1</ele>
        <time>2012-01-19T10:05:27Z</time>
      </trkpt>
      <trkpt lat="47.22344" lon="-1.58486">
        <ele>14.8</ele>
        <time>2012-01-19T10:05:31Z</time>
      </trkpt>
      <trkpt lat="47.22348" lon="-1.58485">
        <ele>15.6</ele>
        <time>2012-01-19T10:05:34Z</time>
      </trkpt>
      <trkpt lat="47.22352" lon="-1.58483">
        <ele>14.8</ele>
        <time>2012-01-19T10:05:37Z</time>
      </trkpt>
      <trkpt lat="47.22356" lon="-1.58483">
        <ele>14.8</ele>
        <time>2012-01-19T10:05:40Z</time>
      </trkpt>
      <trkpt lat="47.2236" lon="-1.58483">
        <ele>14.8</ele>
        <time>2012-01-19T10:05:43Z</time>
      </trkpt>
      <trkpt lat="47.22363" lon="-1.58484">
        <ele>14.8</ele>
        <time>2012-01-19T10:05:45Z</time>
      </trkpt>
      <trkpt lat="47.22367" lon="-1.58485">
        <ele>15</ele>
        <time>2012-01-19T10:05:48Z</time>
      </trkpt>
      <trkpt lat="47.2237" lon="-1.58488">
        <ele>15.1</ele>
        <time>2012-01-19T10:05:51Z</time>
      </trkpt>
      <trkpt lat="47.22373" lon="-1.5849">
        <ele>15.3</ele>
        <time>2012-01-19T10:05:54Z</time>
      </trkpt>
      <trkpt lat="47.22377" lon="-1.58494">
        <ele>15.1</ele>
        <time>2012-01-19T10:05:57Z</time>
      </trkpt>
      <trkpt lat="47.2238" lon="-1.58497">
        <ele>14.5</ele>
        <time>2012-01-19T10:06:00Z</time>
      </trkpt>
      <trkpt lat="47.22383" lon="-1.58501">
        <ele>14.8</ele>
        <time>2012-01-19T10:06:03Z</time>
      </trkpt>
      <trkpt lat="47.22386" lon="-1.58504">
        <ele>15.3</ele>
        <time>2012-01-19T10:06:06Z</time>
      </trkpt>
      <trkpt lat="47.22387" lon="-1.58505">
        <ele>15.3</ele>
        <time>2012-01-19T10:06:07Z</time>
      </trkpt>
      <trkpt lat="47.22392" lon="-1.58511">
        <ele>16.1</ele>
        <time>2012-01-19T10:06:12Z</time>
      </trkpt>
      <trkpt lat="47.22396" lon="-1.58514">
        <ele>16</ele>
        <time>2012-01-19T10:06:16Z</time>
      </trkpt>
      <trkpt lat="47.22399" lon="-1.58518">
        <ele>16</ele>
        <time>2012-01-19T10:06:20Z</time>
      </trkpt>
      <trkpt lat="47.22403" lon="-1.5852">
        <ele>15.8</ele>
        <time>2012-01-19T10:06:23Z</time>
      </trkpt>
      <trkpt lat="47.22406" lon="-1.58523">
        <ele>16</ele>
        <time>2012-01-19T10:06:26Z</time>
      </trkpt>
      <trkpt lat="47.2241" lon="-1.58526">
        <ele>16.3</ele>
        <time>2012-01-19T10:06:29Z</time>
      </trkpt>
      <trkpt lat="47.22413" lon="-1.58529">
        <ele>16.6</ele>
        <time>2012-01-19T10:06:32Z</time>
      </trkpt>
      <trkpt lat="47.22416" lon="-1.58532">
        <ele>16.7</ele>
        <time>2012-01-19T10:06:35Z</time>
      </trkpt>
      <trkpt lat="47.22419" lon="-1.58535">
        <ele>16.3</ele>
        <time>2012-01-19T10:06:38Z</time>
      </trkpt>
      <trkpt lat="47.22422" lon="-1.58538">
        <ele>16.7</ele>
        <time>2012-01-19T10:06:41Z</time>
      </trkpt>
      <trkpt lat="47.22426" lon="-1.58541">
        <ele>16.2</ele>
        <time>2012-01-19T10:06:44Z</time>
      </trkpt>
      <trkpt lat="47.22429" lon="-1.58543">
        <ele>16.2</ele>
        <time>2012-01-19T10:06:47Z</time>
      </trkpt>
      <trkpt lat="47.22433" lon="-1.58546">
        <ele>16.2</ele>
        <time>2012-01-19T10:06:50Z</time>
      </trkpt>
      <trkpt lat="47.22435" lon="-1.58548">
        <ele>16.2</ele>
        <time>2012-01-19T10:06:52Z</time>
      </trkpt>
      <trkpt lat="47.22438" lon="-1.58549">
        <ele>16.5</ele>
        <time>2012-01-19T10:06:54Z</time>
      </trkpt>
      <trkpt lat="47.22442" lon="-1.58552">
        <ele>16.7</ele>
        <time>2012-01-19T10:06:57Z</time>
      </trkpt>
      <trkpt lat="47.22446" lon="-1.58554">
        <ele>16.8</ele>
        <time>2012-01-19T10:07:00Z</time>
      </trkpt>
      <trkpt lat="47.22449" lon="-1.58555">
        <ele>17</ele>
        <time>2012-01-19T10:07:02Z</time>
      </trkpt>
      <trkpt lat="47.22452" lon="-1.58557">
        <ele>17</ele>
        <time>2012-01-19T10:07:04Z</time>
      </trkpt>
      <trkpt lat="47.22455" lon="-1.58558">
        <ele>17.2</ele>
        <time>2012-01-19T10:07:06Z</time>
      </trkpt>
      <trkpt lat="47.22458" lon="-1.5856">
        <ele>17.5</ele>
        <time>2012-01-19T10:07:08Z</time>
      </trkpt>
      <trkpt lat="47.2246" lon="-1.58562">
        <ele>17.6</ele>
        <time>2012-01-19T10:07:09Z</time>
      </trkpt>
      <trkpt lat="47.22466" lon="-1.58567">
        <ele>16.7</ele>
        <time>2012-01-19T10:07:14Z</time>
      </trkpt>
      <trkpt lat="47.22469" lon="-1.5857">
        <ele>16.5</ele>
        <time>2012-01-19T10:07:17Z</time>
      </trkpt>
      <trkpt lat="47.22472" lon="-1.58574">
        <ele>16.3</ele>
        <time>2012-01-19T10:07:20Z</time>
      </trkpt>
      <trkpt lat="47.22475" lon="-1.58578">
        <ele>16.6</ele>
        <time>2012-01-19T10:07:23Z</time>
      </trkpt>
      <trkpt lat="47.22478" lon="-1.58582">
        <ele>15.6</ele>
        <time>2012-01-19T10:07:26Z</time>
      </trkpt>
      <trkpt lat="47.22481" lon="-1.58586">
        <ele>15.6</ele>
        <time>2012-01-19T10:07:29Z</time>
      </trkpt>
      <trkpt lat="47.22484" lon="-1.58588">
        <ele>15.8</ele>
        <time>2012-01-19T10:07:32Z</time>
      </trkpt>
      <trkpt lat="47.22489" lon="-1.5859">
        <ele>16.2</ele>
        <time>2012-01-19T10:07:35Z</time>
      </trkpt>
      <trkpt lat="47.22492" lon="-1.58593">
        <ele>16.1</ele>
        <time>2012-01-19T10:07:38Z</time>
      </trkpt>
      <trkpt lat="47.22495" lon="-1.58595">
        <ele>16</ele>
        <time>2012-01-19T10:07:40Z</time>
      </trkpt>
      <trkpt lat="47.22499" lon="-1.58597">
        <ele>16.3</ele>
        <time>2012-01-19T10:07:43Z</time>
      </trkpt>
      <trkpt lat="47.22503" lon="-1.58599">
        <ele>16.7</ele>
        <time>2012-01-19T10:07:46Z</time>
      </trkpt>
      <trkpt lat="47.22507" lon="-1.586">
        <ele>16.7</ele>
        <time>2012-01-19T10:07:49Z</time>
      </trkpt>
      <trkpt lat="47.2251" lon="-1.58602">
        <ele>16.7</ele>
        <time>2012-01-19T10:07:52Z</time>
      </trkpt>
      <trkpt lat="47.22514" lon="-1.58604">
        <ele>17.2</ele>
        <time>2012-01-19T10:07:55Z</time>
      </trkpt>
      <trkpt lat="47.22517" lon="-1.58606">
        <ele>17.5</ele>
        <time>2012-01-19T10:07:58Z</time>
      </trkpt>
      <trkpt lat="47.22522" lon="-1.58608">
        <ele>18.1</ele>
        <time>2012-01-19T10:08:01Z</time>
      </trkpt>
      <trkpt lat="47.22525" lon="-1.58611">
        <ele>17.8</ele>
        <time>2012-01-19T10:08:04Z</time>
      </trkpt>
      <trkpt lat="47.22528" lon="-1.58613">
        <ele>18.7</ele>
        <time>2012-01-19T10:08:06Z</time>
      </trkpt>
      <trkpt lat="47.22532" lon="-1.58614">
        <ele>19.1</ele>
        <time>2012-01-19T10:08:08Z</time>
      </trkpt>
      <trkpt lat="47.22535" lon="-1.58617">
        <ele>18.2</ele>
        <time>2012-01-19T10:08:11Z</time>
      </trkpt>
      <trkpt lat="47.22536" lon="-1.58618">
        <ele>18</ele>
        <time>2012-01-19T10:08:12Z</time>
      </trkpt>
      <trkpt lat="47.22541" lon="-1.58622">
        <ele>17.7</ele>
        <time>2012-01-19T10:08:15Z</time>
      </trkpt>
      <trkpt lat="47.22544" lon="-1.58624">
        <ele>17.8</ele>
        <time>2012-01-19T10:08:17Z</time>
      </trkpt>
      <trkpt lat="47.22547" lon="-1.58626">
        <ele>18.1</ele>
        <time>2012-01-19T10:08:19Z</time>
      </trkpt>
      <trkpt lat="47.22549" lon="-1.58629">
        <ele>17.5</ele>
        <time>2012-01-19T10:08:21Z</time>
      </trkpt>
      <trkpt lat="47.22553" lon="-1.58633">
        <ele>16.3</ele>
        <time>2012-01-19T10:08:24Z</time>
      </trkpt>
      <trkpt lat="47.22556" lon="-1.58635">
        <ele>16.8</ele>
        <time>2012-01-19T10:08:27Z</time>
      </trkpt>
      <trkpt lat="47.22559" lon="-1.58639">
        <ele>16.7</ele>
        <time>2012-01-19T10:08:30Z</time>
      </trkpt>
      <trkpt lat="47.22562" lon="-1.58642">
        <ele>16.3</ele>
        <time>2012-01-19T10:08:33Z</time>
      </trkpt>
      <trkpt lat="47.22564" lon="-1.58647">
        <ele>16.7</ele>
        <time>2012-01-19T10:08:36Z</time>
      </trkpt>
      <trkpt lat="47.22567" lon="-1.58652">
        <ele>16.2</ele>
        <time>2012-01-19T10:08:39Z</time>
      </trkpt>
      <trkpt lat="47.22569" lon="-1.58657">
        <ele>16.2</ele>
        <time>2012-01-19T10:08:42Z</time>
      </trkpt>
      <trkpt lat="47.22571" lon="-1.5866">
        <ele>16.2</ele>
        <time>2012-01-19T10:08:44Z</time>
      </trkpt>
      <trkpt lat="47.22573" lon="-1.58664">
        <ele>15.8</ele>
        <time>2012-01-19T10:08:46Z</time>
      </trkpt>
      <trkpt lat="47.22576" lon="-1.58669">
        <ele>15.8</ele>
        <time>2012-01-19T10:08:49Z</time>
      </trkpt>
      <trkpt lat="47.22579" lon="-1.58672">
        <ele>15.8</ele>
        <time>2012-01-19T10:08:52Z</time>
      </trkpt>
      <trkpt lat="47.2258" lon="-1.58678">
        <ele>15.6</ele>
        <time>2012-01-19T10:08:55Z</time>
      </trkpt>
      <trkpt lat="47.22582" lon="-1.58684">
        <ele>15.3</ele>
        <time>2012-01-19T10:08:58Z</time>
      </trkpt>
      <trkpt lat="47.22584" lon="-1.5869">
        <ele>15.6</ele>
        <time>2012-01-19T10:09:01Z</time>
      </trkpt>
      <trkpt lat="47.22584" lon="-1.58695">
        <ele>15.6</ele>
        <time>2012-01-19T10:09:03Z</time>
      </trkpt>
      <trkpt lat="47.22584" lon="-1.58699">
        <ele>15.6</ele>
        <time>2012-01-19T10:09:05Z</time>
      </trkpt>
      <trkpt lat="47.22584" lon="-1.58704">
        <ele>15</ele>
        <time>2012-01-19T10:09:07Z</time>
      </trkpt>
      <trkpt lat="47.22584" lon="-1.58709">
        <ele>14.8</ele>
        <time>2012-01-19T10:09:09Z</time>
      </trkpt>
      <trkpt lat="47.22584" lon="-1.58715">
        <ele>15.5</ele>
        <time>2012-01-19T10:09:12Z</time>
      </trkpt>
      <trkpt lat="47.22584" lon="-1.58717">
        <ele>15.8</ele>
        <time>2012-01-19T10:09:13Z</time>
      </trkpt>
      <trkpt lat="47.22583" lon="-1.58728">
        <ele>16.2</ele>
        <time>2012-01-19T10:09:18Z</time>
      </trkpt>
      <trkpt lat="47.22583" lon="-1.58732">
        <ele>16.3</ele>
        <time>2012-01-19T10:09:20Z</time>
      </trkpt>
      <trkpt lat="47.22582" lon="-1.58738">
        <ele>17.2</ele>
        <time>2012-01-19T10:09:23Z</time>
      </trkpt>
      <trkpt lat="47.22581" lon="-1.58745">
        <ele>17.3</ele>
        <time>2012-01-19T10:09:26Z</time>
      </trkpt>
      <trkpt lat="47.2258" lon="-1.58749">
        <ele>17.2</ele>
        <time>2012-01-19T10:09:28Z</time>
      </trkpt>
      <trkpt lat="47.22579" lon="-1.58753">
        <ele>17.2</ele>
        <time>2012-01-19T10:09:30Z</time>
      </trkpt>
      <trkpt lat="47.22576" lon="-1.58757">
        <ele>17.2</ele>
        <time>2012-01-19T10:09:32Z</time>
      </trkpt>
      <trkpt lat="47.22573" lon="-1.5876">
        <ele>17.3</ele>
        <time>2012-01-19T10:09:34Z</time>
      </trkpt>
      <trkpt lat="47.22571" lon="-1.58764">
        <ele>17.2</ele>
        <time>2012-01-19T10:09:36Z</time>
      </trkpt>
      <trkpt lat="47.22567" lon="-1.58767">
        <ele>17.6</ele>
        <time>2012-01-19T10:09:38Z</time>
      </trkpt>
      <trkpt lat="47.22565" lon="-1.5877">
        <ele>18.1</ele>
        <time>2012-01-19T10:09:40Z</time>
      </trkpt>
      <trkpt lat="47.22562" lon="-1.58775">
        <ele>17.7</ele>
        <time>2012-01-19T10:09:43Z</time>
      </trkpt>
      <trkpt lat="47.2256" lon="-1.58781">
        <ele>16.7</ele>
        <time>2012-01-19T10:09:46Z</time>
      </trkpt>
      <trkpt lat="47.2256" lon="-1.58787">
        <ele>16.1</ele>
        <time>2012-01-19T10:09:49Z</time>
      </trkpt>
      <trkpt lat="47.22561" lon="-1.58793">
        <ele>15.1</ele>
        <time>2012-01-19T10:09:54Z</time>
      </trkpt>
      <trkpt lat="47.22563" lon="-1.58799">
        <ele>14.8</ele>
        <time>2012-01-19T10:09:58Z</time>
      </trkpt>
      <trkpt lat="47.22565" lon="-1.58804">
        <ele>13.8</ele>
        <time>2012-01-19T10:10:02Z</time>
      </trkpt>
      <trkpt lat="47.22565" lon="-1.5881">
        <ele>13.8</ele>
        <time>2012-01-19T10:10:06Z</time>
      </trkpt>
      <trkpt lat="47.22564" lon="-1.58816">
        <ele>13.3</ele>
        <time>2012-01-19T10:10:09Z</time>
      </trkpt>
      <trkpt lat="47.22564" lon="-1.58823">
        <ele>13.6</ele>
        <time>2012-01-19T10:10:12Z</time>
      </trkpt>
      <trkpt lat="47.22564" lon="-1.58829">
        <ele>13.3</ele>
        <time>2012-01-19T10:10:15Z</time>
      </trkpt>
      <trkpt lat="47.22565" lon="-1.58832">
        <ele>13.5</ele>
        <time>2012-01-19T10:10:16Z</time>
      </trkpt>
      <trkpt lat="47.22566" lon="-1.58838">
        <ele>13.8</ele>
        <time>2012-01-19T10:10:19Z</time>
      </trkpt>
      <trkpt lat="47.22566" lon="-1.58843">
        <ele>14</ele>
        <time>2012-01-19T10:10:21Z</time>
      </trkpt>
      <trkpt lat="47.22567" lon="-1.5885">
        <ele>13.8</ele>
        <time>2012-01-19T10:10:24Z</time>
      </trkpt>
      <trkpt lat="47.22568" lon="-1.58854">
        <ele>13.6</ele>
        <time>2012-01-19T10:10:26Z</time>
      </trkpt>
      <trkpt lat="47.22569" lon="-1.58858">
        <ele>13.5</ele>
        <time>2012-01-19T10:10:28Z</time>
      </trkpt>
      <trkpt lat="47.2257" lon="-1.58865">
        <ele>13.6</ele>
        <time>2012-01-19T10:10:31Z</time>
      </trkpt>
      <trkpt lat="47.22571" lon="-1.58871">
        <ele>13.6</ele>
        <time>2012-01-19T10:10:34Z</time>
      </trkpt>
      <trkpt lat="47.22572" lon="-1.58875">
        <ele>14.1</ele>
        <time>2012-01-19T10:10:36Z</time>
      </trkpt>
      <trkpt lat="47.22573" lon="-1.58882">
        <ele>14.3</ele>
        <time>2012-01-19T10:10:39Z</time>
      </trkpt>
      <trkpt lat="47.22574" lon="-1.58888">
        <ele>14.3</ele>
        <time>2012-01-19T10:10:42Z</time>
      </trkpt>
      <trkpt lat="47.22575" lon="-1.58894">
        <ele>14.3</ele>
        <time>2012-01-19T10:10:45Z</time>
      </trkpt>
      <trkpt lat="47.22577" lon="-1.58899">
        <ele>14.3</ele>
        <time>2012-01-19T10:10:48Z</time>
      </trkpt>
      <trkpt lat="47.22578" lon="-1.58905">
        <ele>14.3</ele>
        <time>2012-01-19T10:10:51Z</time>
      </trkpt>
      <trkpt lat="47.2258" lon="-1.58911">
        <ele>15</ele>
        <time>2012-01-19T10:10:54Z</time>
      </trkpt>
      <trkpt lat="47.22581" lon="-1.58916">
        <ele>15.3</ele>
        <time>2012-01-19T10:10:57Z</time>
      </trkpt>
      <trkpt lat="47.22583" lon="-1.5892">
        <ele>14.8</ele>
        <time>2012-01-19T10:10:59Z</time>
      </trkpt>
      <trkpt lat="47.22584" lon="-1.58925">
        <ele>14.6</ele>
        <time>2012-01-19T10:11:01Z</time>
      </trkpt>
      <trkpt lat="47.22585" lon="-1.58929">
        <ele>14.3</ele>
        <time>2012-01-19T10:11:03Z</time>
      </trkpt>
      <trkpt lat="47.22587" lon="-1.58933">
        <ele>14.8</ele>
        <time>2012-01-19T10:11:05Z</time>
      </trkpt>
      <trkpt lat="47.22588" lon="-1.58937">
        <ele>14.8</ele>
        <time>2012-01-19T10:11:07Z</time>
      </trkpt>
      <trkpt lat="47.22589" lon="-1.58941">
        <ele>14.8</ele>
        <time>2012-01-19T10:11:09Z</time>
      </trkpt>
      <trkpt lat="47.22592" lon="-1.58946">
        <ele>14.5</ele>
        <time>2012-01-19T10:11:12Z</time>
      </trkpt>
      <trkpt lat="47.22593" lon="-1.58951">
        <ele>14.3</ele>
        <time>2012-01-19T10:11:14Z</time>
      </trkpt>
      <trkpt lat="47.22595" lon="-1.58955">
        <ele>14</ele>
        <time>2012-01-19T10:11:16Z</time>
      </trkpt>
      <trkpt lat="47.22595" lon="-1.58957">
        <ele>14.1</ele>
        <time>2012-01-19T10:11:17Z</time>
      </trkpt>
      <trkpt lat="47.22597" lon="-1.58963">
        <ele>14.3</ele>
        <time>2012-01-19T10:11:20Z</time>
      </trkpt>
      <trkpt lat="47.22599" lon="-1.58968">
        <ele>14.5</ele>
        <time>2012-01-19T10:11:22Z</time>
      </trkpt>
      <trkpt lat="47.22601" lon="-1.58973">
        <ele>13.8</ele>
        <time>2012-01-19T10:11:25Z</time>
      </trkpt>
      <trkpt lat="47.22603" lon="-1.58979">
        <ele>13.6</ele>
        <time>2012-01-19T10:11:28Z</time>
      </trkpt>
      <trkpt lat="47.22605" lon="-1.58984">
        <ele>13.5</ele>
        <time>2012-01-19T10:11:31Z</time>
      </trkpt>
      <trkpt lat="47.22607" lon="-1.58988">
        <ele>14.3</ele>
        <time>2012-01-19T10:11:34Z</time>
      </trkpt>
      <trkpt lat="47.2261" lon="-1.58993">
        <ele>14.3</ele>
        <time>2012-01-19T10:11:37Z</time>
      </trkpt>
      <trkpt lat="47.22613" lon="-1.58997">
        <ele>14.1</ele>
        <time>2012-01-19T10:11:40Z</time>
      </trkpt>
      <trkpt lat="47.22616" lon="-1.59">
        <ele>14</ele>
        <time>2012-01-19T10:11:43Z</time>
      </trkpt>
      <trkpt lat="47.22619" lon="-1.59005">
        <ele>14.1</ele>
        <time>2012-01-19T10:11:46Z</time>
      </trkpt>
      <trkpt lat="47.22622" lon="-1.59009">
        <ele>14.3</ele>
        <time>2012-01-19T10:11:49Z</time>
      </trkpt>
      <trkpt lat="47.22626" lon="-1.59012">
        <ele>14.3</ele>
        <time>2012-01-19T10:11:52Z</time>
      </trkpt>
      <trkpt lat="47.22629" lon="-1.59016">
        <ele>14.1</ele>
        <time>2012-01-19T10:11:55Z</time>
      </trkpt>
      <trkpt lat="47.22632" lon="-1.59021">
        <ele>14.1</ele>
        <time>2012-01-19T10:11:58Z</time>
      </trkpt>
      <trkpt lat="47.22634" lon="-1.59025">
        <ele>14.1</ele>
        <time>2012-01-19T10:12:01Z</time>
      </trkpt>
      <trkpt lat="47.22636" lon="-1.59031">
        <ele>14.8</ele>
        <time>2012-01-19T10:12:04Z</time>
      </trkpt>
      <trkpt lat="47.22638" lon="-1.59035">
        <ele>14.8</ele>
        <time>2012-01-19T10:12:07Z</time>
      </trkpt>
      <trkpt lat="47.2264" lon="-1.59039">
        <ele>15.6</ele>
        <time>2012-01-19T10:12:09Z</time>
      </trkpt>
      <trkpt lat="47.22642" lon="-1.59042">
        <ele>15.6</ele>
        <time>2012-01-19T10:12:11Z</time>
      </trkpt>
      <trkpt lat="47.22645" lon="-1.59044">
        <ele>15.6</ele>
        <time>2012-01-19T10:12:13Z</time>
      </trkpt>
      <trkpt lat="47.22649" lon="-1.59048">
        <ele>16</ele>
        <time>2012-01-19T10:12:16Z</time>
      </trkpt>
      <trkpt lat="47.22652" lon="-1.59051">
        <ele>16.1</ele>
        <time>2012-01-19T10:12:19Z</time>
      </trkpt>
      <trkpt lat="47.22653" lon="-1.59053">
        <ele>16.1</ele>
        <time>2012-01-19T10:12:20Z</time>
      </trkpt>
      <trkpt lat="47.22659" lon="-1.5906">
        <ele>15.8</ele>
        <time>2012-01-19T10:12:25Z</time>
      </trkpt>
      <trkpt lat="47.22661" lon="-1.59064">
        <ele>16.2</ele>
        <time>2012-01-19T10:12:28Z</time>
      </trkpt>
      <trkpt lat="47.22664" lon="-1.59068">
        <ele>16.2</ele>
        <time>2012-01-19T10:12:31Z</time>
      </trkpt>
      <trkpt lat="47.22668" lon="-1.5907">
        <ele>16.5</ele>
        <time>2012-01-19T10:12:34Z</time>
      </trkpt>
      <trkpt lat="47.22671" lon="-1.59074">
        <ele>16.7</ele>
        <time>2012-01-19T10:12:37Z</time>
      </trkpt>
      <trkpt lat="47.22675" lon="-1.59077">
        <ele>16.7</ele>
        <time>2012-01-19T10:12:40Z</time>
      </trkpt>
      <trkpt lat="47.22678" lon="-1.5908">
        <ele>17.1</ele>
        <time>2012-01-19T10:12:43Z</time>
      </trkpt>
      <trkpt lat="47.22682" lon="-1.59083">
        <ele>17.1</ele>
        <time>2012-01-19T10:12:46Z</time>
      </trkpt>
      <trkpt lat="47.22686" lon="-1.59085">
        <ele>16.8</ele>
        <time>2012-01-19T10:12:49Z</time>
      </trkpt>
      <trkpt lat="47.2269" lon="-1.59087">
        <ele>16.5</ele>
        <time>2012-01-19T10:12:52Z</time>
      </trkpt>
      <trkpt lat="47.22694" lon="-1.59089">
        <ele>16.6</ele>
        <time>2012-01-19T10:12:55Z</time>
      </trkpt>
      <trkpt lat="47.22697" lon="-1.59092">
        <ele>16.7</ele>
        <time>2012-01-19T10:12:58Z</time>
      </trkpt>
      <trkpt lat="47.227" lon="-1.59093">
        <ele>16.6</ele>
        <time>2012-01-19T10:13:00Z</time>
      </trkpt>
      <trkpt lat="47.22703" lon="-1.59096">
        <ele>16.2</ele>
        <time>2012-01-19T10:13:02Z</time>
      </trkpt>
      <trkpt lat="47.22706" lon="-1.59098">
        <ele>16</ele>
        <time>2012-01-19T10:13:04Z</time>
      </trkpt>
      <trkpt lat="47.2271" lon="-1.59101">
        <ele>15.3</ele>
        <time>2012-01-19T10:13:07Z</time>
      </trkpt>
      <trkpt lat="47.22713" lon="-1.59103">
        <ele>15.1</ele>
        <time>2012-01-19T10:13:09Z</time>
      </trkpt>
      <trkpt lat="47.22716" lon="-1.59105">
        <ele>15</ele>
        <time>2012-01-19T10:13:11Z</time>
      </trkpt>
      <trkpt lat="47.22719" lon="-1.59107">
        <ele>15.1</ele>
        <time>2012-01-19T10:13:13Z</time>
      </trkpt>
      <trkpt lat="47.22722" lon="-1.5911">
        <ele>15.1</ele>
        <time>2012-01-19T10:13:15Z</time>
      </trkpt>
      <trkpt lat="47.22724" lon="-1.59111">
        <ele>15.1</ele>
        <time>2012-01-19T10:13:17Z</time>
      </trkpt>
      <trkpt lat="47.22727" lon="-1.59113">
        <ele>15.3</ele>
        <time>2012-01-19T10:13:19Z</time>
      </trkpt>
      <trkpt lat="47.2273" lon="-1.59115">
        <ele>15.5</ele>
        <time>2012-01-19T10:13:21Z</time>
      </trkpt>
      <trkpt lat="47.22732" lon="-1.59116">
        <ele>15.5</ele>
        <time>2012-01-19T10:13:22Z</time>
      </trkpt>
      <trkpt lat="47.22737" lon="-1.5912">
        <ele>15.8</ele>
        <time>2012-01-19T10:13:26Z</time>
      </trkpt>
      <trkpt lat="47.2274" lon="-1.59124">
        <ele>16.3</ele>
        <time>2012-01-19T10:13:29Z</time>
      </trkpt>
      <trkpt lat="47.22743" lon="-1.59126">
        <ele>16.6</ele>
        <time>2012-01-19T10:13:32Z</time>
      </trkpt>
      <trkpt lat="47.22747" lon="-1.59129">
        <ele>16.8</ele>
        <time>2012-01-19T10:13:35Z</time>
      </trkpt>
      <trkpt lat="47.2275" lon="-1.59132">
        <ele>16.7</ele>
        <time>2012-01-19T10:13:38Z</time>
      </trkpt>
      <trkpt lat="47.22753" lon="-1.59136">
        <ele>16.6</ele>
        <time>2012-01-19T10:13:40Z</time>
      </trkpt>
      <trkpt lat="47.22755" lon="-1.5914">
        <ele>17.2</ele>
        <time>2012-01-19T10:13:42Z</time>
      </trkpt>
      <trkpt lat="47.22756" lon="-1.59144">
        <ele>17.3</ele>
        <time>2012-01-19T10:13:44Z</time>
      </trkpt>
      <trkpt lat="47.22757" lon="-1.59148">
        <ele>17.2</ele>
        <time>2012-01-19T10:13:46Z</time>
      </trkpt>
      <trkpt lat="47.22759" lon="-1.59152">
        <ele>17</ele>
        <time>2012-01-19T10:13:48Z</time>
      </trkpt>
      <trkpt lat="47.22762" lon="-1.59156">
        <ele>16.8</ele>
        <time>2012-01-19T10:13:50Z</time>
      </trkpt>
      <trkpt lat="47.22764" lon="-1.59159">
        <ele>16.7</ele>
        <time>2012-01-19T10:13:52Z</time>
      </trkpt>
      <trkpt lat="47.22766" lon="-1.59163">
        <ele>17.3</ele>
        <time>2012-01-19T10:13:54Z</time>
      </trkpt>
      <trkpt lat="47.22768" lon="-1.59167">
        <ele>17.6</ele>
        <time>2012-01-19T10:13:56Z</time>
      </trkpt>
      <trkpt lat="47.2277" lon="-1.59172">
        <ele>17.6</ele>
        <time>2012-01-19T10:13:59Z</time>
      </trkpt>
      <trkpt lat="47.22772" lon="-1.59178">
        <ele>17.2</ele>
        <time>2012-01-19T10:14:02Z</time>
      </trkpt>
      <trkpt lat="47.22771" lon="-1.59184">
        <ele>17.7</ele>
        <time>2012-01-19T10:14:06Z</time>
      </trkpt>
      <trkpt lat="47.2277" lon="-1.59189">
        <ele>17.3</ele>
        <time>2012-01-19T10:14:09Z</time>
      </trkpt>
      <trkpt lat="47.22769" lon="-1.59193">
        <ele>17</ele>
        <time>2012-01-19T10:14:12Z</time>
      </trkpt>
      <trkpt lat="47.22768" lon="-1.59198">
        <ele>17.1</ele>
        <time>2012-01-19T10:14:14Z</time>
      </trkpt>
      <trkpt lat="47.22767" lon="-1.59203">
        <ele>17.2</ele>
        <time>2012-01-19T10:14:16Z</time>
      </trkpt>
      <trkpt lat="47.22765" lon="-1.59208">
        <ele>17.7</ele>
        <time>2012-01-19T10:14:18Z</time>
      </trkpt>
      <trkpt lat="47.22764" lon="-1.59212">
        <ele>17.6</ele>
        <time>2012-01-19T10:14:20Z</time>
      </trkpt>
      <trkpt lat="47.22762" lon="-1.59217">
        <ele>17.7</ele>
        <time>2012-01-19T10:14:22Z</time>
      </trkpt>
      <trkpt lat="47.22761" lon="-1.59219">
        <ele>18</ele>
        <time>2012-01-19T10:14:23Z</time>
      </trkpt>
      <trkpt lat="47.22759" lon="-1.59227">
        <ele>18</ele>
        <time>2012-01-19T10:14:27Z</time>
      </trkpt>
      <trkpt lat="47.22757" lon="-1.59232">
        <ele>17.7</ele>
        <time>2012-01-19T10:14:30Z</time>
      </trkpt>
      <trkpt lat="47.22755" lon="-1.59236">
        <ele>17.7</ele>
        <time>2012-01-19T10:14:33Z</time>
      </trkpt>
      <trkpt lat="47.22753" lon="-1.59241">
        <ele>17.7</ele>
        <time>2012-01-19T10:14:37Z</time>
      </trkpt>
      <trkpt lat="47.22751" lon="-1.59245">
        <ele>17.7</ele>
        <time>2012-01-19T10:14:40Z</time>
      </trkpt>
      <trkpt lat="47.22749" lon="-1.5925">
        <ele>17.3</ele>
        <time>2012-01-19T10:14:43Z</time>
      </trkpt>
      <trkpt lat="47.22747" lon="-1.59256">
        <ele>17.7</ele>
        <time>2012-01-19T10:14:46Z</time>
      </trkpt>
      <trkpt lat="47.22746" lon="-1.5926">
        <ele>17.8</ele>
        <time>2012-01-19T10:14:48Z</time>
      </trkpt>
      <trkpt lat="47.22744" lon="-1.59264">
        <ele>17.7</ele>
        <time>2012-01-19T10:14:50Z</time>
      </trkpt>
      <trkpt lat="47.22743" lon="-1.59269">
        <ele>17.3</ele>
        <time>2012-01-19T10:14:52Z</time>
      </trkpt>
      <trkpt lat="47.22741" lon="-1.59275">
        <ele>16.7</ele>
        <time>2012-01-19T10:14:55Z</time>
      </trkpt>
      <trkpt lat="47.2274" lon="-1.5928">
        <ele>16.3</ele>
        <time>2012-01-19T10:14:58Z</time>
      </trkpt>
      <trkpt lat="47.22738" lon="-1.59286">
        <ele>15.8</ele>
        <time>2012-01-19T10:15:02Z</time>
      </trkpt>
      <trkpt lat="47.22737" lon="-1.59292">
        <ele>15.8</ele>
        <time>2012-01-19T10:15:05Z</time>
      </trkpt>
      <trkpt lat="47.22736" lon="-1.59297">
        <ele>16</ele>
        <time>2012-01-19T10:15:08Z</time>
      </trkpt>
      <trkpt lat="47.22735" lon="-1.59302">
        <ele>16.1</ele>
        <time>2012-01-19T10:15:11Z</time>
      </trkpt>
      <trkpt lat="47.22734" lon="-1.59308">
        <ele>16.2</ele>
        <time>2012-01-19T10:15:14Z</time>
      </trkpt>
      <trkpt lat="47.22733" lon="-1.59312">
        <ele>15.8</ele>
        <time>2012-01-19T10:15:16Z</time>
      </trkpt>
      <trkpt lat="47.22732" lon="-1.59317">
        <ele>15.3</ele>
        <time>2012-01-19T10:15:18Z</time>
      </trkpt>
      <trkpt lat="47.2273" lon="-1.59322">
        <ele>16.7</ele>
        <time>2012-01-19T10:15:21Z</time>
      </trkpt>
      <trkpt lat="47.22729" lon="-1.59327">
        <ele>16.7</ele>
        <time>2012-01-19T10:15:24Z</time>
      </trkpt>
      <trkpt lat="47.22728" lon="-1.5933">
        <ele>16.7</ele>
        <time>2012-01-19T10:15:25Z</time>
      </trkpt>
      <trkpt lat="47.22726" lon="-1.59339">
        <ele>16</ele>
        <time>2012-01-19T10:15:30Z</time>
      </trkpt>
      <trkpt lat="47.22726" lon="-1.59343">
        <ele>16.2</ele>
        <time>2012-01-19T10:15:32Z</time>
      </trkpt>
      <trkpt lat="47.22724" lon="-1.59349">
        <ele>16.6</ele>
        <time>2012-01-19T10:15:34Z</time>
      </trkpt>
      <trkpt lat="47.22723" lon="-1.59353">
        <ele>16.2</ele>
        <time>2012-01-19T10:15:36Z</time>
      </trkpt>
      <trkpt lat="47.22722" lon="-1.59358">
        <ele>16</ele>
        <time>2012-01-19T10:15:39Z</time>
      </trkpt>
      <trkpt lat="47.2272" lon="-1.59363">
        <ele>16</ele>
        <time>2012-01-19T10:15:41Z</time>
      </trkpt>
      <trkpt lat="47.22719" lon="-1.59368">
        <ele>15.5</ele>
        <time>2012-01-19T10:15:43Z</time>
      </trkpt>
      <trkpt lat="47.22717" lon="-1.59372">
        <ele>15.6</ele>
        <time>2012-01-19T10:15:45Z</time>
      </trkpt>
      <trkpt lat="47.22716" lon="-1.59377">
        <ele>15.8</ele>
        <time>2012-01-19T10:15:47Z</time>
      </trkpt>
      <trkpt lat="47.22714" lon="-1.59382">
        <ele>15.6</ele>
        <time>2012-01-19T10:15:50Z</time>
      </trkpt>
      <trkpt lat="47.22712" lon="-1.59388">
        <ele>15.6</ele>
        <time>2012-01-19T10:15:53Z</time>
      </trkpt>
      <trkpt lat="47.22711" lon="-1.59392">
        <ele>15.8</ele>
        <time>2012-01-19T10:15:55Z</time>
      </trkpt>
      <trkpt lat="47.2271" lon="-1.59396">
        <ele>16.2</ele>
        <time>2012-01-19T10:15:57Z</time>
      </trkpt>
      <trkpt lat="47.22708" lon="-1.594">
        <ele>16.3</ele>
        <time>2012-01-19T10:15:59Z</time>
      </trkpt>
      <trkpt lat="47.22705" lon="-1.59405">
        <ele>16.2</ele>
        <time>2012-01-19T10:16:02Z</time>
      </trkpt>
      <trkpt lat="47.22703" lon="-1.59411">
        <ele>16.1</ele>
        <time>2012-01-19T10:16:05Z</time>
      </trkpt>
      <trkpt lat="47.22702" lon="-1.59415">
        <ele>15.8</ele>
        <time>2012-01-19T10:16:07Z</time>
      </trkpt>
      <trkpt lat="47.22699" lon="-1.59421">
        <ele>15.3</ele>
        <time>2012-01-19T10:16:10Z</time>
      </trkpt>
      <trkpt lat="47.22698" lon="-1.59426">
        <ele>16</ele>
        <time>2012-01-19T10:16:13Z</time>
      </trkpt>
      <trkpt lat="47.22697" lon="-1.5943">
        <ele>16.2</ele>
        <time>2012-01-19T10:16:15Z</time>
      </trkpt>
      <trkpt lat="47.22696" lon="-1.59435">
        <ele>16.3</ele>
        <time>2012-01-19T10:16:17Z</time>
      </trkpt>
      <trkpt lat="47.22695" lon="-1.59441">
        <ele>16.2</ele>
        <time>2012-01-19T10:16:20Z</time>
      </trkpt>
      <trkpt lat="47.22694" lon="-1.59447">
        <ele>15.5</ele>
        <time>2012-01-19T10:16:23Z</time>
      </trkpt>
      <trkpt lat="47.22693" lon="-1.59452">
        <ele>15.3</ele>
        <time>2012-01-19T10:16:25Z</time>
      </trkpt>
      <trkpt lat="47.22692" lon="-1.59455">
        <ele>15.5</ele>
        <time>2012-01-19T10:16:26Z</time>
      </trkpt>
      <trkpt lat="47.22691" lon="-1.59462">
        <ele>15.6</ele>
        <time>2012-01-19T10:16:29Z</time>
      </trkpt>
      <trkpt lat="47.22691" lon="-1.59466">
        <ele>15.8</ele>
        <time>2012-01-19T10:16:31Z</time>
      </trkpt>
      <trkpt lat="47.2269" lon="-1.59471">
        <ele>15.8</ele>
        <time>2012-01-19T10:16:33Z</time>
      </trkpt>
      <trkpt lat="47.2269" lon="-1.59477">
        <ele>15.8</ele>
        <time>2012-01-19T10:16:36Z</time>
      </trkpt>
      <trkpt lat="47.22691" lon="-1.59482">
        <ele>15.8</ele>
        <time>2012-01-19T10:16:39Z</time>
      </trkpt>
      <trkpt lat="47.22691" lon="-1.59487">
        <ele>15.8</ele>
        <time>2012-01-19T10:16:41Z</time>
      </trkpt>
      <trkpt lat="47.22692" lon="-1.59491">
        <ele>15.8</ele>
        <time>2012-01-19T10:16:43Z</time>
      </trkpt>
      <trkpt lat="47.22693" lon="-1.59496">
        <ele>15.6</ele>
        <time>2012-01-19T10:16:45Z</time>
      </trkpt>
      <trkpt lat="47.22694" lon="-1.59501">
        <ele>16.2</ele>
        <time>2012-01-19T10:16:47Z</time>
      </trkpt>
      <trkpt lat="47.22695" lon="-1.59505">
        <ele>16.5</ele>
        <time>2012-01-19T10:16:49Z</time>
      </trkpt>
      <trkpt lat="47.22696" lon="-1.59509">
        <ele>16.6</ele>
        <time>2012-01-19T10:16:51Z</time>
      </trkpt>
      <trkpt lat="47.22698" lon="-1.59514">
        <ele>17</ele>
        <time>2012-01-19T10:16:54Z</time>
      </trkpt>
      <trkpt lat="47.22701" lon="-1.59519">
        <ele>16.2</ele>
        <time>2012-01-19T10:16:57Z</time>
      </trkpt>
      <trkpt lat="47.22703" lon="-1.59522">
        <ele>16.2</ele>
        <time>2012-01-19T10:16:59Z</time>
      </trkpt>
      <trkpt lat="47.22706" lon="-1.59526">
        <ele>16.1</ele>
        <time>2012-01-19T10:17:02Z</time>
      </trkpt>
      <trkpt lat="47.22709" lon="-1.5953">
        <ele>16</ele>
        <time>2012-01-19T10:17:05Z</time>
      </trkpt>
      <trkpt lat="47.22712" lon="-1.59533">
        <ele>16</ele>
        <time>2012-01-19T10:17:07Z</time>
      </trkpt>
      <trkpt lat="47.22714" lon="-1.59536">
        <ele>16.5</ele>
        <time>2012-01-19T10:17:10Z</time>
      </trkpt>
      <trkpt lat="47.22718" lon="-1.59539">
        <ele>15.8</ele>
        <time>2012-01-19T10:17:14Z</time>
      </trkpt>
      <trkpt lat="47.22722" lon="-1.5954">
        <ele>16.2</ele>
        <time>2012-01-19T10:17:17Z</time>
      </trkpt>
      <trkpt lat="47.22726" lon="-1.59542">
        <ele>16.7</ele>
        <time>2012-01-19T10:17:20Z</time>
      </trkpt>
      <trkpt lat="47.2273" lon="-1.59543">
        <ele>16</ele>
        <time>2012-01-19T10:17:23Z</time>
      </trkpt>
      <trkpt lat="47.22733" lon="-1.59544">
        <ele>16.3</ele>
        <time>2012-01-19T10:17:25Z</time>
      </trkpt>
      <trkpt lat="47.22737" lon="-1.59545">
        <ele>16.1</ele>
        <time>2012-01-19T10:17:28Z</time>
      </trkpt>
      <trkpt lat="47.22739" lon="-1.59546">
        <ele>16</ele>
        <time>2012-01-19T10:17:29Z</time>
      </trkpt>
      <trkpt lat="47.22744" lon="-1.59547">
        <ele>16.6</ele>
        <time>2012-01-19T10:17:33Z</time>
      </trkpt>
      <trkpt lat="47.22748" lon="-1.59547">
        <ele>16.5</ele>
        <time>2012-01-19T10:17:36Z</time>
      </trkpt>
      <trkpt lat="47.22752" lon="-1.59547">
        <ele>16</ele>
        <time>2012-01-19T10:17:39Z</time>
      </trkpt>
      <trkpt lat="47.22757" lon="-1.59547">
        <ele>15.6</ele>
        <time>2012-01-19T10:17:43Z</time>
      </trkpt>
      <trkpt lat="47.2276" lon="-1.59548">
        <ele>15.8</ele>
        <time>2012-01-19T10:17:46Z</time>
      </trkpt>
      <trkpt lat="47.22764" lon="-1.59548">
        <ele>16.1</ele>
        <time>2012-01-19T10:17:49Z</time>
      </trkpt>
      <trkpt lat="47.22768" lon="-1.59547">
        <ele>16.2</ele>
        <time>2012-01-19T10:17:51Z</time>
      </trkpt>
      <trkpt lat="47.22771" lon="-1.59546">
        <ele>16.3</ele>
        <time>2012-01-19T10:17:53Z</time>
      </trkpt>
      <trkpt lat="47.22775" lon="-1.59546">
        <ele>16.3</ele>
        <time>2012-01-19T10:17:56Z</time>
      </trkpt>
      <trkpt lat="47.22779" lon="-1.59546">
        <ele>15.8</ele>
        <time>2012-01-19T10:17:59Z</time>
      </trkpt>
      <trkpt lat="47.22783" lon="-1.59546">
        <ele>15.8</ele>
        <time>2012-01-19T10:18:02Z</time>
      </trkpt>
      <trkpt lat="47.22787" lon="-1.59545">
        <ele>15.8</ele>
        <time>2012-01-19T10:18:05Z</time>
      </trkpt>
      <trkpt lat="47.2279" lon="-1.59545">
        <ele>16.1</ele>
        <time>2012-01-19T10:18:07Z</time>
      </trkpt>
      <trkpt lat="47.22794" lon="-1.59544">
        <ele>16.1</ele>
        <time>2012-01-19T10:18:09Z</time>
      </trkpt>
      <trkpt lat="47.22797" lon="-1.59544">
        <ele>16</ele>
        <time>2012-01-19T10:18:11Z</time>
      </trkpt>
      <trkpt lat="47.228" lon="-1.59544">
        <ele>16.2</ele>
        <time>2012-01-19T10:18:13Z</time>
      </trkpt>
      <trkpt lat="47.22804" lon="-1.59544">
        <ele>16.6</ele>
        <time>2012-01-19T10:18:15Z</time>
      </trkpt>
      <trkpt lat="47.22807" lon="-1.59544">
        <ele>17.1</ele>
        <time>2012-01-19T10:18:17Z</time>
      </trkpt>
      <trkpt lat="47.2281" lon="-1.59543">
        <ele>16.8</ele>
        <time>2012-01-19T10:18:19Z</time>
      </trkpt>
      <trkpt lat="47.22813" lon="-1.59543">
        <ele>16.8</ele>
        <time>2012-01-19T10:18:21Z</time>
      </trkpt>
      <trkpt lat="47.22816" lon="-1.59543">
        <ele>16.8</ele>
        <time>2012-01-19T10:18:23Z</time>
      </trkpt>
      <trkpt lat="47.22821" lon="-1.59543">
        <ele>16.8</ele>
        <time>2012-01-19T10:18:25Z</time>
      </trkpt>
      <trkpt lat="47.22824" lon="-1.59543">
        <ele>16.8</ele>
        <time>2012-01-19T10:18:27Z</time>
      </trkpt>
      <trkpt lat="47.22828" lon="-1.59543">
        <ele>16.8</ele>
        <time>2012-01-19T10:18:30Z</time>
      </trkpt>
      <trkpt lat="47.22829" lon="-1.59544">
        <ele>16.7</ele>
        <time>2012-01-19T10:18:31Z</time>
      </trkpt>
      <trkpt lat="47.22834" lon="-1.59545">
        <ele>16.7</ele>
        <time>2012-01-19T10:18:34Z</time>
      </trkpt>
      <trkpt lat="47.22838" lon="-1.59547">
        <ele>16.7</ele>
        <time>2012-01-19T10:18:36Z</time>
      </trkpt>
      <trkpt lat="47.22841" lon="-1.59548">
        <ele>16.5</ele>
        <time>2012-01-19T10:18:38Z</time>
      </trkpt>
      <trkpt lat="47.22844" lon="-1.5955">
        <ele>16.2</ele>
        <time>2012-01-19T10:18:40Z</time>
      </trkpt>
      <trkpt lat="47.22847" lon="-1.59555">
        <ele>17.1</ele>
        <time>2012-01-19T10:18:43Z</time>
      </trkpt>
      <trkpt lat="47.22849" lon="-1.5956">
        <ele>17.7</ele>
        <time>2012-01-19T10:18:47Z</time>
      </trkpt>
      <trkpt lat="47.22849" lon="-1.59565">
        <ele>17.7</ele>
        <time>2012-01-19T10:18:51Z</time>
      </trkpt>
      <trkpt lat="47.22847" lon="-1.59569">
        <ele>17.5</ele>
        <time>2012-01-19T10:18:53Z</time>
      </trkpt>
      <trkpt lat="47.22847" lon="-1.59576">
        <ele>17.2</ele>
        <time>2012-01-19T10:18:56Z</time>
      </trkpt>
      <trkpt lat="47.22846" lon="-1.59582">
        <ele>17.2</ele>
        <time>2012-01-19T10:18:59Z</time>
      </trkpt>
      <trkpt lat="47.22846" lon="-1.59589">
        <ele>17.2</ele>
        <time>2012-01-19T10:19:02Z</time>
      </trkpt>
      <trkpt lat="47.22846" lon="-1.59593">
        <ele>17.6</ele>
        <time>2012-01-19T10:19:04Z</time>
      </trkpt>
      <trkpt lat="47.22846" lon="-1.59598">
        <ele>17.7</ele>
        <time>2012-01-19T10:19:06Z</time>
      </trkpt>
      <trkpt lat="47.22846" lon="-1.59603">
        <ele>18</ele>
        <time>2012-01-19T10:19:08Z</time>
      </trkpt>
      <trkpt lat="47.22846" lon="-1.59608">
        <ele>18.2</ele>
        <time>2012-01-19T10:19:10Z</time>
      </trkpt>
      <trkpt lat="47.22846" lon="-1.59614">
        <ele>18.2</ele>
        <time>2012-01-19T10:19:13Z</time>
      </trkpt>
      <trkpt lat="47.22848" lon="-1.5962">
        <ele>18.6</ele>
        <time>2012-01-19T10:19:16Z</time>
      </trkpt>
      <trkpt lat="47.22849" lon="-1.59626">
        <ele>19.2</ele>
        <time>2012-01-19T10:19:19Z</time>
      </trkpt>
      <trkpt lat="47.22851" lon="-1.59632">
        <ele>19.3</ele>
        <time>2012-01-19T10:19:22Z</time>
      </trkpt>
      <trkpt lat="47.22854" lon="-1.59637">
        <ele>19.1</ele>
        <time>2012-01-19T10:19:25Z</time>
      </trkpt>
      <trkpt lat="47.22856" lon="-1.59641">
        <ele>19.2</ele>
        <time>2012-01-19T10:19:27Z</time>
      </trkpt>
      <trkpt lat="47.22858" lon="-1.59646">
        <ele>18.6</ele>
        <time>2012-01-19T10:19:30Z</time>
      </trkpt>
      <trkpt lat="47.2286" lon="-1.59651">
        <ele>18.7</ele>
        <time>2012-01-19T10:19:33Z</time>
      </trkpt>
      <trkpt lat="47.22862" lon="-1.59652">
        <ele>18.8</ele>
        <time>2012-01-19T10:19:34Z</time>
      </trkpt>
      <trkpt lat="47.22866" lon="-1.59657">
        <ele>19</ele>
        <time>2012-01-19T10:19:38Z</time>
      </trkpt>
      <trkpt lat="47.22869" lon="-1.59659">
        <ele>19.2</ele>
        <time>2012-01-19T10:19:40Z</time>
      </trkpt>
      <trkpt lat="47.22872" lon="-1.59662">
        <ele>18.6</ele>
        <time>2012-01-19T10:19:42Z</time>
      </trkpt>
      <trkpt lat="47.22875" lon="-1.59665">
        <ele>18.3</ele>
        <time>2012-01-19T10:19:45Z</time>
      </trkpt>
      <trkpt lat="47.2288" lon="-1.59666">
        <ele>18</ele>
        <time>2012-01-19T10:19:50Z</time>
      </trkpt>
      <trkpt lat="47.22882" lon="-1.59669">
        <ele>18.2</ele>
        <time>2012-01-19T10:19:53Z</time>
      </trkpt>
      <trkpt lat="47.22885" lon="-1.59674">
        <ele>17.7</ele>
        <time>2012-01-19T10:19:57Z</time>
      </trkpt>
      <trkpt lat="47.22889" lon="-1.59677">
        <ele>18.2</ele>
        <time>2012-01-19T10:20:00Z</time>
      </trkpt>
      <trkpt lat="47.22891" lon="-1.5968">
        <ele>18.1</ele>
        <time>2012-01-19T10:20:02Z</time>
      </trkpt>
      <trkpt lat="47.22893" lon="-1.59683">
        <ele>17.7</ele>
        <time>2012-01-19T10:20:04Z</time>
      </trkpt>
      <trkpt lat="47.22896" lon="-1.59685">
        <ele>17.3</ele>
        <time>2012-01-19T10:20:06Z</time>
      </trkpt>
      <trkpt lat="47.229" lon="-1.59688">
        <ele>17.3</ele>
        <time>2012-01-19T10:20:09Z</time>
      </trkpt>
      <trkpt lat="47.22904" lon="-1.59691">
        <ele>17</ele>
        <time>2012-01-19T10:20:12Z</time>
      </trkpt>
      <trkpt lat="47.22908" lon="-1.59694">
        <ele>17.2</ele>
        <time>2012-01-19T10:20:15Z</time>
      </trkpt>
      <trkpt lat="47.22912" lon="-1.59697">
        <ele>17.2</ele>
        <time>2012-01-19T10:20:18Z</time>
      </trkpt>
      <trkpt lat="47.22916" lon="-1.59699">
        <ele>17.8</ele>
        <time>2012-01-19T10:20:21Z</time>
      </trkpt>
      <trkpt lat="47.22919" lon="-1.59702">
        <ele>18.2</ele>
        <time>2012-01-19T10:20:24Z</time>
      </trkpt>
      <trkpt lat="47.22922" lon="-1.59704">
        <ele>18.3</ele>
        <time>2012-01-19T10:20:27Z</time>
      </trkpt>
      <trkpt lat="47.22925" lon="-1.59709">
        <ele>18.3</ele>
        <time>2012-01-19T10:20:31Z</time>
      </trkpt>
      <trkpt lat="47.22925" lon="-1.59714">
        <ele>19</ele>
        <time>2012-01-19T10:20:34Z</time>
      </trkpt>
      <trkpt lat="47.22926" lon="-1.59715">
        <ele>19</ele>
        <time>2012-01-19T10:20:35Z</time>
      </trkpt>
      <trkpt lat="47.22926" lon="-1.59725">
        <ele>19</ele>
        <time>2012-01-19T10:20:39Z</time>
      </trkpt>
      <trkpt lat="47.22925" lon="-1.59728">
        <ele>19</ele>
        <time>2012-01-19T10:20:40Z</time>
      </trkpt>
      <trkpt lat="47.22925" lon="-1.59734">
        <ele>18.8</ele>
        <time>2012-01-19T10:20:42Z</time>
      </trkpt>
      <trkpt lat="47.22925" lon="-1.59739">
        <ele>18.6</ele>
        <time>2012-01-19T10:20:44Z</time>
      </trkpt>
      <trkpt lat="47.22928" lon="-1.59744">
        <ele>19.3</ele>
        <time>2012-01-19T10:20:48Z</time>
      </trkpt>
      <trkpt lat="47.22931" lon="-1.59747">
        <ele>20.2</ele>
        <time>2012-01-19T10:20:53Z</time>
      </trkpt>
      <trkpt lat="47.22935" lon="-1.59745">
        <ele>19.3</ele>
        <time>2012-01-19T10:20:59Z</time>
      </trkpt>
      <trkpt lat="47.22939" lon="-1.59742">
        <ele>19.7</ele>
        <time>2012-01-19T10:21:03Z</time>
      </trkpt>
      <trkpt lat="47.22942" lon="-1.5974">
        <ele>19.3</ele>
        <time>2012-01-19T10:21:06Z</time>
      </trkpt>
      <trkpt lat="47.22945" lon="-1.59736">
        <ele>19.2</ele>
        <time>2012-01-19T10:21:09Z</time>
      </trkpt>
      <trkpt lat="47.22948" lon="-1.59731">
        <ele>18.8</ele>
        <time>2012-01-19T10:21:14Z</time>
      </trkpt>
      <trkpt lat="47.2295" lon="-1.59727">
        <ele>17.5</ele>
        <time>2012-01-19T10:21:18Z</time>
      </trkpt>
      <trkpt lat="47.22953" lon="-1.59722">
        <ele>17.5</ele>
        <time>2012-01-19T10:21:22Z</time>
      </trkpt>
      <trkpt lat="47.22956" lon="-1.59717">
        <ele>17.7</ele>
        <time>2012-01-19T10:21:26Z</time>
      </trkpt>
      <trkpt lat="47.22959" lon="-1.59715">
        <ele>16.8</ele>
        <time>2012-01-19T10:21:29Z</time>
      </trkpt>
      <trkpt lat="47.22962" lon="-1.59714">
        <ele>17.8</ele>
        <time>2012-01-19T10:21:32Z</time>
      </trkpt>
      <trkpt lat="47.22966" lon="-1.59712">
        <ele>17.8</ele>
        <time>2012-01-19T10:21:35Z</time>
      </trkpt>
      <trkpt lat="47.22968" lon="-1.59712">
        <ele>17.7</ele>
        <time>2012-01-19T10:21:36Z</time>
      </trkpt>
      <trkpt lat="47.22974" lon="-1.59709">
        <ele>17.8</ele>
        <time>2012-01-19T10:21:41Z</time>
      </trkpt>
      <trkpt lat="47.22978" lon="-1.59708">
        <ele>17.7</ele>
        <time>2012-01-19T10:21:44Z</time>
      </trkpt>
      <trkpt lat="47.22982" lon="-1.59706">
        <ele>17.5</ele>
        <time>2012-01-19T10:21:47Z</time>
      </trkpt>
      <trkpt lat="47.22986" lon="-1.59705">
        <ele>17.7</ele>
        <time>2012-01-19T10:21:50Z</time>
      </trkpt>
      <trkpt lat="47.2299" lon="-1.59704">
        <ele>18</ele>
        <time>2012-01-19T10:21:53Z</time>
      </trkpt>
      <trkpt lat="47.22994" lon="-1.59704">
        <ele>17.2</ele>
        <time>2012-01-19T10:21:56Z</time>
      </trkpt>
      <trkpt lat="47.22998" lon="-1.59704">
        <ele>16.6</ele>
        <time>2012-01-19T10:21:59Z</time>
      </trkpt>
      <trkpt lat="47.23001" lon="-1.59705">
        <ele>16.3</ele>
        <time>2012-01-19T10:22:01Z</time>
      </trkpt>
      <trkpt lat="47.23004" lon="-1.59706">
        <ele>17</ele>
        <time>2012-01-19T10:22:03Z</time>
      </trkpt>
      <trkpt lat="47.23008" lon="-1.59709">
        <ele>16.7</ele>
        <time>2012-01-19T10:22:06Z</time>
      </trkpt>
      <trkpt lat="47.23012" lon="-1.59709">
        <ele>16.7</ele>
        <time>2012-01-19T10:22:09Z</time>
      </trkpt>
      <trkpt lat="47.23015" lon="-1.59708">
        <ele>17.2</ele>
        <time>2012-01-19T10:22:11Z</time>
      </trkpt>
      <trkpt lat="47.23018" lon="-1.59707">
        <ele>17.8</ele>
        <time>2012-01-19T10:22:13Z</time>
      </trkpt>
      <trkpt lat="47.23021" lon="-1.59707">
        <ele>17.7</ele>
        <time>2012-01-19T10:22:15Z</time>
      </trkpt>
      <trkpt lat="47.23024" lon="-1.59707">
        <ele>17.6</ele>
        <time>2012-01-19T10:22:17Z</time>
      </trkpt>
      <trkpt lat="47.23027" lon="-1.59706">
        <ele>17.5</ele>
        <time>2012-01-19T10:22:19Z</time>
      </trkpt>
      <trkpt lat="47.23031" lon="-1.59704">
        <ele>17.5</ele>
        <time>2012-01-19T10:22:21Z</time>
      </trkpt>
      <trkpt lat="47.23033" lon="-1.59702">
        <ele>17.5</ele>
        <time>2012-01-19T10:22:23Z</time>
      </trkpt>
      <trkpt lat="47.23036" lon="-1.597">
        <ele>17.6</ele>
        <time>2012-01-19T10:22:25Z</time>
      </trkpt>
      <trkpt lat="47.2304" lon="-1.59697">
        <ele>17.2</ele>
        <time>2012-01-19T10:22:28Z</time>
      </trkpt>
      <trkpt lat="47.23043" lon="-1.59695">
        <ele>17.1</ele>
        <time>2012-01-19T10:22:30Z</time>
      </trkpt>
      <trkpt lat="47.23046" lon="-1.59691">
        <ele>17.1</ele>
        <time>2012-01-19T10:22:33Z</time>
      </trkpt>
      <trkpt lat="47.2305" lon="-1.59688">
        <ele>16.7</ele>
        <time>2012-01-19T10:22:36Z</time>
      </trkpt>
      <trkpt lat="47.23051" lon="-1.59686">
        <ele>17</ele>
        <time>2012-01-19T10:22:37Z</time>
      </trkpt>
      <trkpt lat="47.23055" lon="-1.59681">
        <ele>16.7</ele>
        <time>2012-01-19T10:22:41Z</time>
      </trkpt>
      <trkpt lat="47.23059" lon="-1.59678">
        <ele>16.7</ele>
        <time>2012-01-19T10:22:44Z</time>
      </trkpt>
      <trkpt lat="47.23062" lon="-1.59676">
        <ele>16.8</ele>
        <time>2012-01-19T10:22:46Z</time>
      </trkpt>
      <trkpt lat="47.23065" lon="-1.59673">
        <ele>17</ele>
        <time>2012-01-19T10:22:48Z</time>
      </trkpt>
      <trkpt lat="47.23068" lon="-1.59667">
        <ele>17.2</ele>
        <time>2012-01-19T10:22:51Z</time>
      </trkpt>
      <trkpt lat="47.2307" lon="-1.59663">
        <ele>16.8</ele>
        <time>2012-01-19T10:22:54Z</time>
      </trkpt>
      <trkpt lat="47.23074" lon="-1.59661">
        <ele>17.7</ele>
        <time>2012-01-19T10:22:58Z</time>
      </trkpt>
      <trkpt lat="47.23078" lon="-1.5966">
        <ele>18.2</ele>
        <time>2012-01-19T10:23:01Z</time>
      </trkpt>
      <trkpt lat="47.23082" lon="-1.59659">
        <ele>17.7</ele>
        <time>2012-01-19T10:23:04Z</time>
      </trkpt>
      <trkpt lat="47.23086" lon="-1.59657">
        <ele>17.1</ele>
        <time>2012-01-19T10:23:07Z</time>
      </trkpt>
      <trkpt lat="47.2309" lon="-1.59656">
        <ele>16.7</ele>
        <time>2012-01-19T10:23:10Z</time>
      </trkpt>
      <trkpt lat="47.23093" lon="-1.59656">
        <ele>16.6</ele>
        <time>2012-01-19T10:23:12Z</time>
      </trkpt>
      <trkpt lat="47.23097" lon="-1.59656">
        <ele>16.5</ele>
        <time>2012-01-19T10:23:15Z</time>
      </trkpt>
      <trkpt lat="47.231" lon="-1.59657">
        <ele>16.5</ele>
        <time>2012-01-19T10:23:17Z</time>
      </trkpt>
      <trkpt lat="47.23104" lon="-1.59658">
        <ele>16.7</ele>
        <time>2012-01-19T10:23:19Z</time>
      </trkpt>
      <trkpt lat="47.23106" lon="-1.59659">
        <ele>16.6</ele>
        <time>2012-01-19T10:23:21Z</time>
      </trkpt>
      <trkpt lat="47.2311" lon="-1.5966">
        <ele>16.2</ele>
        <time>2012-01-19T10:23:23Z</time>
      </trkpt>
      <trkpt lat="47.23114" lon="-1.59663">
        <ele>17.1</ele>
        <time>2012-01-19T10:23:26Z</time>
      </trkpt>
      <trkpt lat="47.23117" lon="-1.59667">
        <ele>17.5</ele>
        <time>2012-01-19T10:23:29Z</time>
      </trkpt>
      <trkpt lat="47.2312" lon="-1.59671">
        <ele>17.5</ele>
        <time>2012-01-19T10:23:32Z</time>
      </trkpt>
      <trkpt lat="47.23122" lon="-1.59674">
        <ele>17.5</ele>
        <time>2012-01-19T10:23:34Z</time>
      </trkpt>
      <trkpt lat="47.23125" lon="-1.59679">
        <ele>17.7</ele>
        <time>2012-01-19T10:23:37Z</time>
      </trkpt>
      <trkpt lat="47.23125" lon="-1.59682">
        <ele>17.7</ele>
        <time>2012-01-19T10:23:38Z</time>
      </trkpt>
      <trkpt lat="47.23129" lon="-1.59687">
        <ele>17.7</ele>
        <time>2012-01-19T10:23:41Z</time>
      </trkpt>
      <trkpt lat="47.23131" lon="-1.5969">
        <ele>17.6</ele>
        <time>2012-01-19T10:23:43Z</time>
      </trkpt>
      <trkpt lat="47.23134" lon="-1.59693">
        <ele>16.8</ele>
        <time>2012-01-19T10:23:45Z</time>
      </trkpt>
      <trkpt lat="47.23136" lon="-1.59696">
        <ele>17</ele>
        <time>2012-01-19T10:23:47Z</time>
      </trkpt>
      <trkpt lat="47.23139" lon="-1.59699">
        <ele>17.3</ele>
        <time>2012-01-19T10:23:49Z</time>
      </trkpt>
      <trkpt lat="47.23142" lon="-1.59702">
        <ele>17.2</ele>
        <time>2012-01-19T10:23:51Z</time>
      </trkpt>
      <trkpt lat="47.23145" lon="-1.59705">
        <ele>17.3</ele>
        <time>2012-01-19T10:23:53Z</time>
      </trkpt>
      <trkpt lat="47.23148" lon="-1.59707">
        <ele>17.6</ele>
        <time>2012-01-19T10:23:55Z</time>
      </trkpt>
      <trkpt lat="47.2315" lon="-1.59711">
        <ele>17.7</ele>
        <time>2012-01-19T10:23:57Z</time>
      </trkpt>
      <trkpt lat="47.23153" lon="-1.59715">
        <ele>17.7</ele>
        <time>2012-01-19T10:24:00Z</time>
      </trkpt>
      <trkpt lat="47.23156" lon="-1.59718">
        <ele>17.5</ele>
        <time>2012-01-19T10:24:02Z</time>
      </trkpt>
      <trkpt lat="47.23159" lon="-1.5972">
        <ele>17.7</ele>
        <time>2012-01-19T10:24:04Z</time>
      </trkpt>
      <trkpt lat="47.23162" lon="-1.59722">
        <ele>17.7</ele>
        <time>2012-01-19T10:24:06Z</time>
      </trkpt>
      <trkpt lat="47.23165" lon="-1.59724">
        <ele>18</ele>
        <time>2012-01-19T10:24:08Z</time>
      </trkpt>
      <trkpt lat="47.23168" lon="-1.59726">
        <ele>17.6</ele>
        <time>2012-01-19T10:24:10Z</time>
      </trkpt>
      <trkpt lat="47.2317" lon="-1.5973">
        <ele>17.6</ele>
        <time>2012-01-19T10:24:13Z</time>
      </trkpt>
      <trkpt lat="47.23173" lon="-1.59735">
        <ele>17.5</ele>
        <time>2012-01-19T10:24:16Z</time>
      </trkpt>
      <trkpt lat="47.23175" lon="-1.5974">
        <ele>17.2</ele>
        <time>2012-01-19T10:24:19Z</time>
      </trkpt>
      <trkpt lat="47.23178" lon="-1.59744">
        <ele>17.2</ele>
        <time>2012-01-19T10:24:22Z</time>
      </trkpt>
      <trkpt lat="47.2318" lon="-1.59749">
        <ele>17.2</ele>
        <time>2012-01-19T10:24:25Z</time>
      </trkpt>
      <trkpt lat="47.23183" lon="-1.59753">
        <ele>17.7</ele>
        <time>2012-01-19T10:24:28Z</time>
      </trkpt>
      <trkpt lat="47.23185" lon="-1.59758">
        <ele>18.2</ele>
        <time>2012-01-19T10:24:31Z</time>
      </trkpt>
      <trkpt lat="47.23186" lon="-1.59763">
        <ele>18.2</ele>
        <time>2012-01-19T10:24:34Z</time>
      </trkpt>
      <trkpt lat="47.23189" lon="-1.59768">
        <ele>18.2</ele>
        <time>2012-01-19T10:24:37Z</time>
      </trkpt>
      <trkpt lat="47.23191" lon="-1.59772">
        <ele>18.2</ele>
        <time>2012-01-19T10:24:40Z</time>
      </trkpt>
      <trkpt lat="47.23192" lon="-1.59772">
        <ele>17.8</ele>
        <time>2012-01-19T10:24:41Z</time>
      </trkpt>
      <trkpt lat="47.23199" lon="-1.59775">
        <ele>18.8</ele>
        <time>2012-01-19T10:24:48Z</time>
      </trkpt>
      <trkpt lat="47.23203" lon="-1.59774">
        <ele>19.3</ele>
        <time>2012-01-19T10:24:52Z</time>
      </trkpt>
      <trkpt lat="47.23208" lon="-1.59775">
        <ele>18.8</ele>
        <time>2012-01-19T10:24:55Z</time>
      </trkpt>
      <trkpt lat="47.23211" lon="-1.59778">
        <ele>18.2</ele>
        <time>2012-01-19T10:24:58Z</time>
      </trkpt>
      <trkpt lat="47.23215" lon="-1.59781">
        <ele>17.3</ele>
        <time>2012-01-19T10:25:01Z</time>
      </trkpt>
      <trkpt lat="47.23217" lon="-1.59783">
        <ele>17.6</ele>
        <time>2012-01-19T10:25:03Z</time>
      </trkpt>
      <trkpt lat="47.2322" lon="-1.59785">
        <ele>18.2</ele>
        <time>2012-01-19T10:25:05Z</time>
      </trkpt>
      <trkpt lat="47.23223" lon="-1.59787">
        <ele>18.2</ele>
        <time>2012-01-19T10:25:07Z</time>
      </trkpt>
      <trkpt lat="47.23226" lon="-1.59789">
        <ele>18.2</ele>
        <time>2012-01-19T10:25:09Z</time>
      </trkpt>
      <trkpt lat="47.23229" lon="-1.59793">
        <ele>17.2</ele>
        <time>2012-01-19T10:25:12Z</time>
      </trkpt>
      <trkpt lat="47.23231" lon="-1.59796">
        <ele>17.3</ele>
        <time>2012-01-19T10:25:14Z</time>
      </trkpt>
      <trkpt lat="47.23233" lon="-1.598">
        <ele>17.2</ele>
        <time>2012-01-19T10:25:16Z</time>
      </trkpt>
      <trkpt lat="47.23236" lon="-1.59805">
        <ele>17.1</ele>
        <time>2012-01-19T10:25:19Z</time>
      </trkpt>
      <trkpt lat="47.23239" lon="-1.5981">
        <ele>17.8</ele>
        <time>2012-01-19T10:25:22Z</time>
      </trkpt>
      <trkpt lat="47.23241" lon="-1.59813">
        <ele>17.7</ele>
        <time>2012-01-19T10:25:24Z</time>
      </trkpt>
      <trkpt lat="47.23245" lon="-1.59817">
        <ele>18</ele>
        <time>2012-01-19T10:25:27Z</time>
      </trkpt>
      <trkpt lat="47.23248" lon="-1.5982">
        <ele>17.6</ele>
        <time>2012-01-19T10:25:30Z</time>
      </trkpt>
      <trkpt lat="47.23251" lon="-1.59824">
        <ele>17.3</ele>
        <time>2012-01-19T10:25:33Z</time>
      </trkpt>
      <trkpt lat="47.23254" lon="-1.59829">
        <ele>17.8</ele>
        <time>2012-01-19T10:25:36Z</time>
      </trkpt>
      <trkpt lat="47.23257" lon="-1.59833">
        <ele>18.1</ele>
        <time>2012-01-19T10:25:39Z</time>
      </trkpt>
      <trkpt lat="47.23259" lon="-1.59838">
        <ele>18.1</ele>
        <time>2012-01-19T10:25:42Z</time>
      </trkpt>
      <trkpt lat="47.2326" lon="-1.5984">
        <ele>18.1</ele>
        <time>2012-01-19T10:25:43Z</time>
      </trkpt>
      <trkpt lat="47.23263" lon="-1.59845">
        <ele>18.1</ele>
        <time>2012-01-19T10:25:46Z</time>
      </trkpt>
      <trkpt lat="47.23266" lon="-1.59847">
        <ele>18</ele>
        <time>2012-01-19T10:25:48Z</time>
      </trkpt>
      <trkpt lat="47.23268" lon="-1.59851">
        <ele>17.7</ele>
        <time>2012-01-19T10:25:50Z</time>
      </trkpt>
      <trkpt lat="47.2327" lon="-1.59854">
        <ele>17.7</ele>
        <time>2012-01-19T10:25:52Z</time>
      </trkpt>
      <trkpt lat="47.23274" lon="-1.59857">
        <ele>17.7</ele>
        <time>2012-01-19T10:25:55Z</time>
      </trkpt>
      <trkpt lat="47.23278" lon="-1.5986">
        <ele>17.8</ele>
        <time>2012-01-19T10:25:57Z</time>
      </trkpt>
      <trkpt lat="47.23281" lon="-1.59862">
        <ele>17.7</ele>
        <time>2012-01-19T10:25:59Z</time>
      </trkpt>
      <trkpt lat="47.23284" lon="-1.59866">
        <ele>18</ele>
        <time>2012-01-19T10:26:02Z</time>
      </trkpt>
      <trkpt lat="47.23287" lon="-1.59868">
        <ele>18.3</ele>
        <time>2012-01-19T10:26:04Z</time>
      </trkpt>
      <trkpt lat="47.2329" lon="-1.59871">
        <ele>18.6</ele>
        <time>2012-01-19T10:26:06Z</time>
      </trkpt>
      <trkpt lat="47.23293" lon="-1.59873">
        <ele>18.2</ele>
        <time>2012-01-19T10:26:08Z</time>
      </trkpt>
      <trkpt lat="47.23296" lon="-1.59878">
        <ele>17.7</ele>
        <time>2012-01-19T10:26:11Z</time>
      </trkpt>
      <trkpt lat="47.23299" lon="-1.59881">
        <ele>17.3</ele>
        <time>2012-01-19T10:26:14Z</time>
      </trkpt>
      <trkpt lat="47.23302" lon="-1.59886">
        <ele>17.5</ele>
        <time>2012-01-19T10:26:17Z</time>
      </trkpt>
      <trkpt lat="47.23305" lon="-1.5989">
        <ele>17.6</ele>
        <time>2012-01-19T10:26:20Z</time>
      </trkpt>
      <trkpt lat="47.23308" lon="-1.59894">
        <ele>18</ele>
        <time>2012-01-19T10:26:23Z</time>
      </trkpt>
      <trkpt lat="47.23311" lon="-1.59898">
        <ele>18.6</ele>
        <time>2012-01-19T10:26:26Z</time>
      </trkpt>
      <trkpt lat="47.23314" lon="-1.59901">
        <ele>19.3</ele>
        <time>2012-01-19T10:26:28Z</time>
      </trkpt>
      <trkpt lat="47.23318" lon="-1.59905">
        <ele>19.8</ele>
        <time>2012-01-19T10:26:31Z</time>
      </trkpt>
      <trkpt lat="47.2332" lon="-1.59908">
        <ele>20</ele>
        <time>2012-01-19T10:26:33Z</time>
      </trkpt>
      <trkpt lat="47.23323" lon="-1.59913">
        <ele>19.8</ele>
        <time>2012-01-19T10:26:36Z</time>
      </trkpt>
      <trkpt lat="47.23325" lon="-1.59916">
        <ele>19.7</ele>
        <time>2012-01-19T10:26:38Z</time>
      </trkpt>
      <trkpt lat="47.23328" lon="-1.59921">
        <ele>19.2</ele>
        <time>2012-01-19T10:26:41Z</time>
      </trkpt>
      <trkpt lat="47.23331" lon="-1.59925">
        <ele>19.5</ele>
        <time>2012-01-19T10:26:44Z</time>
      </trkpt>
      <trkpt lat="47.23332" lon="-1.59927">
        <ele>19.7</ele>
        <time>2012-01-19T10:26:45Z</time>
      </trkpt>
      <trkpt lat="47.23336" lon="-1.59933">
        <ele>20</ele>
        <time>2012-01-19T10:26:49Z</time>
      </trkpt>
      <trkpt lat="47.23338" lon="-1.59937">
        <ele>20.2</ele>
        <time>2012-01-19T10:26:51Z</time>
      </trkpt>
      <trkpt lat="47.23339" lon="-1.59942">
        <ele>20.6</ele>
        <time>2012-01-19T10:26:53Z</time>
      </trkpt>
      <trkpt lat="47.2334" lon="-1.59947">
        <ele>20.6</ele>
        <time>2012-01-19T10:26:55Z</time>
      </trkpt>
      <trkpt lat="47.23341" lon="-1.59952">
        <ele>20.3</ele>
        <time>2012-01-19T10:26:57Z</time>
      </trkpt>
      <trkpt lat="47.23342" lon="-1.59957">
        <ele>20.7</ele>
        <time>2012-01-19T10:26:59Z</time>
      </trkpt>
      <trkpt lat="47.23343" lon="-1.59962">
        <ele>21</ele>
        <time>2012-01-19T10:27:01Z</time>
      </trkpt>
      <trkpt lat="47.23345" lon="-1.59966">
        <ele>20.7</ele>
        <time>2012-01-19T10:27:03Z</time>
      </trkpt>
      <trkpt lat="47.23346" lon="-1.59971">
        <ele>20.6</ele>
        <time>2012-01-19T10:27:05Z</time>
      </trkpt>
      <trkpt lat="47.23348" lon="-1.59975">
        <ele>20.2</ele>
        <time>2012-01-19T10:27:07Z</time>
      </trkpt>
      <trkpt lat="47.23349" lon="-1.5998">
        <ele>20.1</ele>
        <time>2012-01-19T10:27:09Z</time>
      </trkpt>
      <trkpt lat="47.2335" lon="-1.59985">
        <ele>19.8</ele>
        <time>2012-01-19T10:27:11Z</time>
      </trkpt>
      <trkpt lat="47.2335" lon="-1.5999">
        <ele>19.5</ele>
        <time>2012-01-19T10:27:13Z</time>
      </trkpt>
      <trkpt lat="47.2335" lon="-1.59995">
        <ele>19.7</ele>
        <time>2012-01-19T10:27:15Z</time>
      </trkpt>
      <trkpt lat="47.23351" lon="-1.60001">
        <ele>19.7</ele>
        <time>2012-01-19T10:27:18Z</time>
      </trkpt>
      <trkpt lat="47.23352" lon="-1.60006">
        <ele>19.7</ele>
        <time>2012-01-19T10:27:21Z</time>
      </trkpt>
      <trkpt lat="47.23354" lon="-1.60012">
        <ele>20.1</ele>
        <time>2012-01-19T10:27:24Z</time>
      </trkpt>
      <trkpt lat="47.23354" lon="-1.60016">
        <ele>20.2</ele>
        <time>2012-01-19T10:27:26Z</time>
      </trkpt>
      <trkpt lat="47.23355" lon="-1.60021">
        <ele>20.2</ele>
        <time>2012-01-19T10:27:28Z</time>
      </trkpt>
      <trkpt lat="47.23356" lon="-1.60025">
        <ele>19.8</ele>
        <time>2012-01-19T10:27:30Z</time>
      </trkpt>
      <trkpt lat="47.23357" lon="-1.60032">
        <ele>19.5</ele>
        <time>2012-01-19T10:27:33Z</time>
      </trkpt>
      <trkpt lat="47.23358" lon="-1.60038">
        <ele>19.6</ele>
        <time>2012-01-19T10:27:36Z</time>
      </trkpt>
      <trkpt lat="47.23359" lon="-1.60042">
        <ele>20.1</ele>
        <time>2012-01-19T10:27:38Z</time>
      </trkpt>
      <trkpt lat="47.2336" lon="-1.60047">
        <ele>20</ele>
        <time>2012-01-19T10:27:40Z</time>
      </trkpt>
      <trkpt lat="47.23361" lon="-1.60051">
        <ele>19.7</ele>
        <time>2012-01-19T10:27:42Z</time>
      </trkpt>
      <trkpt lat="47.23363" lon="-1.60055">
        <ele>20</ele>
        <time>2012-01-19T10:27:44Z</time>
      </trkpt>
      <trkpt lat="47.23364" lon="-1.60061">
        <ele>19.7</ele>
        <time>2012-01-19T10:27:47Z</time>
      </trkpt>
      <trkpt lat="47.23365" lon="-1.60063">
        <ele>19.7</ele>
        <time>2012-01-19T10:27:48Z</time>
      </trkpt>
      <trkpt lat="47.23367" lon="-1.60073">
        <ele>19.8</ele>
        <time>2012-01-19T10:27:53Z</time>
      </trkpt>
      <trkpt lat="47.23369" lon="-1.60078">
        <ele>19.7</ele>
        <time>2012-01-19T10:27:56Z</time>
      </trkpt>
      <trkpt lat="47.23371" lon="-1.60084">
        <ele>19.7</ele>
        <time>2012-01-19T10:27:59Z</time>
      </trkpt>
      <trkpt lat="47.23372" lon="-1.60089">
        <ele>20</ele>
        <time>2012-01-19T10:28:02Z</time>
      </trkpt>
      <trkpt lat="47.23375" lon="-1.60094">
        <ele>20</ele>
        <time>2012-01-19T10:28:06Z</time>
      </trkpt>
      <trkpt lat="47.23377" lon="-1.60098">
        <ele>19.8</ele>
        <time>2012-01-19T10:28:09Z</time>
      </trkpt>
      <trkpt lat="47.2338" lon="-1.60103">
        <ele>19.7</ele>
        <time>2012-01-19T10:28:12Z</time>
      </trkpt>
      <trkpt lat="47.23381" lon="-1.60109">
        <ele>19.6</ele>
        <time>2012-01-19T10:28:15Z</time>
      </trkpt>
      <trkpt lat="47.23382" lon="-1.60115">
        <ele>19.2</ele>
        <time>2012-01-19T10:28:19Z</time>
      </trkpt>
      <trkpt lat="47.23384" lon="-1.60121">
        <ele>19</ele>
        <time>2012-01-19T10:28:22Z</time>
      </trkpt>
      <trkpt lat="47.23385" lon="-1.60126">
        <ele>18.7</ele>
        <time>2012-01-19T10:28:25Z</time>
      </trkpt>
      <trkpt lat="47.23386" lon="-1.60132">
        <ele>18.7</ele>
        <time>2012-01-19T10:28:28Z</time>
      </trkpt>
      <trkpt lat="47.23388" lon="-1.60137">
        <ele>18.7</ele>
        <time>2012-01-19T10:28:31Z</time>
      </trkpt>
      <trkpt lat="47.23391" lon="-1.60142">
        <ele>18.3</ele>
        <time>2012-01-19T10:28:34Z</time>
      </trkpt>
      <trkpt lat="47.23392" lon="-1.60148">
        <ele>18.5</ele>
        <time>2012-01-19T10:28:37Z</time>
      </trkpt>
      <trkpt lat="47.23394" lon="-1.60152">
        <ele>18.2</ele>
        <time>2012-01-19T10:28:39Z</time>
      </trkpt>
      <trkpt lat="47.23395" lon="-1.60156">
        <ele>18.2</ele>
        <time>2012-01-19T10:28:41Z</time>
      </trkpt>
      <trkpt lat="47.23397" lon="-1.6016">
        <ele>18.3</ele>
        <time>2012-01-19T10:28:43Z</time>
      </trkpt>
      <trkpt lat="47.23398" lon="-1.60163">
        <ele>18.6</ele>
        <time>2012-01-19T10:28:45Z</time>
      </trkpt>
      <trkpt lat="47.234" lon="-1.60167">
        <ele>18.5</ele>
        <time>2012-01-19T10:28:47Z</time>
      </trkpt>
      <trkpt lat="47.23402" lon="-1.60171">
        <ele>18.2</ele>
        <time>2012-01-19T10:28:49Z</time>
      </trkpt>
      <trkpt lat="47.23402" lon="-1.60173">
        <ele>18.3</ele>
        <time>2012-01-19T10:28:50Z</time>
      </trkpt>
      <trkpt lat="47.23406" lon="-1.60181">
        <ele>18.3</ele>
        <time>2012-01-19T10:28:55Z</time>
      </trkpt>
      <trkpt lat="47.23408" lon="-1.60186">
        <ele>18.7</ele>
        <time>2012-01-19T10:28:58Z</time>
      </trkpt>
      <trkpt lat="47.23411" lon="-1.60191">
        <ele>18.8</ele>
        <time>2012-01-19T10:29:01Z</time>
      </trkpt>
      <trkpt lat="47.23413" lon="-1.60194">
        <ele>19.1</ele>
        <time>2012-01-19T10:29:03Z</time>
      </trkpt>
      <trkpt lat="47.23416" lon="-1.60198">
        <ele>19.2</ele>
        <time>2012-01-19T10:29:05Z</time>
      </trkpt>
      <trkpt lat="47.23418" lon="-1.60201">
        <ele>19.2</ele>
        <time>2012-01-19T10:29:07Z</time>
      </trkpt>
      <trkpt lat="47.2342" lon="-1.60206">
        <ele>19.2</ele>
        <time>2012-01-19T10:29:10Z</time>
      </trkpt>
      <trkpt lat="47.23423" lon="-1.60211">
        <ele>19.1</ele>
        <time>2012-01-19T10:29:13Z</time>
      </trkpt>
      <trkpt lat="47.23425" lon="-1.60216">
        <ele>19.2</ele>
        <time>2012-01-19T10:29:16Z</time>
      </trkpt>
      <trkpt lat="47.23428" lon="-1.60221">
        <ele>19.1</ele>
        <time>2012-01-19T10:29:19Z</time>
      </trkpt>
      <trkpt lat="47.23431" lon="-1.60224">
        <ele>18.8</ele>
        <time>2012-01-19T10:29:22Z</time>
      </trkpt>
      <trkpt lat="47.23434" lon="-1.60227">
        <ele>19.1</ele>
        <time>2012-01-19T10:29:25Z</time>
      </trkpt>
      <trkpt lat="47.23437" lon="-1.60232">
        <ele>18.8</ele>
        <time>2012-01-19T10:29:28Z</time>
      </trkpt>
      <trkpt lat="47.2344" lon="-1.60237">
        <ele>18.7</ele>
        <time>2012-01-19T10:29:31Z</time>
      </trkpt>
      <trkpt lat="47.23442" lon="-1.6024">
        <ele>19</ele>
        <time>2012-01-19T10:29:33Z</time>
      </trkpt>
      <trkpt lat="47.23446" lon="-1.60243">
        <ele>19.6</ele>
        <time>2012-01-19T10:29:36Z</time>
      </trkpt>
      <trkpt lat="47.23449" lon="-1.60247">
        <ele>19.5</ele>
        <time>2012-01-19T10:29:39Z</time>
      </trkpt>
      <trkpt lat="47.23452" lon="-1.60251">
        <ele>19.1</ele>
        <time>2012-01-19T10:29:42Z</time>
      </trkpt>
      <trkpt lat="47.23455" lon="-1.60254">
        <ele>18.8</ele>
        <time>2012-01-19T10:29:45Z</time>
      </trkpt>
      <trkpt lat="47.23459" lon="-1.60256">
        <ele>19</ele>
        <time>2012-01-19T10:29:48Z</time>
      </trkpt>
      <trkpt lat="47.23462" lon="-1.60258">
        <ele>19.2</ele>
        <time>2012-01-19T10:29:52Z</time>
      </trkpt>
      <trkpt lat="47.23463" lon="-1.60258">
        <ele>19.2</ele>
        <time>2012-01-19T10:29:53Z</time>
      </trkpt>
      <trkpt lat="47.2347" lon="-1.60261">
        <ele>19.2</ele>
        <time>2012-01-19T10:29:58Z</time>
      </trkpt>
      <trkpt lat="47.23473" lon="-1.60263">
        <ele>19.1</ele>
        <time>2012-01-19T10:30:00Z</time>
      </trkpt>
      <trkpt lat="47.23476" lon="-1.60266">
        <ele>19</ele>
        <time>2012-01-19T10:30:02Z</time>
      </trkpt>
      <trkpt lat="47.23478" lon="-1.60269">
        <ele>19.1</ele>
        <time>2012-01-19T10:30:04Z</time>
      </trkpt>
      <trkpt lat="47.23481" lon="-1.60271">
        <ele>19.2</ele>
        <time>2012-01-19T10:30:06Z</time>
      </trkpt>
      <trkpt lat="47.23484" lon="-1.60275">
        <ele>19.2</ele>
        <time>2012-01-19T10:30:09Z</time>
      </trkpt>
      <trkpt lat="47.23487" lon="-1.60278">
        <ele>18.6</ele>
        <time>2012-01-19T10:30:12Z</time>
      </trkpt>
      <trkpt lat="47.23489" lon="-1.60282">
        <ele>19.2</ele>
        <time>2012-01-19T10:30:15Z</time>
      </trkpt>
      <trkpt lat="47.23492" lon="-1.60286">
        <ele>19.8</ele>
        <time>2012-01-19T10:30:18Z</time>
      </trkpt>
      <trkpt lat="47.23496" lon="-1.6029">
        <ele>19.8</ele>
        <time>2012-01-19T10:30:21Z</time>
      </trkpt>
      <trkpt lat="47.23498" lon="-1.60293">
        <ele>19.8</ele>
        <time>2012-01-19T10:30:23Z</time>
      </trkpt>
      <trkpt lat="47.23501" lon="-1.60296">
        <ele>20</ele>
        <time>2012-01-19T10:30:25Z</time>
      </trkpt>
      <trkpt lat="47.23504" lon="-1.603">
        <ele>20.2</ele>
        <time>2012-01-19T10:30:28Z</time>
      </trkpt>
      <trkpt lat="47.23506" lon="-1.60304">
        <ele>20.2</ele>
        <time>2012-01-19T10:30:30Z</time>
      </trkpt>
      <trkpt lat="47.23507" lon="-1.60307">
        <ele>20</ele>
        <time>2012-01-19T10:30:32Z</time>
      </trkpt>
      <trkpt lat="47.2351" lon="-1.60312">
        <ele>19.8</ele>
        <time>2012-01-19T10:30:35Z</time>
      </trkpt>
      <trkpt lat="47.23513" lon="-1.60317">
        <ele>20</ele>
        <time>2012-01-19T10:30:38Z</time>
      </trkpt>
      <trkpt lat="47.23516" lon="-1.60321">
        <ele>19.2</ele>
        <time>2012-01-19T10:30:41Z</time>
      </trkpt>
      <trkpt lat="47.23519" lon="-1.60324">
        <ele>18.7</ele>
        <time>2012-01-19T10:30:43Z</time>
      </trkpt>
      <trkpt lat="47.23521" lon="-1.60328">
        <ele>18.3</ele>
        <time>2012-01-19T10:30:45Z</time>
      </trkpt>
      <trkpt lat="47.23523" lon="-1.60333">
        <ele>18.2</ele>
        <time>2012-01-19T10:30:48Z</time>
      </trkpt>
      <trkpt lat="47.23525" lon="-1.60337">
        <ele>18.1</ele>
        <time>2012-01-19T10:30:50Z</time>
      </trkpt>
      <trkpt lat="47.23526" lon="-1.60342">
        <ele>18.5</ele>
        <time>2012-01-19T10:30:53Z</time>
      </trkpt>
      <trkpt lat="47.23527" lon="-1.60344">
        <ele>18.6</ele>
        <time>2012-01-19T10:30:54Z</time>
      </trkpt>
      <trkpt lat="47.23529" lon="-1.60352">
        <ele>18.2</ele>
        <time>2012-01-19T10:30:58Z</time>
      </trkpt>
      <trkpt lat="47.2353" lon="-1.60356">
        <ele>18.2</ele>
        <time>2012-01-19T10:31:00Z</time>
      </trkpt>
      <trkpt lat="47.2353" lon="-1.60361">
        <ele>18.5</ele>
        <time>2012-01-19T10:31:02Z</time>
      </trkpt>
      <trkpt lat="47.23532" lon="-1.60366">
        <ele>18.6</ele>
        <time>2012-01-19T10:31:04Z</time>
      </trkpt>
      <trkpt lat="47.23533" lon="-1.60371">
        <ele>18.8</ele>
        <time>2012-01-19T10:31:07Z</time>
      </trkpt>
      <trkpt lat="47.23534" lon="-1.60376">
        <ele>18.8</ele>
        <time>2012-01-19T10:31:09Z</time>
      </trkpt>
      <trkpt lat="47.23535" lon="-1.60381">
        <ele>18.8</ele>
        <time>2012-01-19T10:31:11Z</time>
      </trkpt>
      <trkpt lat="47.23536" lon="-1.60386">
        <ele>18.8</ele>
        <time>2012-01-19T10:31:13Z</time>
      </trkpt>
      <trkpt lat="47.23536" lon="-1.60391">
        <ele>18.7</ele>
        <time>2012-01-19T10:31:15Z</time>
      </trkpt>
      <trkpt lat="47.23537" lon="-1.60395">
        <ele>19</ele>
        <time>2012-01-19T10:31:17Z</time>
      </trkpt>
      <trkpt lat="47.23537" lon="-1.604">
        <ele>19.2</ele>
        <time>2012-01-19T10:31:19Z</time>
      </trkpt>
      <trkpt lat="47.23538" lon="-1.60406">
        <ele>18.7</ele>
        <time>2012-01-19T10:31:21Z</time>
      </trkpt>
      <trkpt lat="47.23539" lon="-1.60411">
        <ele>18.8</ele>
        <time>2012-01-19T10:31:23Z</time>
      </trkpt>
      <trkpt lat="47.23539" lon="-1.60416">
        <ele>19.2</ele>
        <time>2012-01-19T10:31:25Z</time>
      </trkpt>
      <trkpt lat="47.2354" lon="-1.60422">
        <ele>19.6</ele>
        <time>2012-01-19T10:31:27Z</time>
      </trkpt>
      <trkpt lat="47.23541" lon="-1.60428">
        <ele>19.7</ele>
        <time>2012-01-19T10:31:30Z</time>
      </trkpt>
      <trkpt lat="47.23542" lon="-1.60432">
        <ele>19.6</ele>
        <time>2012-01-19T10:31:33Z</time>
      </trkpt>
      <trkpt lat="47.23543" lon="-1.60437">
        <ele>19.7</ele>
        <time>2012-01-19T10:31:35Z</time>
      </trkpt>
      <trkpt lat="47.23544" lon="-1.60441">
        <ele>19.1</ele>
        <time>2012-01-19T10:31:37Z</time>
      </trkpt>
      <trkpt lat="47.23545" lon="-1.60447">
        <ele>19.3</ele>
        <time>2012-01-19T10:31:40Z</time>
      </trkpt>
      <trkpt lat="47.23546" lon="-1.60452">
        <ele>19.7</ele>
        <time>2012-01-19T10:31:42Z</time>
      </trkpt>
      <trkpt lat="47.23546" lon="-1.60456">
        <ele>20</ele>
        <time>2012-01-19T10:31:44Z</time>
      </trkpt>
      <trkpt lat="47.23547" lon="-1.60461">
        <ele>19.6</ele>
        <time>2012-01-19T10:31:46Z</time>
      </trkpt>
      <trkpt lat="47.23549" lon="-1.60464">
        <ele>18.7</ele>
        <time>2012-01-19T10:31:48Z</time>
      </trkpt>
      <trkpt lat="47.2355" lon="-1.60469">
        <ele>18.8</ele>
        <time>2012-01-19T10:31:50Z</time>
      </trkpt>
      <trkpt lat="47.23552" lon="-1.60473">
        <ele>19.2</ele>
        <time>2012-01-19T10:31:52Z</time>
      </trkpt>
      <trkpt lat="47.23554" lon="-1.60478">
        <ele>19.7</ele>
        <time>2012-01-19T10:31:55Z</time>
      </trkpt>
      <trkpt lat="47.23555" lon="-1.6048">
        <ele>19.6</ele>
        <time>2012-01-19T10:31:56Z</time>
      </trkpt>
      <trkpt lat="47.23557" lon="-1.60489">
        <ele>19.3</ele>
        <time>2012-01-19T10:32:01Z</time>
      </trkpt>
      <trkpt lat="47.23559" lon="-1.60495">
        <ele>19.2</ele>
        <time>2012-01-19T10:32:04Z</time>
      </trkpt>
      <trkpt lat="47.23559" lon="-1.605">
        <ele>19.3</ele>
        <time>2012-01-19T10:32:06Z</time>
      </trkpt>
      <trkpt lat="47.23561" lon="-1.60504">
        <ele>19.5</ele>
        <time>2012-01-19T10:32:08Z</time>
      </trkpt>
      <trkpt lat="47.23562" lon="-1.6051">
        <ele>19.6</ele>
        <time>2012-01-19T10:32:11Z</time>
      </trkpt>
      <trkpt lat="47.23564" lon="-1.60515">
        <ele>19.7</ele>
        <time>2012-01-19T10:32:14Z</time>
      </trkpt>
      <trkpt lat="47.23564" lon="-1.60522">
        <ele>19.8</ele>
        <time>2012-01-19T10:32:17Z</time>
      </trkpt>
      <trkpt lat="47.23565" lon="-1.60528">
        <ele>20.1</ele>
        <time>2012-01-19T10:32:20Z</time>
      </trkpt>
      <trkpt lat="47.23566" lon="-1.60533">
        <ele>19.3</ele>
        <time>2012-01-19T10:32:23Z</time>
      </trkpt>
      <trkpt lat="47.23566" lon="-1.60539">
        <ele>19.5</ele>
        <time>2012-01-19T10:32:26Z</time>
      </trkpt>
      <trkpt lat="47.23566" lon="-1.60545">
        <ele>19.7</ele>
        <time>2012-01-19T10:32:29Z</time>
      </trkpt>
      <trkpt lat="47.23566" lon="-1.60551">
        <ele>20</ele>
        <time>2012-01-19T10:32:32Z</time>
      </trkpt>
      <trkpt lat="47.23566" lon="-1.60557">
        <ele>20</ele>
        <time>2012-01-19T10:32:35Z</time>
      </trkpt>
      <trkpt lat="47.23568" lon="-1.60564">
        <ele>20.1</ele>
        <time>2012-01-19T10:32:38Z</time>
      </trkpt>
      <trkpt lat="47.2357" lon="-1.60569">
        <ele>20</ele>
        <time>2012-01-19T10:32:41Z</time>
      </trkpt>
      <trkpt lat="47.23571" lon="-1.60573">
        <ele>19.7</ele>
        <time>2012-01-19T10:32:43Z</time>
      </trkpt>
      <trkpt lat="47.23573" lon="-1.60577">
        <ele>19.5</ele>
        <time>2012-01-19T10:32:45Z</time>
      </trkpt>
      <trkpt lat="47.23575" lon="-1.60582">
        <ele>20.5</ele>
        <time>2012-01-19T10:32:48Z</time>
      </trkpt>
      <trkpt lat="47.23577" lon="-1.60587">
        <ele>20.2</ele>
        <time>2012-01-19T10:32:51Z</time>
      </trkpt>
      <trkpt lat="47.2358" lon="-1.6059">
        <ele>20.1</ele>
        <time>2012-01-19T10:32:53Z</time>
      </trkpt>
      <trkpt lat="47.23583" lon="-1.60594">
        <ele>19.8</ele>
        <time>2012-01-19T10:32:56Z</time>
      </trkpt>
      <trkpt lat="47.23584" lon="-1.60595">
        <ele>19.7</ele>
        <time>2012-01-19T10:32:57Z</time>
      </trkpt>
      <trkpt lat="47.2359" lon="-1.606">
        <ele>20.2</ele>
        <time>2012-01-19T10:33:02Z</time>
      </trkpt>
      <trkpt lat="47.23593" lon="-1.60603">
        <ele>21.1</ele>
        <time>2012-01-19T10:33:04Z</time>
      </trkpt>
      <trkpt lat="47.23595" lon="-1.60605">
        <ele>21.2</ele>
        <time>2012-01-19T10:33:06Z</time>
      </trkpt>
      <trkpt lat="47.23599" lon="-1.60609">
        <ele>21.1</ele>
        <time>2012-01-19T10:33:09Z</time>
      </trkpt>
      <trkpt lat="47.23601" lon="-1.60615">
        <ele>20.7</ele>
        <time>2012-01-19T10:33:13Z</time>
      </trkpt>
      <trkpt lat="47.23601" lon="-1.6062">
        <ele>20.5</ele>
        <time>2012-01-19T10:33:16Z</time>
      </trkpt>
      <trkpt lat="47.23603" lon="-1.60625">
        <ele>20.3</ele>
        <time>2012-01-19T10:33:19Z</time>
      </trkpt>
      <trkpt lat="47.23605" lon="-1.60629">
        <ele>21</ele>
        <time>2012-01-19T10:33:22Z</time>
      </trkpt>
      <trkpt lat="47.23606" lon="-1.60633">
        <ele>21.3</ele>
        <time>2012-01-19T10:33:24Z</time>
      </trkpt>
      <trkpt lat="47.23607" lon="-1.60638">
        <ele>21.2</ele>
        <time>2012-01-19T10:33:26Z</time>
      </trkpt>
      <trkpt lat="47.2361" lon="-1.60643">
        <ele>20.7</ele>
        <time>2012-01-19T10:33:29Z</time>
      </trkpt>
      <trkpt lat="47.23612" lon="-1.60648">
        <ele>20.3</ele>
        <time>2012-01-19T10:33:32Z</time>
      </trkpt>
      <trkpt lat="47.23613" lon="-1.60653">
        <ele>20.5</ele>
        <time>2012-01-19T10:33:35Z</time>
      </trkpt>
      <trkpt lat="47.23616" lon="-1.60658">
        <ele>20.5</ele>
        <time>2012-01-19T10:33:38Z</time>
      </trkpt>
      <trkpt lat="47.23619" lon="-1.60661">
        <ele>20.2</ele>
        <time>2012-01-19T10:33:41Z</time>
      </trkpt>
      <trkpt lat="47.23622" lon="-1.60665">
        <ele>19.7</ele>
        <time>2012-01-19T10:33:45Z</time>
      </trkpt>
      <trkpt lat="47.23625" lon="-1.6067">
        <ele>20.2</ele>
        <time>2012-01-19T10:33:48Z</time>
      </trkpt>
      <trkpt lat="47.23627" lon="-1.60673">
        <ele>20.3</ele>
        <time>2012-01-19T10:33:50Z</time>
      </trkpt>
      <trkpt lat="47.2363" lon="-1.60677">
        <ele>20.3</ele>
        <time>2012-01-19T10:33:53Z</time>
      </trkpt>
      <trkpt lat="47.23632" lon="-1.6068">
        <ele>20.6</ele>
        <time>2012-01-19T10:33:55Z</time>
      </trkpt>
      <trkpt lat="47.23635" lon="-1.60683">
        <ele>20.2</ele>
        <time>2012-01-19T10:33:57Z</time>
      </trkpt>
      <trkpt lat="47.23636" lon="-1.60685">
        <ele>19.8</ele>
        <time>2012-01-19T10:33:58Z</time>
      </trkpt>
      <trkpt lat="47.2364" lon="-1.60689">
        <ele>20.1</ele>
        <time>2012-01-19T10:34:01Z</time>
      </trkpt>
      <trkpt lat="47.23644" lon="-1.60691">
        <ele>20.5</ele>
        <time>2012-01-19T10:34:04Z</time>
      </trkpt>
      <trkpt lat="47.23647" lon="-1.60694">
        <ele>20.6</ele>
        <time>2012-01-19T10:34:06Z</time>
      </trkpt>
      <trkpt lat="47.2365" lon="-1.60696">
        <ele>20.5</ele>
        <time>2012-01-19T10:34:08Z</time>
      </trkpt>
      <trkpt lat="47.23654" lon="-1.60699">
        <ele>19.8</ele>
        <time>2012-01-19T10:34:11Z</time>
      </trkpt>
      <trkpt lat="47.23656" lon="-1.60702">
        <ele>19.7</ele>
        <time>2012-01-19T10:34:13Z</time>
      </trkpt>
      <trkpt lat="47.23659" lon="-1.60705">
        <ele>19.7</ele>
        <time>2012-01-19T10:34:15Z</time>
      </trkpt>
      <trkpt lat="47.23662" lon="-1.60709">
        <ele>20</ele>
        <time>2012-01-19T10:34:18Z</time>
      </trkpt>
      <trkpt lat="47.23665" lon="-1.60712">
        <ele>20.1</ele>
        <time>2012-01-19T10:34:20Z</time>
      </trkpt>
      <trkpt lat="47.23667" lon="-1.60717">
        <ele>20.1</ele>
        <time>2012-01-19T10:34:23Z</time>
      </trkpt>
      <trkpt lat="47.23671" lon="-1.60721">
        <ele>19.6</ele>
        <time>2012-01-19T10:34:26Z</time>
      </trkpt>
      <trkpt lat="47.23673" lon="-1.60724">
        <ele>19.7</ele>
        <time>2012-01-19T10:34:28Z</time>
      </trkpt>
      <trkpt lat="47.23676" lon="-1.60726">
        <ele>20.2</ele>
        <time>2012-01-19T10:34:30Z</time>
      </trkpt>
      <trkpt lat="47.23678" lon="-1.60729">
        <ele>20.7</ele>
        <time>2012-01-19T10:34:32Z</time>
      </trkpt>
      <trkpt lat="47.2368" lon="-1.60733">
        <ele>21.2</ele>
        <time>2012-01-19T10:34:34Z</time>
      </trkpt>
      <trkpt lat="47.23681" lon="-1.60737">
        <ele>20.8</ele>
        <time>2012-01-19T10:34:36Z</time>
      </trkpt>
      <trkpt lat="47.23683" lon="-1.60742">
        <ele>20.7</ele>
        <time>2012-01-19T10:34:38Z</time>
      </trkpt>
      <trkpt lat="47.23685" lon="-1.60745">
        <ele>20.7</ele>
        <time>2012-01-19T10:34:40Z</time>
      </trkpt>
      <trkpt lat="47.23687" lon="-1.60749">
        <ele>20.7</ele>
        <time>2012-01-19T10:34:42Z</time>
      </trkpt>
      <trkpt lat="47.23689" lon="-1.60755">
        <ele>21</ele>
        <time>2012-01-19T10:34:45Z</time>
      </trkpt>
      <trkpt lat="47.23691" lon="-1.6076">
        <ele>21.2</ele>
        <time>2012-01-19T10:34:48Z</time>
      </trkpt>
      <trkpt lat="47.23692" lon="-1.60766">
        <ele>20.8</ele>
        <time>2012-01-19T10:34:51Z</time>
      </trkpt>
      <trkpt lat="47.23692" lon="-1.60772">
        <ele>20.5</ele>
        <time>2012-01-19T10:34:54Z</time>
      </trkpt>
      <trkpt lat="47.23691" lon="-1.60778">
        <ele>20.3</ele>
        <time>2012-01-19T10:34:57Z</time>
      </trkpt>
      <trkpt lat="47.2369" lon="-1.60784">
        <ele>20.3</ele>
        <time>2012-01-19T10:35:00Z</time>
      </trkpt>
      <trkpt lat="47.23689" lon="-1.60786">
        <ele>20.5</ele>
        <time>2012-01-19T10:35:01Z</time>
      </trkpt>
      <trkpt lat="47.23685" lon="-1.60794">
        <ele>20.5</ele>
        <time>2012-01-19T10:35:06Z</time>
      </trkpt>
      <trkpt lat="47.23684" lon="-1.608">
        <ele>20.1</ele>
        <time>2012-01-19T10:35:09Z</time>
      </trkpt>
      <trkpt lat="47.23682" lon="-1.60805">
        <ele>20.8</ele>
        <time>2012-01-19T10:35:12Z</time>
      </trkpt>
      <trkpt lat="47.23681" lon="-1.60811">
        <ele>20.6</ele>
        <time>2012-01-19T10:35:15Z</time>
      </trkpt>
      <trkpt lat="47.23679" lon="-1.60816">
        <ele>20.7</ele>
        <time>2012-01-19T10:35:18Z</time>
      </trkpt>
      <trkpt lat="47.23678" lon="-1.60821">
        <ele>20.7</ele>
        <time>2012-01-19T10:35:20Z</time>
      </trkpt>
      <trkpt lat="47.23677" lon="-1.60825">
        <ele>20.7</ele>
        <time>2012-01-19T10:35:22Z</time>
      </trkpt>
      <trkpt lat="47.23676" lon="-1.6083">
        <ele>20.7</ele>
        <time>2012-01-19T10:35:24Z</time>
      </trkpt>
      <trkpt lat="47.23675" lon="-1.60836">
        <ele>20.6</ele>
        <time>2012-01-19T10:35:27Z</time>
      </trkpt>
      <trkpt lat="47.23675" lon="-1.60842">
        <ele>20.3</ele>
        <time>2012-01-19T10:35:30Z</time>
      </trkpt>
      <trkpt lat="47.23674" lon="-1.60849">
        <ele>20.5</ele>
        <time>2012-01-19T10:35:33Z</time>
      </trkpt>
      <trkpt lat="47.23673" lon="-1.60854">
        <ele>21</ele>
        <time>2012-01-19T10:35:36Z</time>
      </trkpt>
      <trkpt lat="47.23672" lon="-1.6086">
        <ele>21.2</ele>
        <time>2012-01-19T10:35:39Z</time>
      </trkpt>
      <trkpt lat="47.23671" lon="-1.60865">
        <ele>21.3</ele>
        <time>2012-01-19T10:35:42Z</time>
      </trkpt>
      <trkpt lat="47.23669" lon="-1.6087">
        <ele>21.7</ele>
        <time>2012-01-19T10:35:45Z</time>
      </trkpt>
      <trkpt lat="47.23667" lon="-1.60874">
        <ele>21.7</ele>
        <time>2012-01-19T10:35:48Z</time>
      </trkpt>
      <trkpt lat="47.23664" lon="-1.60878">
        <ele>21.7</ele>
        <time>2012-01-19T10:35:51Z</time>
      </trkpt>
      <trkpt lat="47.23661" lon="-1.60882">
        <ele>22.2</ele>
        <time>2012-01-19T10:35:54Z</time>
      </trkpt>
      <trkpt lat="47.23659" lon="-1.60886">
        <ele>21.7</ele>
        <time>2012-01-19T10:35:57Z</time>
      </trkpt>
      <trkpt lat="47.23656" lon="-1.60891">
        <ele>21.3</ele>
        <time>2012-01-19T10:36:00Z</time>
      </trkpt>
      <trkpt lat="47.23655" lon="-1.60895">
        <ele>21.2</ele>
        <time>2012-01-19T10:36:02Z</time>
      </trkpt>
      <trkpt lat="47.23654" lon="-1.60897">
        <ele>21.2</ele>
        <time>2012-01-19T10:36:03Z</time>
      </trkpt>
      <trkpt lat="47.23654" lon="-1.60906">
        <ele>21.1</ele>
        <time>2012-01-19T10:36:07Z</time>
      </trkpt>
      <trkpt lat="47.23653" lon="-1.60911">
        <ele>20.7</ele>
        <time>2012-01-19T10:36:10Z</time>
      </trkpt>
      <trkpt lat="47.23654" lon="-1.60917">
        <ele>20.5</ele>
        <time>2012-01-19T10:36:14Z</time>
      </trkpt>
      <trkpt lat="47.23655" lon="-1.60922">
        <ele>20.6</ele>
        <time>2012-01-19T10:36:17Z</time>
      </trkpt>
      <trkpt lat="47.23654" lon="-1.60928">
        <ele>20.5</ele>
        <time>2012-01-19T10:36:21Z</time>
      </trkpt>
      <trkpt lat="47.23654" lon="-1.60933">
        <ele>20.7</ele>
        <time>2012-01-19T10:36:24Z</time>
      </trkpt>
      <trkpt lat="47.23654" lon="-1.60938">
        <ele>21.2</ele>
        <time>2012-01-19T10:36:27Z</time>
      </trkpt>
      <trkpt lat="47.23654" lon="-1.60944">
        <ele>21.6</ele>
        <time>2012-01-19T10:36:30Z</time>
      </trkpt>
      <trkpt lat="47.23655" lon="-1.60949">
        <ele>21.2</ele>
        <time>2012-01-19T10:36:33Z</time>
      </trkpt>
      <trkpt lat="47.23655" lon="-1.60954">
        <ele>21.6</ele>
        <time>2012-01-19T10:36:36Z</time>
      </trkpt>
      <trkpt lat="47.23656" lon="-1.6096">
        <ele>22</ele>
        <time>2012-01-19T10:36:39Z</time>
      </trkpt>
      <trkpt lat="47.23656" lon="-1.60965">
        <ele>22.2</ele>
        <time>2012-01-19T10:36:42Z</time>
      </trkpt>
      <trkpt lat="47.23657" lon="-1.6097">
        <ele>22</ele>
        <time>2012-01-19T10:36:45Z</time>
      </trkpt>
      <trkpt lat="47.23657" lon="-1.60976">
        <ele>22.3</ele>
        <time>2012-01-19T10:36:49Z</time>
      </trkpt>
      <trkpt lat="47.23659" lon="-1.6098">
        <ele>22.6</ele>
        <time>2012-01-19T10:36:52Z</time>
      </trkpt>
      <trkpt lat="47.2366" lon="-1.60985">
        <ele>23</ele>
        <time>2012-01-19T10:36:55Z</time>
      </trkpt>
      <trkpt lat="47.23662" lon="-1.6099">
        <ele>23</ele>
        <time>2012-01-19T10:36:58Z</time>
      </trkpt>
      <trkpt lat="47.23662" lon="-1.60995">
        <ele>23.8</ele>
        <time>2012-01-19T10:37:01Z</time>
      </trkpt>
      <trkpt lat="47.23662" lon="-1.61001">
        <ele>25</ele>
        <time>2012-01-19T10:37:04Z</time>
      </trkpt>
      <trkpt lat="47.23662" lon="-1.61002">
        <ele>25.2</ele>
        <time>2012-01-19T10:37:05Z</time>
      </trkpt>
      <trkpt lat="47.23661" lon="-1.61012">
        <ele>26.7</ele>
        <time>2012-01-19T10:37:10Z</time>
      </trkpt>
      <trkpt lat="47.2366" lon="-1.61019">
        <ele>27</ele>
        <time>2012-01-19T10:37:13Z</time>
      </trkpt>
      <trkpt lat="47.23661" lon="-1.61024">
        <ele>27.5</ele>
        <time>2012-01-19T10:37:16Z</time>
      </trkpt>
      <trkpt lat="47.2366" lon="-1.61031">
        <ele>27.7</ele>
        <time>2012-01-19T10:37:19Z</time>
      </trkpt>
      <trkpt lat="47.23659" lon="-1.61036">
        <ele>28</ele>
        <time>2012-01-19T10:37:22Z</time>
      </trkpt>
      <trkpt lat="47.23658" lon="-1.61041">
        <ele>28.1</ele>
        <time>2012-01-19T10:37:24Z</time>
      </trkpt>
      <trkpt lat="47.23657" lon="-1.61046">
        <ele>28</ele>
        <time>2012-01-19T10:37:27Z</time>
      </trkpt>
      <trkpt lat="47.23656" lon="-1.61052">
        <ele>27.7</ele>
        <time>2012-01-19T10:37:30Z</time>
      </trkpt>
      <trkpt lat="47.23654" lon="-1.61058">
        <ele>27.6</ele>
        <time>2012-01-19T10:37:33Z</time>
      </trkpt>
      <trkpt lat="47.23652" lon="-1.61062">
        <ele>28</ele>
        <time>2012-01-19T10:37:35Z</time>
      </trkpt>
      <trkpt lat="47.23651" lon="-1.61067">
        <ele>27.8</ele>
        <time>2012-01-19T10:37:37Z</time>
      </trkpt>
      <trkpt lat="47.2365" lon="-1.61072">
        <ele>28.2</ele>
        <time>2012-01-19T10:37:40Z</time>
      </trkpt>
      <trkpt lat="47.23649" lon="-1.61078">
        <ele>28.5</ele>
        <time>2012-01-19T10:37:43Z</time>
      </trkpt>
      <trkpt lat="47.23648" lon="-1.61083">
        <ele>28.2</ele>
        <time>2012-01-19T10:37:45Z</time>
      </trkpt>
      <trkpt lat="47.23646" lon="-1.61089">
        <ele>27.2</ele>
        <time>2012-01-19T10:37:48Z</time>
      </trkpt>
      <trkpt lat="47.23645" lon="-1.61093">
        <ele>27</ele>
        <time>2012-01-19T10:37:50Z</time>
      </trkpt>
      <trkpt lat="47.23643" lon="-1.61097">
        <ele>27</ele>
        <time>2012-01-19T10:37:52Z</time>
      </trkpt>
      <trkpt lat="47.23642" lon="-1.61101">
        <ele>26.2</ele>
        <time>2012-01-19T10:37:54Z</time>
      </trkpt>
      <trkpt lat="47.2364" lon="-1.61105">
        <ele>26</ele>
        <time>2012-01-19T10:37:56Z</time>
      </trkpt>
      <trkpt lat="47.2364" lon="-1.6111">
        <ele>25.8</ele>
        <time>2012-01-19T10:37:58Z</time>
      </trkpt>
      <trkpt lat="47.23639" lon="-1.61116">
        <ele>25.1</ele>
        <time>2012-01-19T10:38:01Z</time>
      </trkpt>
      <trkpt lat="47.2364" lon="-1.61122">
        <ele>25.3</ele>
        <time>2012-01-19T10:38:04Z</time>
      </trkpt>
      <trkpt lat="47.23641" lon="-1.61126">
        <ele>24.6</ele>
        <time>2012-01-19T10:38:07Z</time>
      </trkpt>
      <trkpt lat="47.23641" lon="-1.61128">
        <ele>24.5</ele>
        <time>2012-01-19T10:38:08Z</time>
      </trkpt>
      <trkpt lat="47.23644" lon="-1.61137">
        <ele>24.3</ele>
        <time>2012-01-19T10:38:13Z</time>
      </trkpt>
      <trkpt lat="47.23646" lon="-1.61142">
        <ele>25.2</ele>
        <time>2012-01-19T10:38:17Z</time>
      </trkpt>
      <trkpt lat="47.23648" lon="-1.61147">
        <ele>24.8</ele>
        <time>2012-01-19T10:38:20Z</time>
      </trkpt>
      <trkpt lat="47.23651" lon="-1.61152">
        <ele>25.2</ele>
        <time>2012-01-19T10:38:23Z</time>
      </trkpt>
      <trkpt lat="47.23653" lon="-1.61157">
        <ele>25</ele>
        <time>2012-01-19T10:38:26Z</time>
      </trkpt>
      <trkpt lat="47.23655" lon="-1.61161">
        <ele>25</ele>
        <time>2012-01-19T10:38:28Z</time>
      </trkpt>
      <trkpt lat="47.23657" lon="-1.61165">
        <ele>25.2</ele>
        <time>2012-01-19T10:38:30Z</time>
      </trkpt>
      <trkpt lat="47.2366" lon="-1.61169">
        <ele>25.2</ele>
        <time>2012-01-19T10:38:33Z</time>
      </trkpt>
      <trkpt lat="47.23662" lon="-1.61175">
        <ele>25</ele>
        <time>2012-01-19T10:38:36Z</time>
      </trkpt>
      <trkpt lat="47.23664" lon="-1.61179">
        <ele>25</ele>
        <time>2012-01-19T10:38:39Z</time>
      </trkpt>
      <trkpt lat="47.23667" lon="-1.61184">
        <ele>25.2</ele>
        <time>2012-01-19T10:38:42Z</time>
      </trkpt>
      <trkpt lat="47.23669" lon="-1.61188">
        <ele>24.7</ele>
        <time>2012-01-19T10:38:45Z</time>
      </trkpt>
      <trkpt lat="47.2367" lon="-1.61192">
        <ele>24.5</ele>
        <time>2012-01-19T10:38:47Z</time>
      </trkpt>
      <trkpt lat="47.23672" lon="-1.61198">
        <ele>24.6</ele>
        <time>2012-01-19T10:38:50Z</time>
      </trkpt>
      <trkpt lat="47.23674" lon="-1.61204">
        <ele>24.5</ele>
        <time>2012-01-19T10:38:53Z</time>
      </trkpt>
      <trkpt lat="47.23676" lon="-1.61209">
        <ele>24.3</ele>
        <time>2012-01-19T10:38:56Z</time>
      </trkpt>
      <trkpt lat="47.23678" lon="-1.61213">
        <ele>24.3</ele>
        <time>2012-01-19T10:38:58Z</time>
      </trkpt>
      <trkpt lat="47.23679" lon="-1.61216">
        <ele>24.3</ele>
        <time>2012-01-19T10:39:00Z</time>
      </trkpt>
      <trkpt lat="47.23681" lon="-1.6122">
        <ele>24.3</ele>
        <time>2012-01-19T10:39:02Z</time>
      </trkpt>
      <trkpt lat="47.23684" lon="-1.61225">
        <ele>24.5</ele>
        <time>2012-01-19T10:39:05Z</time>
      </trkpt>
      <trkpt lat="47.23686" lon="-1.61231">
        <ele>24.7</ele>
        <time>2012-01-19T10:39:08Z</time>
      </trkpt>
      <trkpt lat="47.23687" lon="-1.61232">
        <ele>25.1</ele>
        <time>2012-01-19T10:39:09Z</time>
      </trkpt>
      <trkpt lat="47.23692" lon="-1.61239">
        <ele>26.1</ele>
        <time>2012-01-19T10:39:14Z</time>
      </trkpt>
      <trkpt lat="47.23694" lon="-1.61244">
        <ele>26.6</ele>
        <time>2012-01-19T10:39:17Z</time>
      </trkpt>
      <trkpt lat="47.23697" lon="-1.61249">
        <ele>27.2</ele>
        <time>2012-01-19T10:39:21Z</time>
      </trkpt>
      <trkpt lat="47.23699" lon="-1.61253">
        <ele>26.7</ele>
        <time>2012-01-19T10:39:25Z</time>
      </trkpt>
      <trkpt lat="47.23703" lon="-1.61257">
        <ele>26.8</ele>
        <time>2012-01-19T10:39:30Z</time>
      </trkpt>
      <trkpt lat="47.23706" lon="-1.61261">
        <ele>27</ele>
        <time>2012-01-19T10:39:45Z</time>
      </trkpt>
      <trkpt lat="47.23707" lon="-1.61262">
        <ele>26.7</ele>
        <time>2012-01-19T10:39:49Z</time>
      </trkpt>
      <trkpt lat="47.23707" lon="-1.61262">
        <ele>26.7</ele>
        <time>2012-01-19T10:39:49Z</time>
      </trkpt>
    </trkseg>
  </trk>
</gpx>